Wetterdaten: Sonntag, 20.01.2019
Datum Zeit Temp. A. Pool Temp. Temp. 5cm Feuchte A. Luftdruck Regen Wind Richtung Richtung Sonnenschein ET UV Solar Taupunkt Windchill Windben Empfang
20.01.2019 00:00 -4,3 C 3,9 C -5,6 C 90 % 1015,3 hPa 0,0 l/m 5,1 km/h (1 Bft) O-NO 76 0 min 0,000 mm 0,0 UV-I 0 W/m -5,7 C -4,3 C 8,0 km/h (2 Bft) 100,00 %
20.01.2019 00:02 -4,3 C 3,9 C -5,6 C 91 % 1015,3 hPa 0,0 l/m 4,6 km/h (1 Bft) O-NO 72 0 min 0,000 mm 0,0 UV-I 0 W/m -5,5 C -4,3 C 6,4 km/h (2 Bft) 11,11 %
20.01.2019 00:04 -4,3 C 3,9 C -5,6 C 90 % 1015,3 hPa 0,0 l/m 5,7 km/h (1 Bft) NO 50 0 min 0,000 mm 0,0 UV-I 0 W/m -5,7 C -4,3 C 9,7 km/h (2 Bft) 91,49 %
20.01.2019 00:06 -4,4 C 3,9 C -5,6 C 90 % 1015,3 hPa 0,0 l/m 6,7 km/h (2 Bft) NO 51 0 min 0,000 mm 0,0 UV-I 0 W/m -5,8 C -4,7 C 9,7 km/h (2 Bft) 97,44 %
20.01.2019 00:08 -4,4 C 3,9 C -5,6 C 91 % 1015,2 hPa 0,0 l/m 5,8 km/h (2 Bft) NO 46 0 min 0,000 mm 0,0 UV-I 0 W/m -5,6 C -4,4 C 8,0 km/h (2 Bft) 98,00 %
20.01.2019 00:10 -4,4 C 3,9 C -6,1 C 91 % 1015,3 hPa 0,0 l/m 5,7 km/h (1 Bft) O-NO 66 0 min 0,000 mm 0,0 UV-I 0 W/m -5,6 C -4,4 C 8,0 km/h (2 Bft) 97,87 %
20.01.2019 00:12 -4,4 C 3,9 C -5,6 C 91 % 1015,2 hPa 0,0 l/m 3,9 km/h (1 Bft) O-NO 67 0 min 0,000 mm 0,0 UV-I 0 W/m -5,6 C -4,4 C 6,4 km/h (2 Bft) 100,00 %
20.01.2019 00:14 -4,4 C 3,9 C -5,6 C 91 % 1015,2 hPa 0,0 l/m 4,9 km/h (1 Bft) O-NO 77 0 min 0,000 mm 0,0 UV-I 0 W/m -5,6 C -4,4 C 6,4 km/h (2 Bft) 98,39 %
20.01.2019 00:16 -4,4 C 3,9 C -5,6 C 91 % 1015,2 hPa 0,0 l/m 5,3 km/h (1 Bft) O 98 0 min 0,000 mm 0,0 UV-I 0 W/m -5,6 C -4,4 C 9,7 km/h (2 Bft) 97,87 %
20.01.2019 00:18 -4,4 C 3,9 C -5,6 C 91 % 1015,1 hPa 0,0 l/m 4,6 km/h (1 Bft) O-NO 75 0 min 0,000 mm 0,0 UV-I 0 W/m -5,6 C -4,4 C 8,0 km/h (2 Bft) 95,74 %
20.01.2019 00:20 -4,4 C 3,9 C -6,1 C 91 % 1015,1 hPa 0,0 l/m 2,9 km/h (1 Bft) O-NO 61 0 min 0,000 mm 0,0 UV-I 0 W/m -5,6 C -4,4 C 4,8 km/h (1 Bft) 96,15 %
20.01.2019 00:22 -4,5 C 3,9 C -5,6 C 91 % 1015,2 hPa 0,0 l/m 4,0 km/h (1 Bft) O-NO 71 0 min 0,000 mm 0,0 UV-I 0 W/m -5,7 C -4,5 C 8,0 km/h (2 Bft) 98,46 %
20.01.2019 00:24 -4,5 C 3,9 C -5,6 C 91 % 1015,2 hPa 0,0 l/m 2,8 km/h (1 Bft) O-NO 70 0 min 0,000 mm 0,0 UV-I 0 W/m -5,7 C -4,5 C 6,4 km/h (2 Bft) 97,56 %
20.01.2019 00:26 -4,5 C 3,9 C -6,1 C 91 % 1015,2 hPa 0,0 l/m 1,8 km/h (1 Bft) O-NO 70 0 min 0,000 mm 0,0 UV-I 0 W/m -5,7 C -4,5 C 3,2 km/h (1 Bft) 98,11 %
20.01.2019 00:28 -4,5 C 3,9 C -6,1 C 91 % 1015,2 hPa 0,0 l/m 3,3 km/h (1 Bft) O-NO 65 0 min 0,000 mm 0,0 UV-I 0 W/m -5,7 C -4,5 C 4,8 km/h (1 Bft) 97,37 %
20.01.2019 00:30 -4,6 C 3,9 C -6,1 C 91 % 1015,2 hPa 0,0 l/m 4,0 km/h (1 Bft) NO 51 0 min 0,000 mm 0,0 UV-I 0 W/m -5,8 C -4,6 C 4,8 km/h (1 Bft) 97,87 %
20.01.2019 00:32 -4,6 C 3,9 C -6,1 C 91 % 1015,1 hPa 0,0 l/m 5,6 km/h (1 Bft) O-NO 59 0 min 0,000 mm 0,0 UV-I 0 W/m -5,8 C -4,6 C 9,7 km/h (2 Bft) 95,74 %
20.01.2019 00:34 -4,6 C 3,9 C -6,7 C 91 % 1015,2 hPa 0,0 l/m 4,1 km/h (1 Bft) O-NO 57 0 min 0,000 mm 0,0 UV-I 0 W/m -5,8 C -4,6 C 6,4 km/h (2 Bft) 95,74 %
20.01.2019 00:36 -4,7 C 3,9 C -6,7 C 91 % 1015,1 hPa 0,0 l/m 4,5 km/h (1 Bft) O-NO 60 0 min 0,000 mm 0,0 UV-I 0 W/m -5,9 C -4,7 C 6,4 km/h (2 Bft) 94,00 %
20.01.2019 00:38 -4,7 C 3,9 C -6,7 C 91 % 1015,2 hPa 0,0 l/m 4,5 km/h (1 Bft) O-NO 58 0 min 0,000 mm 0,0 UV-I 0 W/m -5,9 C -4,7 C 6,4 km/h (2 Bft) 97,56 %
20.01.2019 00:40 -4,8 C 3,9 C -6,7 C 91 % 1015,1 hPa 0,0 l/m 4,5 km/h (1 Bft) O-NO 61 0 min 0,000 mm 0,0 UV-I 0 W/m -6,0 C -4,8 C 6,4 km/h (2 Bft) 92,00 %
20.01.2019 00:42 -4,8 C 3,9 C -6,7 C 91 % 1015,1 hPa 0,0 l/m 3,6 km/h (1 Bft) O-NO 59 0 min 0,000 mm 0,0 UV-I 0 W/m -6,0 C -4,8 C 4,8 km/h (1 Bft) 91,49 %
20.01.2019 00:44 -4,8 C 3,9 C -7,2 C 91 % 1015,1 hPa 0,0 l/m 3,9 km/h (1 Bft) O-NO 59 0 min 0,000 mm 0,0 UV-I 0 W/m -6,0 C -4,8 C 6,4 km/h (2 Bft) 94,44 %
20.01.2019 00:46 -4,8 C 3,9 C -7,2 C 91 % 1015,1 hPa 0,0 l/m 5,5 km/h (1 Bft) O-NO 61 0 min 0,000 mm 0,0 UV-I 0 W/m -6,0 C -4,8 C 8,0 km/h (2 Bft) 90,62 %
20.01.2019 00:48 -4,9 C 3,9 C -7,2 C 91 % 1015,1 hPa 0,0 l/m 5,0 km/h (1 Bft) O-NO 58 0 min 0,000 mm 0,0 UV-I 0 W/m -6,1 C -4,9 C 6,4 km/h (2 Bft) 94,00 %
20.01.2019 00:50 -4,9 C 3,9 C -7,2 C 91 % 1015,0 hPa 0,0 l/m 4,7 km/h (1 Bft) O-NO 58 0 min 0,000 mm 0,0 UV-I 0 W/m -6,1 C -4,9 C 6,4 km/h (2 Bft) 88,89 %
20.01.2019 00:52 -4,9 C 3,9 C -7,2 C 91 % 1015,0 hPa 0,0 l/m 4,9 km/h (1 Bft) NO 46 0 min 0,000 mm 0,0 UV-I 0 W/m -6,1 C -4,9 C 6,4 km/h (2 Bft) 94,64 %
20.01.2019 00:54 -5,0 C 3,9 C -7,2 C 92 % 1015,1 hPa 0,0 l/m 5,2 km/h (1 Bft) NO 44 0 min 0,000 mm 0,0 UV-I 0 W/m -6,1 C -5,0 C 6,4 km/h (2 Bft) 93,62 %
20.01.2019 00:56 -4,9 C 3,9 C -7,2 C 92 % 1015,0 hPa 0,0 l/m 4,7 km/h (1 Bft) NO 46 0 min 0,000 mm 0,0 UV-I 0 W/m -6,0 C -4,9 C 6,4 km/h (2 Bft) 92,11 %
20.01.2019 00:58 -5,0 C 3,9 C -6,7 C 92 % 1015,0 hPa 0,0 l/m 3,8 km/h (1 Bft) NO 48 0 min 0,000 mm 0,0 UV-I 0 W/m -6,1 C -5,0 C 6,4 km/h (2 Bft) 90,00 %
20.01.2019 01:00 -5,1 C 3,9 C -7,2 C 92 % 1015,0 hPa 0,0 l/m 5,1 km/h (1 Bft) NO 46 0 min 0,000 mm 0,0 UV-I 0 W/m -6,2 C -5,1 C 6,4 km/h (2 Bft) 95,74 %
20.01.2019 01:02 -5,1 C 3,9 C -7,2 C 91 % 1015,0 hPa 0,0 l/m 4,4 km/h (1 Bft) O-NO 57 0 min 0,000 mm 0,0 UV-I 0 W/m -6,3 C -5,1 C 6,4 km/h (2 Bft) 96,00 %
20.01.2019 01:04 -5,1 C 3,9 C -7,2 C 91 % 1015,0 hPa 0,0 l/m 5,9 km/h (2 Bft) NO 43 0 min 0,000 mm 0,0 UV-I 0 W/m -6,3 C -5,1 C 8,0 km/h (2 Bft) 93,62 %
20.01.2019 01:06 -5,2 C 3,9 C -7,2 C 91 % 1014,9 hPa 0,0 l/m 5,5 km/h (1 Bft) NO 54 0 min 0,000 mm 0,0 UV-I 0 W/m -6,4 C -5,2 C 8,0 km/h (2 Bft) 95,74 %
20.01.2019 01:08 -5,2 C 3,9 C -7,2 C 91 % 1014,9 hPa 0,0 l/m 4,7 km/h (1 Bft) O-NO 58 0 min 0,000 mm 0,0 UV-I 0 W/m -6,4 C -5,2 C 6,4 km/h (2 Bft) 94,00 %
20.01.2019 01:10 -5,2 C 3,9 C -7,2 C 92 % 1014,9 hPa 0,0 l/m 5,5 km/h (1 Bft) NO 52 0 min 0,000 mm 0,0 UV-I 0 W/m -6,3 C -5,2 C 8,0 km/h (2 Bft) 100,00 %
20.01.2019 01:12 -5,2 C 3,9 C -7,2 C 92 % 1015,0 hPa 0,0 l/m 4,8 km/h (1 Bft) O-NO 60 0 min 0,000 mm 0,0 UV-I 0 W/m -6,3 C -5,2 C 6,4 km/h (2 Bft) 95,74 %
20.01.2019 01:14 -5,2 C 3,9 C -7,2 C 92 % 1015,0 hPa 0,0 l/m 3,9 km/h (1 Bft) NO 48 0 min 0,000 mm 0,0 UV-I 0 W/m -6,3 C -5,2 C 6,4 km/h (2 Bft) 100,00 %
20.01.2019 01:16 -5,2 C 3,9 C -7,2 C 92 % 1015,0 hPa 0,0 l/m 3,0 km/h (1 Bft) NO 52 0 min 0,000 mm 0,0 UV-I 0 W/m -6,3 C -5,2 C 4,8 km/h (1 Bft) 100,00 %
20.01.2019 01:18 -5,2 C 3,9 C -7,2 C 92 % 1015,0 hPa 0,0 l/m 3,0 km/h (1 Bft) NO 53 0 min 0,000 mm 0,0 UV-I 0 W/m -6,3 C -5,2 C 4,8 km/h (1 Bft) 100,00 %
20.01.2019 01:20 -5,2 C 3,9 C -7,2 C 91 % 1014,9 hPa 0,0 l/m 3,3 km/h (1 Bft) NO 53 0 min 0,000 mm 0,0 UV-I 0 W/m -6,4 C -5,2 C 4,8 km/h (1 Bft) 100,00 %
20.01.2019 01:22 -5,2 C 3,9 C -7,2 C 91 % 1015,0 hPa 0,0 l/m 2,9 km/h (1 Bft) NO 53 0 min 0,000 mm 0,0 UV-I 0 W/m -6,4 C -5,2 C 3,2 km/h (1 Bft) 98,08 %
20.01.2019 01:24 -5,2 C 3,9 C -7,2 C 91 % 1015,0 hPa 0,0 l/m 3,2 km/h (1 Bft) NO 53 0 min 0,000 mm 0,0 UV-I 0 W/m -6,4 C -5,2 C 4,8 km/h (1 Bft) 100,00 %
20.01.2019 01:26 -5,2 C 3,9 C -7,2 C 91 % 1015,0 hPa 0,0 l/m 2,7 km/h (1 Bft) NO 53 0 min 0,000 mm 0,0 UV-I 0 W/m -6,4 C -5,2 C 4,8 km/h (1 Bft) 100,00 %
20.01.2019 01:28 -5,1 C 3,9 C -6,7 C 91 % 1015,0 hPa 0,0 l/m 1,1 km/h (1 Bft) NO 53 0 min 0,000 mm 0,0 UV-I 0 W/m -6,3 C -5,1 C 3,2 km/h (1 Bft) 100,00 %
20.01.2019 01:30 -5,2 C 3,9 C -6,7 C 91 % 1015,0 hPa 0,0 l/m 1,3 km/h (1 Bft) NO 53 0 min 0,000 mm 0,0 UV-I 0 W/m -6,4 C -5,2 C 3,2 km/h (1 Bft) 95,74 %
20.01.2019 01:32 -5,2 C 3,9 C -6,7 C 92 % 1015,0 hPa 0,0 l/m 2,1 km/h (1 Bft) NO 53 0 min 0,000 mm 0,0 UV-I 0 W/m -6,3 C -5,2 C 3,2 km/h (1 Bft) 100,00 %
20.01.2019 01:34 -5,1 C 3,9 C -6,7 C 91 % 1015,0 hPa 0,0 l/m 1,9 km/h (1 Bft) NO 53 0 min 0,000 mm 0,0 UV-I 0 W/m -6,3 C -5,1 C 3,2 km/h (1 Bft) 95,74 %
20.01.2019 01:36 -5,1 C 3,9 C -6,7 C 91 % 1015,0 hPa 0,0 l/m 2,7 km/h (1 Bft) NO 53 0 min 0,000 mm 0,0 UV-I 0 W/m -6,3 C -5,1 C 4,8 km/h (1 Bft) 100,00 %
20.01.2019 01:38 -5,1 C 3,9 C -6,7 C 91 % 1014,9 hPa 0,0 l/m 3,3 km/h (1 Bft) NO 53 0 min 0,000 mm 0,0 UV-I 0 W/m -6,3 C -5,1 C 4,8 km/h (1 Bft) 97,87 %
20.01.2019 01:40 -5,1 C 3,9 C -6,1 C 91 % 1014,9 hPa 0,0 l/m 3,5 km/h (1 Bft) NO 53 0 min 0,000 mm 0,0 UV-I 0 W/m -6,3 C -5,1 C 4,8 km/h (1 Bft) 97,87 %
20.01.2019 01:42 -5,1 C 3,9 C -6,1 C 91 % 1015,0 hPa 0,0 l/m 3,6 km/h (1 Bft) NO 53 0 min 0,000 mm 0,0 UV-I 0 W/m -6,3 C -5,1 C 4,8 km/h (1 Bft) 100,00 %
20.01.2019 01:44 -5,1 C 3,9 C -6,1 C 91 % 1014,9 hPa 0,0 l/m 3,9 km/h (1 Bft) NO 55 0 min 0,000 mm 0,0 UV-I 0 W/m -6,3 C -5,1 C 4,8 km/h (1 Bft) 100,00 %
20.01.2019 01:46 -5,1 C 3,9 C -6,1 C 91 % 1014,9 hPa 0,0 l/m 3,7 km/h (1 Bft) NO 55 0 min 0,000 mm 0,0 UV-I 0 W/m -6,3 C -5,1 C 4,8 km/h (1 Bft) 100,00 %
20.01.2019 01:48 -5,1 C 3,9 C -6,1 C 91 % 1014,9 hPa 0,0 l/m 3,5 km/h (1 Bft) NO 55 0 min 0,000 mm 0,0 UV-I 0 W/m -6,3 C -5,1 C 4,8 km/h (1 Bft) 96,00 %
20.01.2019 01:50 -5,1 C 3,9 C -6,1 C 91 % 1014,9 hPa 0,0 l/m 3,3 km/h (1 Bft) NO 56 0 min 0,000 mm 0,0 UV-I 0 W/m -6,3 C -5,1 C 4,8 km/h (1 Bft) 97,73 %
20.01.2019 01:52 -5,0 C 3,9 C -6,1 C 92 % 1014,9 hPa 0,0 l/m 3,7 km/h (1 Bft) NO 49 0 min 0,000 mm 0,0 UV-I 0 W/m -6,1 C -5,0 C 6,4 km/h (2 Bft) 97,87 %
20.01.2019 01:54 -5,0 C 3,9 C -5,6 C 92 % 1015,0 hPa 0,0 l/m 3,2 km/h (1 Bft) NO 49 0 min 0,000 mm 0,0 UV-I 0 W/m -6,1 C -5,0 C 4,8 km/h (1 Bft) 96,23 %
20.01.2019 01:56 -4,9 C 3,9 C -5,6 C 92 % 1015,0 hPa 0,0 l/m 3,8 km/h (1 Bft) NO 49 0 min 0,000 mm 0,0 UV-I 0 W/m -6,0 C -4,9 C 4,8 km/h (1 Bft) 96,00 %
20.01.2019 01:58 -4,9 C 3,9 C -5,6 C 92 % 1015,0 hPa 0,0 l/m 4,7 km/h (1 Bft) NO 49 0 min 0,000 mm 0,0 UV-I 0 W/m -6,0 C -4,9 C 6,4 km/h (2 Bft) 94,74 %
20.01.2019 02:00 -4,9 C 3,9 C -5,6 C 92 % 1014,9 hPa 0,0 l/m 4,0 km/h (1 Bft) NO 51 0 min 0,000 mm 0,0 UV-I 0 W/m -6,0 C -4,9 C 4,8 km/h (1 Bft) 95,74 %
20.01.2019 02:02 -4,9 C 3,9 C -5,0 C 92 % 1015,0 hPa 0,0 l/m 3,8 km/h (1 Bft) O 82 0 min 0,000 mm 0,0 UV-I 0 W/m -6,0 C -4,9 C 6,4 km/h (2 Bft) 96,00 %
20.01.2019 02:04 -4,9 C 3,9 C -5,0 C 92 % 1014,9 hPa 0,0 l/m 4,5 km/h (1 Bft) O 86 0 min 0,000 mm 0,0 UV-I 0 W/m -6,0 C -4,9 C 6,4 km/h (2 Bft) 97,92 %
20.01.2019 02:06 -4,9 C 3,9 C -5,0 C 92 % 1014,9 hPa 0,0 l/m 3,1 km/h (1 Bft) O 88 0 min 0,000 mm 0,0 UV-I 0 W/m -6,0 C -4,9 C 4,8 km/h (1 Bft) 95,74 %
20.01.2019 02:08 -4,8 C 3,9 C -5,0 C 92 % 1014,9 hPa 0,0 l/m 3,1 km/h (1 Bft) O-NO 74 0 min 0,000 mm 0,0 UV-I 0 W/m -5,9 C -4,8 C 6,4 km/h (2 Bft) 100,00 %
20.01.2019 02:10 -4,8 C 3,9 C -5,0 C 91 % 1014,9 hPa 0,0 l/m 3,7 km/h (1 Bft) O-NO 64 0 min 0,000 mm 0,0 UV-I 0 W/m -6,0 C -4,8 C 6,4 km/h (2 Bft) 100,00 %
20.01.2019 02:12 -4,8 C 3,9 C -5,0 C 92 % 1014,9 hPa 0,0 l/m 4,2 km/h (1 Bft) O 83 0 min 0,000 mm 0,0 UV-I 0 W/m -5,9 C -4,8 C 6,4 km/h (2 Bft) 95,74 %
20.01.2019 02:14 -4,7 C 3,9 C -5,0 C 92 % 1014,9 hPa 0,0 l/m 5,6 km/h (1 Bft) O-NO 63 0 min 0,000 mm 0,0 UV-I 0 W/m -5,8 C -4,7 C 8,0 km/h (2 Bft) 100,00 %
20.01.2019 02:16 -4,7 C 3,9 C -5,0 C 92 % 1014,9 hPa 0,0 l/m 4,6 km/h (1 Bft) O-NO 66 0 min 0,000 mm 0,0 UV-I 0 W/m -5,8 C -4,7 C 6,4 km/h (2 Bft) 97,56 %
20.01.2019 02:18 -4,6 C 3,9 C -5,0 C 92 % 1014,9 hPa 0,0 l/m 5,4 km/h (1 Bft) NO 46 0 min 0,000 mm 0,0 UV-I 0 W/m -5,7 C -4,6 C 9,7 km/h (2 Bft) 100,00 %
20.01.2019 02:20 -4,6 C 3,9 C -5,0 C 91 % 1014,9 hPa 0,0 l/m 5,2 km/h (1 Bft) O 80 0 min 0,000 mm 0,0 UV-I 0 W/m -5,8 C -4,6 C 8,0 km/h (2 Bft) 100,00 %
20.01.2019 02:22 -4,6 C 3,9 C -5,0 C 91 % 1014,9 hPa 0,0 l/m 5,0 km/h (1 Bft) O-NO 63 0 min 0,000 mm 0,0 UV-I 0 W/m -5,8 C -4,6 C 6,4 km/h (2 Bft) 100,00 %
20.01.2019 02:24 -4,6 C 3,9 C -5,0 C 91 % 1015,0 hPa 0,0 l/m 5,0 km/h (1 Bft) O-NO 62 0 min 0,000 mm 0,0 UV-I 0 W/m -5,8 C -4,6 C 8,0 km/h (2 Bft) 95,74 %
20.01.2019 02:26 -4,6 C 3,9 C -5,0 C 91 % 1015,0 hPa 0,0 l/m 3,2 km/h (1 Bft) O-NO 65 0 min 0,000 mm 0,0 UV-I 0 W/m -5,8 C -4,6 C 4,8 km/h (1 Bft) 100,00 %
20.01.2019 02:28 -4,6 C 3,9 C -5,0 C 91 % 1015,0 hPa 0,0 l/m 3,9 km/h (1 Bft) O-NO 78 0 min 0,000 mm 0,0 UV-I 0 W/m -5,8 C -4,6 C 6,4 km/h (2 Bft) 100,00 %
20.01.2019 02:30 -4,6 C 3,9 C -5,0 C 91 % 1014,9 hPa 0,0 l/m 4,3 km/h (1 Bft) NO 52 0 min 0,000 mm 0,0 UV-I 0 W/m -5,8 C -4,6 C 6,4 km/h (2 Bft) 100,00 %
20.01.2019 02:32 -4,6 C 3,9 C -5,0 C 91 % 1014,9 hPa 0,0 l/m 3,8 km/h (1 Bft) O-NO 63 0 min 0,000 mm 0,0 UV-I 0 W/m -5,8 C -4,6 C 4,8 km/h (1 Bft) 100,00 %
20.01.2019 02:34 -4,5 C 3,9 C -5,0 C 91 % 1014,9 hPa 0,0 l/m 3,4 km/h (1 Bft) O-NO 65 0 min 0,000 mm 0,0 UV-I 0 W/m -5,7 C -4,5 C 6,4 km/h (2 Bft) 100,00 %
20.01.2019 02:36 -4,5 C 3,9 C -4,4 C 91 % 1014,9 hPa 0,0 l/m 5,4 km/h (1 Bft) O-NO 74 0 min 0,000 mm 0,0 UV-I 0 W/m -5,7 C -4,5 C 11,3 km/h (2 Bft) 95,74 %
20.01.2019 02:38 -4,4 C 3,9 C -4,4 C 91 % 1014,9 hPa 0,0 l/m 7,9 km/h (2 Bft) O-NO 78 0 min 0,000 mm 0,0 UV-I 0 W/m -5,6 C -6,2 C 12,9 km/h (3 Bft) 100,00 %
20.01.2019 02:40 -4,4 C 3,9 C -4,4 C 91 % 1014,9 hPa 0,0 l/m 8,0 km/h (2 Bft) O 79 0 min 0,000 mm 0,0 UV-I 0 W/m -5,6 C -6,3 C 12,9 km/h (3 Bft) 100,00 %
20.01.2019 02:42 -4,4 C 3,9 C -4,4 C 91 % 1014,9 hPa 0,0 l/m 6,0 km/h (2 Bft) O 90 0 min 0,000 mm 0,0 UV-I 0 W/m -5,6 C -4,4 C 8,0 km/h (2 Bft) 100,00 %
20.01.2019 02:44 -4,4 C 3,9 C -4,4 C 91 % 1014,9 hPa 0,0 l/m 5,7 km/h (1 Bft) O-NO 72 0 min 0,000 mm 0,0 UV-I 0 W/m -5,6 C -4,4 C 11,3 km/h (2 Bft) 100,00 %
20.01.2019 02:46 -4,4 C 3,9 C -4,4 C 91 % 1014,9 hPa 0,0 l/m 6,1 km/h (2 Bft) O 80 0 min 0,000 mm 0,0 UV-I 0 W/m -5,6 C -4,4 C 8,0 km/h (2 Bft) 97,87 %
20.01.2019 02:48 -4,4 C 3,9 C -4,4 C 91 % 1014,8 hPa 0,0 l/m 6,8 km/h (2 Bft) O-NO 63 0 min 0,000 mm 0,0 UV-I 0 W/m -5,6 C -4,9 C 14,5 km/h (3 Bft) 96,00 %
20.01.2019 02:50 -4,4 C 3,9 C -4,4 C 91 % 1014,8 hPa 0,0 l/m 7,4 km/h (2 Bft) O 80 0 min 0,000 mm 0,0 UV-I 0 W/m -5,6 C -5,6 C 12,9 km/h (3 Bft) 97,87 %
20.01.2019 02:52 -4,4 C 3,9 C -4,4 C 91 % 1014,8 hPa 0,0 l/m 7,9 km/h (2 Bft) O 90 0 min 0,000 mm 0,0 UV-I 0 W/m -5,6 C -6,2 C 12,9 km/h (3 Bft) 97,87 %
20.01.2019 02:54 -4,4 C 3,9 C -4,4 C 91 % 1014,8 hPa 0,0 l/m 9,6 km/h (2 Bft) O 85 0 min 0,000 mm 0,0 UV-I 0 W/m -5,6 C -7,9 C 17,7 km/h (3 Bft) 97,56 %
20.01.2019 02:56 -4,3 C 3,9 C -4,4 C 91 % 1014,9 hPa 0,0 l/m 7,6 km/h (2 Bft) O 93 0 min 0,000 mm 0,0 UV-I 0 W/m -5,5 C -5,7 C 11,3 km/h (2 Bft) 97,87 %
20.01.2019 02:58 -4,3 C 3,9 C -4,4 C 91 % 1014,9 hPa 0,0 l/m 9,9 km/h (2 Bft) O 96 0 min 0,000 mm 0,0 UV-I 0 W/m -5,5 C -8,1 C 16,1 km/h (3 Bft) 95,74 %
20.01.2019 03:00 -4,3 C 3,9 C -4,4 C 91 % 1014,9 hPa 0,0 l/m 9,8 km/h (2 Bft) O-NO 78 0 min 0,000 mm 0,0 UV-I 0 W/m -5,5 C -8,0 C 14,5 km/h (3 Bft) 96,23 %
20.01.2019 03:02 -4,2 C 3,9 C -4,4 C 91 % 1014,9 hPa 0,0 l/m 7,5 km/h (2 Bft) O-SO 117 0 min 0,000 mm 0,0 UV-I 0 W/m -5,4 C -5,5 C 9,7 km/h (2 Bft) 96,00 %
20.01.2019 03:04 -4,2 C 3,9 C -4,4 C 91 % 1014,9 hPa 0,0 l/m 11,5 km/h (2 Bft) O-NO 67 0 min 0,000 mm 0,0 UV-I 0 W/m -5,4 C -9,4 C 17,7 km/h (3 Bft) 88,57 %
20.01.2019 03:06 -4,2 C 3,9 C -4,4 C 91 % 1014,9 hPa 0,0 l/m 12,6 km/h (3 Bft) O 91 0 min 0,000 mm 0,0 UV-I 0 W/m -5,4 C -10,3 C 16,1 km/h (3 Bft) 94,12 %
20.01.2019 03:08 -4,2 C 3,9 C -4,4 C 91 % 1014,8 hPa 0,0 l/m 9,6 km/h (2 Bft) O 81 0 min 0,000 mm 0,0 UV-I 0 W/m -5,4 C -7,7 C 16,1 km/h (3 Bft) 93,62 %
20.01.2019 03:10 -4,3 C 3,9 C -4,4 C 91 % 1014,8 hPa 0,0 l/m 7,7 km/h (2 Bft) O 89 0 min 0,000 mm 0,0 UV-I 0 W/m -5,5 C -5,8 C 12,9 km/h (3 Bft) 96,00 %
20.01.2019 03:12 -4,2 C 3,9 C -4,4 C 91 % 1014,8 hPa 0,0 l/m 6,9 km/h (2 Bft) O 94 0 min 0,000 mm 0,0 UV-I 0 W/m -5,4 C -4,8 C 11,3 km/h (2 Bft) 95,74 %
20.01.2019 03:14 -4,2 C 3,9 C -4,4 C 91 % 1014,8 hPa 0,0 l/m 14,4 km/h (3 Bft) O 100 0 min 0,000 mm 0,0 UV-I 0 W/m -5,4 C -11,7 C 19,3 km/h (3 Bft) 96,00 %
20.01.2019 03:16 -4,2 C 3,9 C -4,4 C 91 % 1014,9 hPa 0,0 l/m 13,1 km/h (3 Bft) O 83 0 min 0,000 mm 0,0 UV-I 0 W/m -5,4 C -10,7 C 17,7 km/h (3 Bft) 92,31 %
20.01.2019 03:18 -4,2 C 3,9 C -3,9 C 91 % 1014,9 hPa 0,0 l/m 14,4 km/h (3 Bft) O-SO 107 0 min 0,000 mm 0,0 UV-I 0 W/m -5,4 C -11,7 C 19,3 km/h (3 Bft) 97,62 %
20.01.2019 03:20 -4,2 C 3,9 C -3,9 C 92 % 1014,9 hPa 0,0 l/m 12,4 km/h (3 Bft) O 92 0 min 0,000 mm 0,0 UV-I 0 W/m -5,3 C -10,2 C 20,9 km/h (4 Bft) 98,11 %
20.01.2019 03:22 -4,2 C 3,9 C -3,9 C 92 % 1014,9 hPa 0,0 l/m 16,2 km/h (3 Bft) O 79 0 min 0,000 mm 0,0 UV-I 0 W/m -5,3 C -12,9 C 20,9 km/h (4 Bft) 96,08 %
20.01.2019 03:24 -4,2 C 3,9 C -3,9 C 92 % 1014,9 hPa 0,0 l/m 14,0 km/h (3 Bft) O 82 0 min 0,000 mm 0,0 UV-I 0 W/m -5,3 C -11,4 C 17,7 km/h (3 Bft) 96,00 %
20.01.2019 03:26 -4,2 C 3,9 C -3,9 C 91 % 1014,9 hPa 0,0 l/m 15,1 km/h (3 Bft) O 88 0 min 0,000 mm 0,0 UV-I 0 W/m -5,4 C -12,1 C 19,3 km/h (3 Bft) 92,68 %
20.01.2019 03:28 -4,2 C 3,9 C -3,9 C 92 % 1014,9 hPa 0,0 l/m 14,2 km/h (3 Bft) O 88 0 min 0,000 mm 0,0 UV-I 0 W/m -5,3 C -11,5 C 19,3 km/h (3 Bft) 98,11 %
20.01.2019 03:30 -4,2 C 3,9 C -3,9 C 92 % 1014,9 hPa 0,0 l/m 14,4 km/h (3 Bft) O 96 0 min 0,000 mm 0,0 UV-I 0 W/m -5,3 C -11,7 C 19,3 km/h (3 Bft) 97,56 %
20.01.2019 03:32 -4,2 C 3,9 C -3,9 C 92 % 1014,9 hPa 0,0 l/m 12,8 km/h (3 Bft) O-SO 119 0 min 0,000 mm 0,0 UV-I 0 W/m -5,3 C -10,5 C 17,7 km/h (3 Bft) 94,74 %
20.01.2019 03:34 -4,2 C 3,9 C -3,9 C 92 % 1014,8 hPa 0,0 l/m 8,1 km/h (2 Bft) O-SO 117 0 min 0,000 mm 0,0 UV-I 0 W/m -5,3 C -6,2 C 12,9 km/h (3 Bft) 98,00 %
20.01.2019 03:36 -4,2 C 3,9 C -3,9 C 92 % 1014,9 hPa 0,0 l/m 8,9 km/h (2 Bft) O 91 0 min 0,000 mm 0,0 UV-I 0 W/m -5,3 C -7,0 C 12,9 km/h (3 Bft) 96,00 %
20.01.2019 03:38 -4,2 C 3,9 C -3,9 C 92 % 1014,9 hPa 0,0 l/m 11,4 km/h (2 Bft) O-NO 77 0 min 0,000 mm 0,0 UV-I 0 W/m -5,3 C -9,3 C 17,7 km/h (3 Bft) 98,00 %
20.01.2019 03:40 -4,1 C 3,9 C -3,9 C 92 % 1014,9 hPa 0,0 l/m 11,0 km/h (2 Bft) O 86 0 min 0,000 mm 0,0 UV-I 0 W/m -5,2 C -8,9 C 16,1 km/h (3 Bft) 97,56 %
20.01.2019 03:42 -4,1 C 3,9 C -3,9 C 92 % 1014,9 hPa 0,0 l/m 13,0 km/h (3 Bft) O-SO 108 0 min 0,000 mm 0,0 UV-I 0 W/m -5,2 C -10,5 C 20,9 km/h (4 Bft) 94,64 %
20.01.2019 03:44 -4,1 C 3,9 C -3,9 C 92 % 1014,9 hPa 0,0 l/m 8,7 km/h (2 Bft) O-NO 73 0 min 0,000 mm 0,0 UV-I 0 W/m -5,2 C -6,7 C 16,1 km/h (3 Bft) 97,37 %
20.01.2019 03:46 -4,1 C 3,9 C -3,9 C 92 % 1014,9 hPa 0,0 l/m 7,6 km/h (2 Bft) O 101 0 min 0,000 mm 0,0 UV-I 0 W/m -5,2 C -5,5 C 11,3 km/h (2 Bft) 98,00 %
20.01.2019 03:48 -4,1 C 3,9 C -3,9 C 92 % 1014,9 hPa 0,0 l/m 9,7 km/h (2 Bft) SO 131 0 min 0,000 mm 0,0 UV-I 0 W/m -5,2 C -7,7 C 14,5 km/h (3 Bft) 95,74 %
20.01.2019 03:50 -4,1 C 3,9 C -3,9 C 92 % 1014,9 hPa 0,0 l/m 9,2 km/h (2 Bft) O 94 0 min 0,000 mm 0,0 UV-I 0 W/m -5,2 C -7,2 C 14,5 km/h (3 Bft) 97,87 %
20.01.2019 03:52 -4,1 C 3,9 C -3,9 C 92 % 1014,9 hPa 0,0 l/m 11,6 km/h (2 Bft) O 82 0 min 0,000 mm 0,0 UV-I 0 W/m -5,2 C -9,4 C 16,1 km/h (3 Bft) 98,00 %
20.01.2019 03:54 -4,1 C 3,9 C -3,9 C 92 % 1014,9 hPa 0,0 l/m 13,4 km/h (3 Bft) O 98 0 min 0,000 mm 0,0 UV-I 0 W/m -5,2 C -10,8 C 16,1 km/h (3 Bft) 97,44 %
20.01.2019 03:56 -4,1 C 3,9 C -3,9 C 92 % 1014,9 hPa 0,0 l/m 9,1 km/h (2 Bft) O-NO 69 0 min 0,000 mm 0,0 UV-I 0 W/m -5,2 C -7,1 C 14,5 km/h (3 Bft) 96,36 %
20.01.2019 03:58 -4,1 C 3,9 C -3,9 C 92 % 1014,9 hPa 0,0 l/m 9,9 km/h (2 Bft) O-NO 73 0 min 0,000 mm 0,0 UV-I 0 W/m -5,2 C -7,9 C 14,5 km/h (3 Bft) 94,87 %
20.01.2019 04:00 -4,1 C 3,9 C -3,9 C 92 % 1014,9 hPa 0,0 l/m 12,0 km/h (2 Bft) O-SO 113 0 min 0,000 mm 0,0 UV-I 0 W/m -5,2 C -9,7 C 16,1 km/h (3 Bft) 94,55 %
20.01.2019 04:02 -4,1 C 3,9 C -3,9 C 92 % 1014,9 hPa 0,0 l/m 12,7 km/h (3 Bft) O-SO 116 0 min 0,000 mm 0,0 UV-I 0 W/m -5,2 C -10,3 C 14,5 km/h (3 Bft) 100,00 %
20.01.2019 04:04 -4,2 C 3,9 C -3,9 C 92 % 1014,8 hPa 0,0 l/m 12,4 km/h (3 Bft) O 90 0 min 0,000 mm 0,0 UV-I 0 W/m -5,3 C -10,2 C 16,1 km/h (3 Bft) 97,87 %
20.01.2019 04:06 -4,2 C 3,9 C -3,9 C 92 % 1014,9 hPa 0,0 l/m 13,7 km/h (3 Bft) O 98 0 min 0,000 mm 0,0 UV-I 0 W/m -5,3 C -11,2 C 17,7 km/h (3 Bft) 97,37 %
20.01.2019 04:08 -4,2 C 3,9 C -3,9 C 92 % 1014,9 hPa 0,0 l/m 10,2 km/h (2 Bft) O 87 0 min 0,000 mm 0,0 UV-I 0 W/m -5,3 C -8,3 C 16,1 km/h (3 Bft) 96,23 %
20.01.2019 04:10 -4,2 C 3,9 C -3,9 C 92 % 1014,9 hPa 0,0 l/m 10,5 km/h (2 Bft) O-NO 69 0 min 0,000 mm 0,0 UV-I 0 W/m -5,3 C -8,6 C 14,5 km/h (3 Bft) 96,00 %
20.01.2019 04:12 -4,2 C 3,9 C -3,9 C 92 % 1014,9 hPa 0,0 l/m 8,4 km/h (2 Bft) O-NO 78 0 min 0,000 mm 0,0 UV-I 0 W/m -5,3 C -6,5 C 12,9 km/h (3 Bft) 95,12 %
20.01.2019 04:14 -4,2 C 3,9 C -3,9 C 92 % 1014,9 hPa 0,0 l/m 10,2 km/h (2 Bft) O-NO 67 0 min 0,000 mm 0,0 UV-I 0 W/m -5,3 C -8,3 C 14,5 km/h (3 Bft) 95,45 %
20.01.2019 04:16 -4,2 C 3,9 C -3,9 C 92 % 1014,9 hPa 0,0 l/m 9,2 km/h (2 Bft) O-NO 63 0 min 0,000 mm 0,0 UV-I 0 W/m -5,3 C -7,3 C 12,9 km/h (3 Bft) 91,49 %
20.01.2019 04:18 -4,2 C 3,9 C -3,9 C 92 % 1014,9 hPa 0,0 l/m 15,2 km/h (3 Bft) O-SO 102 0 min 0,000 mm 0,0 UV-I 0 W/m -5,3 C -12,2 C 19,3 km/h (3 Bft) 92,00 %
20.01.2019 04:20 -4,2 C 3,9 C -3,9 C 92 % 1015,0 hPa 0,0 l/m 11,6 km/h (2 Bft) O-SO 107 0 min 0,000 mm 0,0 UV-I 0 W/m -5,3 C -9,5 C 17,7 km/h (3 Bft) 94,00 %
20.01.2019 04:22 -4,2 C 3,9 C -3,9 C 92 % 1015,0 hPa 0,0 l/m 11,7 km/h (2 Bft) O-SO 105 0 min 0,000 mm 0,0 UV-I 0 W/m -5,3 C -9,6 C 14,5 km/h (3 Bft) 96,00 %
20.01.2019 04:24 -4,2 C 3,9 C -3,9 C 92 % 1015,0 hPa 0,0 l/m 12,5 km/h (3 Bft) O-SO 106 0 min 0,000 mm 0,0 UV-I 0 W/m -5,3 C -10,2 C 14,5 km/h (3 Bft) 95,12 %
20.01.2019 04:26 -4,2 C 3,9 C -3,9 C 92 % 1015,0 hPa 0,0 l/m 8,0 km/h (2 Bft) O 86 0 min 0,000 mm 0,0 UV-I 0 W/m -5,3 C -6,1 C 12,9 km/h (3 Bft) 95,12 %
20.01.2019 04:28 -4,2 C 3,9 C -3,9 C 92 % 1015,0 hPa 0,0 l/m 7,3 km/h (2 Bft) O 89 0 min 0,000 mm 0,0 UV-I 0 W/m -5,3 C -5,3 C 11,3 km/h (2 Bft) 93,18 %
20.01.2019 04:30 -4,2 C 3,9 C -3,9 C 92 % 1014,9 hPa 0,0 l/m 7,1 km/h (2 Bft) O 84 0 min 0,000 mm 0,0 UV-I 0 W/m -5,3 C -5,0 C 12,9 km/h (3 Bft) 96,61 %
20.01.2019 04:32 -4,2 C 3,9 C -3,9 C 92 % 1015,0 hPa 0,0 l/m 8,3 km/h (2 Bft) O 80 0 min 0,000 mm 0,0 UV-I 0 W/m -5,3 C -6,4 C 12,9 km/h (3 Bft) 95,12 %
20.01.2019 04:34 -4,2 C 3,9 C -3,9 C 92 % 1015,0 hPa 0,0 l/m 8,8 km/h (2 Bft) O-NO 64 0 min 0,000 mm 0,0 UV-I 0 W/m -5,3 C -6,9 C 14,5 km/h (3 Bft) 94,34 %
20.01.2019 04:36 -4,2 C 3,9 C -3,9 C 92 % 1015,0 hPa 0,0 l/m 7,4 km/h (2 Bft) O-NO 76 0 min 0,000 mm 0,0 UV-I 0 W/m -5,3 C -5,4 C 12,9 km/h (3 Bft) 95,74 %
20.01.2019 04:38 -4,2 C 3,9 C -3,9 C 92 % 1015,0 hPa 0,0 l/m 13,4 km/h (3 Bft) O-NO 64 0 min 0,000 mm 0,0 UV-I 0 W/m -5,3 C -10,9 C 20,9 km/h (4 Bft) 100,00 %
20.01.2019 04:40 -4,2 C 3,9 C -3,9 C 92 % 1015,0 hPa 0,0 l/m 11,8 km/h (2 Bft) O-NO 76 0 min 0,000 mm 0,0 UV-I 0 W/m -5,3 C -9,7 C 16,1 km/h (3 Bft) 100,00 %
20.01.2019 04:42 -4,2 C 3,9 C -3,9 C 92 % 1014,9 hPa 0,0 l/m 10,9 km/h (2 Bft) O 82 0 min 0,000 mm 0,0 UV-I 0 W/m -5,3 C -8,9 C 16,1 km/h (3 Bft) 100,00 %
20.01.2019 04:44 -4,2 C 3,9 C -3,9 C 92 % 1015,0 hPa 0,0 l/m 10,0 km/h (2 Bft) O-NO 64 0 min 0,000 mm 0,0 UV-I 0 W/m -5,3 C -8,1 C 16,1 km/h (3 Bft) 97,56 %
20.01.2019 04:46 -4,2 C 3,9 C -3,9 C 92 % 1014,9 hPa 0,0 l/m 6,8 km/h (2 Bft) O-NO 71 0 min 0,000 mm 0,0 UV-I 0 W/m -5,3 C -4,7 C 11,3 km/h (2 Bft) 98,00 %
20.01.2019 04:48 -4,1 C 3,9 C -3,9 C 92 % 1014,9 hPa 0,0 l/m 7,9 km/h (2 Bft) O 87 0 min 0,000 mm 0,0 UV-I 0 W/m -5,2 C -5,8 C 16,1 km/h (3 Bft) 97,37 %
20.01.2019 04:50 -4,1 C 3,9 C -3,9 C 92 % 1014,9 hPa 0,0 l/m 11,9 km/h (2 Bft) O 90 0 min 0,000 mm 0,0 UV-I 0 W/m -5,2 C -9,6 C 17,7 km/h (3 Bft) 100,00 %
20.01.2019 04:52 -4,1 C 3,9 C -3,9 C 92 % 1014,9 hPa 0,0 l/m 12,9 km/h (3 Bft) O-SO 107 0 min 0,000 mm 0,0 UV-I 0 W/m -5,2 C -10,4 C 17,7 km/h (3 Bft) 100,00 %
20.01.2019 04:54 -4,2 C 3,9 C -3,9 C 92 % 1014,9 hPa 0,0 l/m 9,3 km/h (2 Bft) O-NO 74 0 min 0,000 mm 0,0 UV-I 0 W/m -5,3 C -7,4 C 12,9 km/h (3 Bft) 97,37 %
20.01.2019 04:56 -4,2 C 3,9 C -3,9 C 92 % 1014,9 hPa 0,0 l/m 8,1 km/h (2 Bft) O 80 0 min 0,000 mm 0,0 UV-I 0 W/m -5,3 C -6,2 C 12,9 km/h (3 Bft) 100,00 %
20.01.2019 04:58 -4,2 C 3,9 C -3,9 C 92 % 1014,9 hPa 0,0 l/m 10,0 km/h (2 Bft) O 83 0 min 0,000 mm 0,0 UV-I 0 W/m -5,3 C -8,1 C 14,5 km/h (3 Bft) 97,14 %
20.01.2019 05:00 -4,2 C 3,9 C -3,9 C 92 % 1014,9 hPa 0,0 l/m 11,4 km/h (2 Bft) O-NO 62 0 min 0,000 mm 0,0 UV-I 0 W/m -5,3 C -9,3 C 16,1 km/h (3 Bft) 90,24 %
20.01.2019 05:02 -4,2 C 3,9 C -3,9 C 92 % 1014,9 hPa 0,0 l/m 9,4 km/h (2 Bft) O-SO 108 0 min 0,000 mm 0,0 UV-I 0 W/m -5,3 C -7,5 C 14,5 km/h (3 Bft) 98,11 %
20.01.2019 05:04 -4,2 C 3,9 C -3,9 C 92 % 1014,9 hPa 0,0 l/m 9,5 km/h (2 Bft) O-SO 107 0 min 0,000 mm 0,0 UV-I 0 W/m -5,3 C -7,6 C 12,9 km/h (3 Bft) 98,00 %
20.01.2019 05:06 -4,1 C 3,9 C -3,9 C 92 % 1014,9 hPa 0,0 l/m 6,2 km/h (2 Bft) O-SO 115 0 min 0,000 mm 0,0 UV-I 0 W/m -5,2 C -4,1 C 11,3 km/h (2 Bft) 95,74 %
20.01.2019 05:08 -4,1 C 3,9 C -3,9 C 92 % 1014,9 hPa 0,0 l/m 8,7 km/h (2 Bft) O-NO 77 0 min 0,000 mm 0,0 UV-I 0 W/m -5,2 C -6,7 C 17,7 km/h (3 Bft) 95,74 %
20.01.2019 05:10 -4,1 C 3,9 C -3,9 C 92 % 1014,9 hPa 0,0 l/m 14,3 km/h (3 Bft) O 88 0 min 0,000 mm 0,0 UV-I 0 W/m -5,2 C -11,5 C 19,3 km/h (3 Bft) 98,00 %
20.01.2019 05:12 -4,1 C 3,9 C -3,9 C 92 % 1014,9 hPa 0,0 l/m 11,0 km/h (2 Bft) O 81 0 min 0,000 mm 0,0 UV-I 0 W/m -5,2 C -8,9 C 14,5 km/h (3 Bft) 97,73 %
20.01.2019 05:14 -4,1 C 3,9 C -3,9 C 92 % 1014,9 hPa 0,0 l/m 10,7 km/h (2 Bft) O 97 0 min 0,000 mm 0,0 UV-I 0 W/m -5,2 C -8,6 C 16,1 km/h (3 Bft) 97,62 %
20.01.2019 05:16 -4,1 C 3,9 C -3,9 C 92 % 1014,9 hPa 0,0 l/m 7,6 km/h (2 Bft) O-NO 63 0 min 0,000 mm 0,0 UV-I 0 W/m -5,2 C -5,5 C 11,3 km/h (2 Bft) 98,00 %
20.01.2019 05:18 -4,1 C 3,9 C -3,9 C 92 % 1014,9 hPa 0,0 l/m 7,4 km/h (2 Bft) O 80 0 min 0,000 mm 0,0 UV-I 0 W/m -5,2 C -5,3 C 11,3 km/h (2 Bft) 94,74 %
20.01.2019 05:20 -4,1 C 3,9 C -3,9 C 92 % 1014,9 hPa 0,0 l/m 6,7 km/h (2 Bft) O-NO 67 0 min 0,000 mm 0,0 UV-I 0 W/m -5,2 C -4,4 C 11,3 km/h (2 Bft) 96,36 %
20.01.2019 05:22 -4,1 C 3,9 C -3,9 C 92 % 1014,9 hPa 0,0 l/m 7,3 km/h (2 Bft) O-NO 74 0 min 0,000 mm 0,0 UV-I 0 W/m -5,2 C -5,2 C 17,7 km/h (3 Bft) 95,92 %
20.01.2019 05:24 -4,1 C 3,9 C -3,9 C 92 % 1014,9 hPa 0,0 l/m 11,1 km/h (2 Bft) O 88 0 min 0,000 mm 0,0 UV-I 0 W/m -5,2 C -9,0 C 14,5 km/h (3 Bft) 92,00 %
20.01.2019 05:26 -4,1 C 3,9 C -3,9 C 92 % 1014,9 hPa 0,0 l/m 10,4 km/h (2 Bft) O 86 0 min 0,000 mm 0,0 UV-I 0 W/m -5,2 C -8,3 C 14,5 km/h (3 Bft) 95,12 %
20.01.2019 05:28 -4,1 C 3,9 C -3,9 C 92 % 1014,9 hPa 0,0 l/m 9,5 km/h (2 Bft) O-NO 76 0 min 0,000 mm 0,0 UV-I 0 W/m -5,2 C -7,5 C 14,5 km/h (3 Bft) 97,56 %
20.01.2019 05:30 -4,1 C 3,9 C -3,9 C 92 % 1014,9 hPa 0,0 l/m 8,3 km/h (2 Bft) O-SO 103 0 min 0,000 mm 0,0 UV-I 0 W/m -5,2 C -6,3 C 14,5 km/h (3 Bft) 98,31 %
20.01.2019 05:32 -4,1 C 3,9 C -3,9 C 91 % 1014,8 hPa 0,0 l/m 8,5 km/h (2 Bft) O 86 0 min 0,000 mm 0,0 UV-I 0 W/m -5,3 C -6,5 C 12,9 km/h (3 Bft) 95,45 %
20.01.2019 05:34 -4,1 C 3,9 C -3,9 C 92 % 1014,8 hPa 0,0 l/m 13,2 km/h (3 Bft) O 81 0 min 0,000 mm 0,0 UV-I 0 W/m -5,2 C -10,7 C 17,7 km/h (3 Bft) 96,00 %
20.01.2019 05:36 -4,2 C 3,9 C -3,9 C 91 % 1014,8 hPa 0,0 l/m 11,2 km/h (2 Bft) O-NO 68 0 min 0,000 mm 0,0 UV-I 0 W/m -5,4 C -9,2 C 16,1 km/h (3 Bft) 100,00 %
20.01.2019 05:38 -4,2 C 3,9 C -3,9 C 91 % 1014,8 hPa 0,0 l/m 10,1 km/h (2 Bft) O 93 0 min 0,000 mm 0,0 UV-I 0 W/m -5,4 C -8,2 C 17,7 km/h (3 Bft) 95,74 %
20.01.2019 05:40 -4,2 C 3,9 C -3,9 C 91 % 1014,8 hPa 0,0 l/m 8,9 km/h (2 Bft) O-NO 77 0 min 0,000 mm 0,0 UV-I 0 W/m -5,4 C -7,0 C 16,1 km/h (3 Bft) 95,12 %
20.01.2019 05:42 -4,2 C 3,9 C -3,9 C 91 % 1014,8 hPa 0,0 l/m 7,1 km/h (2 Bft) O-NO 70 0 min 0,000 mm 0,0 UV-I 0 W/m -5,4 C -5,0 C 12,9 km/h (3 Bft) 95,74 %
20.01.2019 05:44 -4,2 C 3,9 C -3,9 C 91 % 1014,8 hPa 0,0 l/m 8,8 km/h (2 Bft) O-SO 106 0 min 0,000 mm 0,0 UV-I 0 W/m -5,4 C -6,9 C 14,5 km/h (3 Bft) 100,00 %
20.01.2019 05:46 -4,2 C 3,9 C -3,9 C 91 % 1014,8 hPa 0,0 l/m 9,9 km/h (2 Bft) O-NO 57 0 min 0,000 mm 0,0 UV-I 0 W/m -5,4 C -8,0 C 14,5 km/h (3 Bft) 97,87 %
20.01.2019 05:48 -4,2 C 3,9 C -3,9 C 91 % 1014,8 hPa 0,0 l/m 7,5 km/h (2 Bft) O 82 0 min 0,000 mm 0,0 UV-I 0 W/m -5,4 C -5,5 C 11,3 km/h (2 Bft) 97,87 %
20.01.2019 05:50 -4,2 C 3,9 C -3,9 C 91 % 1014,9 hPa 0,0 l/m 7,9 km/h (2 Bft) O 91 0 min 0,000 mm 0,0 UV-I 0 W/m -5,4 C -5,9 C 14,5 km/h (3 Bft) 97,92 %
20.01.2019 05:52 -4,2 C 3,9 C -3,9 C 91 % 1014,8 hPa 0,0 l/m 7,6 km/h (2 Bft) O-SO 104 0 min 0,000 mm 0,0 UV-I 0 W/m -5,4 C -5,6 C 12,9 km/h (3 Bft) 100,00 %
20.01.2019 05:54 -4,2 C 3,9 C -3,9 C 91 % 1014,8 hPa 0,0 l/m 9,5 km/h (2 Bft) O 90 0 min 0,000 mm 0,0 UV-I 0 W/m -5,4 C -7,6 C 12,9 km/h (3 Bft) 98,08 %
20.01.2019 05:56 -4,2 C 3,9 C -3,9 C 91 % 1014,9 hPa 0,0 l/m 3,8 km/h (1 Bft) O-SO 106 0 min 0,000 mm 0,0 UV-I 0 W/m -5,4 C -4,2 C 6,4 km/h (2 Bft) 100,00 %
20.01.2019 05:58 -4,2 C 3,9 C -3,9 C 91 % 1014,9 hPa 0,0 l/m 2,5 km/h (1 Bft) O-NO 75 0 min 0,000 mm 0,0 UV-I 0 W/m -5,4 C -4,2 C 4,8 km/h (1 Bft) 97,14 %
20.01.2019 06:00 -4,2 C 3,9 C -3,9 C 91 % 1014,9 hPa 0,0 l/m 6,7 km/h (2 Bft) O 85 0 min 0,000 mm 0,0 UV-I 0 W/m -5,4 C -4,5 C 14,5 km/h (3 Bft) 100,00 %
20.01.2019 06:02 -4,2 C 3,9 C -3,9 C 91 % 1014,9 hPa 0,0 l/m 10,5 km/h (2 Bft) O-SO 102 0 min 0,000 mm 0,0 UV-I 0 W/m -5,4 C -8,6 C 14,5 km/h (3 Bft) 97,73 %
20.01.2019 06:04 -4,2 C 3,9 C -3,9 C 91 % 1014,9 hPa 0,0 l/m 7,8 km/h (2 Bft) O-NO 62 0 min 0,000 mm 0,0 UV-I 0 W/m -5,4 C -5,8 C 11,3 km/h (2 Bft) 100,00 %
20.01.2019 06:06 -4,2 C 3,9 C -3,9 C 91 % 1014,8 hPa 0,0 l/m 5,6 km/h (1 Bft) O-NO 63 0 min 0,000 mm 0,0 UV-I 0 W/m -5,4 C -4,2 C 9,7 km/h (2 Bft) 100,00 %
20.01.2019 06:08 -4,2 C 3,9 C -3,9 C 91 % 1014,8 hPa 0,0 l/m 5,6 km/h (1 Bft) O-SO 113 0 min 0,000 mm 0,0 UV-I 0 W/m -5,4 C -4,2 C 12,9 km/h (3 Bft) 97,87 %
20.01.2019 06:10 -4,2 C 3,9 C -3,9 C 91 % 1014,8 hPa 0,0 l/m 4,1 km/h (1 Bft) SO 128 0 min 0,000 mm 0,0 UV-I 0 W/m -5,4 C -4,2 C 8,0 km/h (2 Bft) 96,23 %
20.01.2019 06:12 -4,2 C 3,9 C -3,9 C 91 % 1014,8 hPa 0,0 l/m 6,1 km/h (2 Bft) O 101 0 min 0,000 mm 0,0 UV-I 0 W/m -5,4 C -4,2 C 11,3 km/h (2 Bft) 100,00 %
20.01.2019 06:14 -4,2 C 3,9 C -3,9 C 91 % 1014,9 hPa 0,0 l/m 7,3 km/h (2 Bft) O-SO 115 0 min 0,000 mm 0,0 UV-I 0 W/m -5,4 C -5,3 C 12,9 km/h (3 Bft) 100,00 %
20.01.2019 06:16 -4,2 C 3,9 C -3,9 C 91 % 1014,9 hPa 0,0 l/m 9,2 km/h (2 Bft) O-NO 65 0 min 0,000 mm 0,0 UV-I 0 W/m -5,4 C -7,3 C 16,1 km/h (3 Bft) 100,00 %
20.01.2019 06:18 -4,2 C 3,9 C -3,9 C 91 % 1014,9 hPa 0,0 l/m 8,0 km/h (2 Bft) O-SO 114 0 min 0,000 mm 0,0 UV-I 0 W/m -5,4 C -6,1 C 12,9 km/h (3 Bft) 97,73 %
20.01.2019 06:20 -4,2 C 3,9 C -3,9 C 91 % 1014,9 hPa 0,0 l/m 7,2 km/h (2 Bft) O-SO 114 0 min 0,000 mm 0,0 UV-I 0 W/m -5,4 C -5,1 C 11,3 km/h (2 Bft) 100,00 %
20.01.2019 06:22 -4,2 C 3,9 C -3,9 C 91 % 1014,9 hPa 0,0 l/m 7,0 km/h (2 Bft) SO 140 0 min 0,000 mm 0,0 UV-I 0 W/m -5,4 C -4,9 C 14,5 km/h (3 Bft) 97,87 %
20.01.2019 06:24 -4,2 C 3,9 C -3,9 C 91 % 1014,9 hPa 0,0 l/m 8,0 km/h (2 Bft) O-SO 116 0 min 0,000 mm 0,0 UV-I 0 W/m -5,4 C -6,1 C 12,9 km/h (3 Bft) 100,00 %
20.01.2019 06:26 -4,2 C 3,9 C -3,9 C 91 % 1014,9 hPa 0,0 l/m 6,7 km/h (2 Bft) O-SO 123 0 min 0,000 mm 0,0 UV-I 0 W/m -5,4 C -4,5 C 11,3 km/h (2 Bft) 100,00 %
20.01.2019 06:28 -4,2 C 3,9 C -3,9 C 91 % 1014,9 hPa 0,0 l/m 5,4 km/h (1 Bft) O 98 0 min 0,000 mm 0,0 UV-I 0 W/m -5,4 C -4,2 C 11,3 km/h (2 Bft) 97,44 %
20.01.2019 06:30 -4,2 C 3,9 C -3,9 C 91 % 1014,9 hPa 0,0 l/m 5,1 km/h (1 Bft) O 80 0 min 0,000 mm 0,0 UV-I 0 W/m -5,4 C -4,2 C 11,3 km/h (2 Bft) 100,00 %
20.01.2019 06:32 -4,2 C 3,9 C -3,9 C 91 % 1014,9 hPa 0,0 l/m 7,8 km/h (2 Bft) O 84 0 min 0,000 mm 0,0 UV-I 0 W/m -5,4 C -5,8 C 11,3 km/h (2 Bft) 100,00 %
20.01.2019 06:35 -4,2 C 3,9 C -3,9 C 91 % 1015,0 hPa 0,0 l/m 7,1 km/h (2 Bft) O-SO 113 0 min 0,000 mm 0,0 UV-I 0 W/m -5,4 C -5,0 C 12,9 km/h (3 Bft) 97,56 %
20.01.2019 06:36 -4,2 C 3,9 C -3,9 C 91 % 1015,0 hPa 0,0 l/m 7,4 km/h (2 Bft) O 82 0 min 0,000 mm 0,0 UV-I 0 W/m -5,4 C -5,4 C 11,3 km/h (2 Bft) 83,33 %
20.01.2019 06:38 -4,2 C 3,9 C -3,9 C 91 % 1015,0 hPa 0,0 l/m 5,8 km/h (2 Bft) SO 137 0 min 0,000 mm 0,0 UV-I 0 W/m -5,4 C -4,2 C 11,3 km/h (2 Bft) 97,87 %
20.01.2019 06:40 -4,2 C 3,9 C -3,9 C 91 % 1015,0 hPa 0,0 l/m 3,2 km/h (1 Bft) SO 136 0 min 0,000 mm 0,0 UV-I 0 W/m -5,4 C -4,2 C 4,8 km/h (1 Bft) 98,00 %
20.01.2019 06:42 -4,1 C 3,9 C -3,9 C 91 % 1015,0 hPa 0,0 l/m 4,8 km/h (1 Bft) O-SO 103 0 min 0,000 mm 0,0 UV-I 0 W/m -5,3 C -4,1 C 9,7 km/h (2 Bft) 98,11 %
20.01.2019 06:44 -4,1 C 3,9 C -3,9 C 91 % 1015,0 hPa 0,0 l/m 3,0 km/h (1 Bft) O 90 0 min 0,000 mm 0,0 UV-I 0 W/m -5,3 C -4,1 C 9,7 km/h (2 Bft) 93,62 %
20.01.2019 06:46 -4,1 C 3,9 C -3,9 C 91 % 1015,0 hPa 0,0 l/m 7,0 km/h (2 Bft) O 81 0 min 0,000 mm 0,0 UV-I 0 W/m -5,3 C -4,8 C 12,9 km/h (3 Bft) 97,37 %
20.01.2019 06:48 -4,1 C 3,9 C -3,9 C 91 % 1015,0 hPa 0,0 l/m 7,4 km/h (2 Bft) SO 128 0 min 0,000 mm 0,0 UV-I 0 W/m -5,3 C -5,3 C 11,3 km/h (2 Bft) 96,43 %
20.01.2019 06:50 -4,1 C 3,9 C -3,9 C 91 % 1015,0 hPa 0,0 l/m 8,0 km/h (2 Bft) SO 126 0 min 0,000 mm 0,0 UV-I 0 W/m -5,3 C -6,0 C 12,9 km/h (3 Bft) 100,00 %
20.01.2019 06:52 -4,1 C 3,9 C -3,9 C 91 % 1015,0 hPa 0,0 l/m 5,4 km/h (1 Bft) SO 126 0 min 0,000 mm 0,0 UV-I 0 W/m -5,3 C -4,1 C 9,7 km/h (2 Bft) 98,11 %
20.01.2019 06:54 -4,1 C 3,9 C -3,9 C 91 % 1015,0 hPa 0,0 l/m 3,7 km/h (1 Bft) SO 127 0 min 0,000 mm 0,0 UV-I 0 W/m -5,3 C -4,1 C 6,4 km/h (2 Bft) 100,00 %
20.01.2019 06:56 -4,1 C 3,9 C -3,9 C 91 % 1015,0 hPa 0,0 l/m 6,1 km/h (2 Bft) SO 138 0 min 0,000 mm 0,0 UV-I 0 W/m -5,3 C -4,1 C 9,7 km/h (2 Bft) 97,56 %
20.01.2019 06:58 -4,1 C 3,9 C -3,9 C 91 % 1015,0 hPa 0,0 l/m 6,1 km/h (2 Bft) SO 128 0 min 0,000 mm 0,0 UV-I 0 W/m -5,3 C -4,1 C 8,0 km/h (2 Bft) 96,00 %
20.01.2019 07:00 -4,1 C 3,9 C -3,9 C 91 % 1015,0 hPa 0,0 l/m 3,9 km/h (1 Bft) SO 126 0 min 0,000 mm 0,0 UV-I 0 W/m -5,3 C -4,1 C 8,0 km/h (2 Bft) 95,45 %
20.01.2019 07:02 -4,0 C 3,9 C -3,9 C 91 % 1015,0 hPa 0,0 l/m 4,7 km/h (1 Bft) O-SO 121 0 min 0,000 mm 0,0 UV-I 0 W/m -5,2 C -4,0 C 6,4 km/h (2 Bft) 97,37 %
20.01.2019 07:04 -4,0 C 3,9 C -3,9 C 91 % 1015,0 hPa 0,0 l/m 5,3 km/h (1 Bft) O 94 0 min 0,000 mm 0,0 UV-I 0 W/m -5,2 C -4,0 C 9,7 km/h (2 Bft) 96,00 %
20.01.2019 07:06 -4,1 C 3,9 C -3,9 C 91 % 1015,0 hPa 0,0 l/m 3,8 km/h (1 Bft) O-SO 105 0 min 0,000 mm 0,0 UV-I 0 W/m -5,3 C -4,1 C 6,4 km/h (2 Bft) 98,00 %
20.01.2019 07:08 -4,1 C 3,9 C -3,9 C 91 % 1015,0 hPa 0,0 l/m 4,1 km/h (1 Bft) SO 145 0 min 0,000 mm 0,0 UV-I 0 W/m -5,3 C -4,1 C 8,0 km/h (2 Bft) 95,74 %
20.01.2019 07:10 -4,1 C 3,9 C -3,9 C 91 % 1015,0 hPa 0,0 l/m 6,0 km/h (2 Bft) SO 145 0 min 0,000 mm 0,0 UV-I 0 W/m -5,3 C -4,1 C 9,7 km/h (2 Bft) 95,74 %
20.01.2019 07:12 -4,1 C 3,9 C -3,9 C 91 % 1015,0 hPa 0,0 l/m 5,4 km/h (1 Bft) O-SO 121 0 min 0,000 mm 0,0 UV-I 0 W/m -5,3 C -4,1 C 8,0 km/h (2 Bft) 97,62 %
20.01.2019 07:14 -4,1 C 3,9 C -3,9 C 91 % 1015,0 hPa 0,0 l/m 2,7 km/h (1 Bft) SO 145 0 min 0,000 mm 0,0 UV-I 0 W/m -5,3 C -4,1 C 4,8 km/h (1 Bft) 96,23 %
20.01.2019 07:16 -4,1 C 3,9 C -3,9 C 91 % 1015,0 hPa 0,0 l/m 3,6 km/h (1 Bft) S-SO 157 0 min 0,000 mm 0,0 UV-I 0 W/m -5,3 C -4,1 C 6,4 km/h (2 Bft) 97,87 %
20.01.2019 07:18 -4,1 C 3,9 C -3,9 C 91 % 1015,0 hPa 0,0 l/m 7,4 km/h (2 Bft) SO 130 0 min 0,000 mm 0,0 UV-I 0 W/m -5,3 C -5,3 C 12,9 km/h (3 Bft) 98,11 %
20.01.2019 07:20 -4,1 C 3,9 C -3,9 C 91 % 1015,0 hPa 0,0 l/m 8,1 km/h (2 Bft) O-SO 113 0 min 0,000 mm 0,0 UV-I 0 W/m -5,3 C -6,1 C 11,3 km/h (2 Bft) 97,37 %
20.01.2019 07:22 -4,1 C 3,9 C -3,9 C 91 % 1015,0 hPa 0,0 l/m 7,3 km/h (2 Bft) SO 128 0 min 0,000 mm 0,0 UV-I 0 W/m -5,3 C -5,2 C 11,3 km/h (2 Bft) 96,00 %
20.01.2019 07:24 -4,1 C 3,9 C -3,9 C 91 % 1015,0 hPa 0,0 l/m 8,6 km/h (2 Bft) SO 129 0 min 0,000 mm 0,0 UV-I 0 W/m -5,3 C -6,6 C 12,9 km/h (3 Bft) 95,45 %
20.01.2019 07:26 -4,1 C 3,9 C -3,9 C 91 % 1015,0 hPa 0,0 l/m 8,4 km/h (2 Bft) O-SO 117 0 min 0,000 mm 0,0 UV-I 0 W/m -5,3 C -6,4 C 12,9 km/h (3 Bft) 95,45 %
20.01.2019 07:28 -4,1 C 3,9 C -3,9 C 91 % 1015,0 hPa 0,0 l/m 8,8 km/h (2 Bft) SO 128 0 min 0,000 mm 0,0 UV-I 0 W/m -5,3 C -6,8 C 14,5 km/h (3 Bft) 97,14 %
20.01.2019 07:30 -4,1 C 3,9 C -3,9 C 91 % 1015,0 hPa 0,0 l/m 5,0 km/h (1 Bft) SO 134 0 min 0,000 mm 0,0 UV-I 0 W/m -5,3 C -4,1 C 6,4 km/h (2 Bft) 93,85 %
20.01.2019 07:32 -4,1 C 3,9 C -3,9 C 91 % 1015,0 hPa 0,0 l/m 5,2 km/h (1 Bft) O-SO 116 0 min 0,000 mm 0,0 UV-I 0 W/m -5,3 C -4,1 C 8,0 km/h (2 Bft) 97,87 %
20.01.2019 07:34 -4,1 C 3,9 C -3,9 C 91 % 1015,0 hPa 0,0 l/m 3,1 km/h (1 Bft) SO 133 0 min 0,000 mm 0,0 UV-I 0 W/m -5,3 C -4,1 C 4,8 km/h (1 Bft) 94,74 %
20.01.2019 07:36 -4,1 C 3,9 C -3,9 C 91 % 1015,0 hPa 0,0 l/m 4,3 km/h (1 Bft) SO 138 0 min 0,000 mm 0,0 UV-I 0 W/m -5,3 C -4,1 C 6,4 km/h (2 Bft) 98,11 %
20.01.2019 07:38 -4,0 C 3,9 C -3,9 C 91 % 1015,0 hPa 0,0 l/m 3,9 km/h (1 Bft) O 82 0 min 0,000 mm 0,0 UV-I 0 W/m -5,2 C -4,0 C 6,4 km/h (2 Bft) 95,12 %
20.01.2019 07:40 -4,1 C 3,9 C -3,9 C 91 % 1015,1 hPa 0,0 l/m 7,4 km/h (2 Bft) O-SO 106 0 min 0,000 mm 0,0 UV-I 0 W/m -5,3 C -5,3 C 12,9 km/h (3 Bft) 98,21 %
20.01.2019 07:42 -4,1 C 3,9 C -3,9 C 91 % 1015,1 hPa 0,0 l/m 6,3 km/h (2 Bft) SO 130 0 min 0,000 mm 0,0 UV-I 0 W/m -5,3 C -4,1 C 11,3 km/h (2 Bft) 93,62 %
20.01.2019 07:44 -4,1 C 3,9 C -3,9 C 91 % 1015,1 hPa 0,0 l/m 7,0 km/h (2 Bft) S-SO 154 0 min 0,000 mm 0,0 UV-I 0 W/m -5,3 C -4,8 C 11,3 km/h (2 Bft) 98,00 %
20.01.2019 07:46 -4,2 C 3,9 C -3,9 C 90 % 1015,1 hPa 0,0 l/m 2,4 km/h (1 Bft) S-SO 154 0 min 0,000 mm 0,0 UV-I 5 W/m -5,6 C -4,2 C 4,8 km/h (1 Bft) 95,12 %
20.01.2019 07:48 -4,2 C 3,9 C -3,9 C 91 % 1015,1 hPa 0,0 l/m 6,0 km/h (2 Bft) O-NO 71 0 min 0,000 mm 0,0 UV-I 5 W/m -5,4 C -4,2 C 8,0 km/h (2 Bft) 96,00 %
20.01.2019 07:50 -4,2 C 3,9 C -3,9 C 91 % 1015,2 hPa 0,0 l/m 6,4 km/h (2 Bft) O 87 0 min 0,000 mm 0,0 UV-I 5 W/m -5,4 C -4,1 C 11,3 km/h (2 Bft) 94,00 %
20.01.2019 07:52 -4,3 C 3,9 C -3,9 C 91 % 1015,3 hPa 0,0 l/m 8,8 km/h (2 Bft) O 90 0 min 0,000 mm 0,0 UV-I 5 W/m -5,5 C -7,0 C 12,9 km/h (3 Bft) 97,44 %
20.01.2019 07:54 -4,3 C 3,9 C -3,9 C 91 % 1015,2 hPa 0,0 l/m 6,3 km/h (2 Bft) O-NO 72 0 min 0,000 mm 0,0 UV-I 7 W/m -5,5 C -4,3 C 8,0 km/h (2 Bft) 94,00 %
20.01.2019 07:56 -4,3 C 3,9 C -3,9 C 91 % 1015,3 hPa 0,0 l/m 4,7 km/h (1 Bft) NO 45 0 min 0,000 mm 0,0 UV-I 7 W/m -5,5 C -4,3 C 6,4 km/h (2 Bft) 95,12 %
20.01.2019 07:58 -4,3 C 3,9 C -3,9 C 91 % 1015,3 hPa 0,0 l/m 4,2 km/h (1 Bft) O-NO 65 0 min 0,000 mm 0,0 UV-I 7 W/m -5,5 C -4,3 C 6,4 km/h (2 Bft) 95,74 %
20.01.2019 08:00 -4,3 C 3,9 C -3,9 C 91 % 1015,3 hPa 0,0 l/m 4,5 km/h (1 Bft) O 92 0 min 0,000 mm 0,0 UV-I 7 W/m -5,5 C -4,3 C 6,4 km/h (2 Bft) 96,00 %
20.01.2019 08:02 -4,3 C 3,9 C -3,9 C 91 % 1015,3 hPa 0,0 l/m 4,7 km/h (1 Bft) NO 51 0 min 0,000 mm 0,0 UV-I 9 W/m -5,5 C -4,3 C 9,7 km/h (2 Bft) 94,00 %
20.01.2019 08:04 -4,3 C 3,9 C -3,9 C 91 % 1015,3 hPa 0,0 l/m 3,0 km/h (1 Bft) NO 51 0 min 0,000 mm 0,0 UV-I 9 W/m -5,5 C -4,3 C 4,8 km/h (1 Bft) 93,62 %
20.01.2019 08:06 -4,2 C 3,9 C -3,9 C 91 % 1015,4 hPa 0,0 l/m 4,4 km/h (1 Bft) O-NO 58 0 min 0,000 mm 0,0 UV-I 9 W/m -5,4 C -4,2 C 6,4 km/h (2 Bft) 97,87 %
20.01.2019 08:08 -4,2 C 3,9 C -3,9 C 91 % 1015,4 hPa 0,0 l/m 3,7 km/h (1 Bft) NO 56 0 min 0,000 mm 0,0 UV-I 11 W/m -5,4 C -4,2 C 4,8 km/h (1 Bft) 98,00 %
20.01.2019 08:10 -4,2 C 3,9 C -3,9 C 91 % 1015,4 hPa 0,0 l/m 4,0 km/h (1 Bft) SO 131 0 min 0,000 mm 0,0 UV-I 11 W/m -5,4 C -4,2 C 6,4 km/h (2 Bft) 94,29 %
20.01.2019 08:12 -4,2 C 3,9 C -3,9 C 91 % 1015,4 hPa 0,0 l/m 6,8 km/h (2 Bft) O 97 0 min 0,000 mm 0,0 UV-I 12 W/m -5,4 C -4,7 C 9,7 km/h (2 Bft) 96,00 %
20.01.2019 08:14 -4,2 C 3,9 C -3,9 C 91 % 1015,5 hPa 0,0 l/m 6,7 km/h (2 Bft) O-SO 112 0 min 0,000 mm 0,0 UV-I 13 W/m -5,4 C -4,5 C 11,3 km/h (2 Bft) 95,74 %
20.01.2019 08:16 -4,2 C 3,9 C -3,9 C 91 % 1015,5 hPa 0,0 l/m 4,1 km/h (1 Bft) SO 126 0 min 0,000 mm 0,0 UV-I 15 W/m -5,4 C -4,2 C 6,4 km/h (2 Bft) 95,12 %
20.01.2019 08:18 -4,2 C 3,9 C -3,9 C 91 % 1015,5 hPa 0,0 l/m 4,4 km/h (1 Bft) S-SO 157 0 min 0,000 mm 0,0 UV-I 16 W/m -5,4 C -4,2 C 8,0 km/h (2 Bft) 98,21 %
20.01.2019 08:20 -4,2 C 3,9 C -3,9 C 91 % 1015,5 hPa 0,0 l/m 4,1 km/h (1 Bft) SO 137 0 min 0,000 mm 0,0 UV-I 17 W/m -5,4 C -4,2 C 8,0 km/h (2 Bft) 97,56 %
20.01.2019 08:22 -4,2 C 3,9 C -3,9 C 91 % 1015,6 hPa 0,0 l/m 5,7 km/h (1 Bft) O-SO 114 0 min 0,000 mm 0,0 UV-I 18 W/m -5,4 C -4,2 C 9,7 km/h (2 Bft) 98,00 %
20.01.2019 08:24 -4,2 C 3,9 C -3,9 C 91 % 1015,6 hPa 0,0 l/m 3,8 km/h (1 Bft) SO 128 0 min 0,000 mm 0,0 UV-I 18 W/m -5,4 C -4,2 C 11,3 km/h (2 Bft) 96,23 %
20.01.2019 08:26 -4,2 C 3,9 C -3,9 C 91 % 1015,6 hPa 0,0 l/m 6,9 km/h (2 Bft) O-SO 114 0 min 0,000 mm 0,0 UV-I 18 W/m -5,4 C -4,8 C 11,3 km/h (2 Bft) 100,00 %
20.01.2019 08:28 -4,2 C 3,9 C -3,9 C 91 % 1015,7 hPa 0,0 l/m 6,1 km/h (2 Bft) O-SO 118 0 min 0,000 mm 0,0 UV-I 19 W/m -5,4 C -4,2 C 11,3 km/h (2 Bft) 100,00 %
20.01.2019 08:30 -4,2 C 3,9 C -3,3 C 91 % 1015,6 hPa 0,0 l/m 5,8 km/h (2 Bft) SO 126 0 min 0,000 mm 0,0 UV-I 19 W/m -5,4 C -4,2 C 11,3 km/h (2 Bft) 98,08 %
20.01.2019 08:32 -4,1 C 3,9 C -3,3 C 91 % 1015,7 hPa 0,0 l/m 8,1 km/h (2 Bft) O-SO 121 0 min 0,000 mm 0,0 UV-I 20 W/m -5,3 C -6,1 C 12,9 km/h (3 Bft) 100,00 %
20.01.2019 08:35 -4,2 C 3,9 C -3,3 C 91 % 1015,7 hPa 0,0 l/m 6,3 km/h (2 Bft) O 82 0 min 0,000 mm 0,0 UV-I 21 W/m -5,4 C -4,2 C 8,0 km/h (2 Bft) 100,00 %
20.01.2019 08:36 -4,2 C 3,9 C -3,3 C 91 % 1015,7 hPa 0,0 l/m 7,8 km/h (2 Bft) O 80 0 min 0,000 mm 0,0 UV-I 22 W/m -5,4 C -5,8 C 11,3 km/h (2 Bft) 100,00 %
20.01.2019 08:38 -4,2 C 3,9 C -3,9 C 91 % 1015,7 hPa 0,0 l/m 5,4 km/h (1 Bft) O-NO 76 0 min 0,000 mm 0,0 UV-I 23 W/m -5,4 C -4,2 C 8,0 km/h (2 Bft) 98,00 %
20.01.2019 08:40 -4,2 C 3,9 C -3,9 C 91 % 1015,7 hPa 0,0 l/m 2,8 km/h (1 Bft) SO 134 0 min 0,000 mm 0,0 UV-I 25 W/m -5,4 C -4,2 C 6,4 km/h (2 Bft) 100,00 %
20.01.2019 08:42 -4,2 C 3,9 C -3,3 C 91 % 1015,7 hPa 0,0 l/m 2,4 km/h (1 Bft) SO 146 0 min 0,000 mm 0,0 UV-I 25 W/m -5,4 C -4,2 C 4,8 km/h (1 Bft) 100,00 %
20.01.2019 08:44 -4,2 C 3,9 C -3,3 C 91 % 1015,8 hPa 0,0 l/m 1,8 km/h (1 Bft) SO 142 0 min 0,000 mm 0,0 UV-I 26 W/m -5,4 C -4,2 C 6,4 km/h (2 Bft) 97,14 %
20.01.2019 08:46 -4,2 C 3,9 C -3,3 C 91 % 1015,8 hPa 0,0 l/m 4,4 km/h (1 Bft) S-SO 148 0 min 0,000 mm 0,0 UV-I 26 W/m -5,4 C -4,2 C 6,4 km/h (2 Bft) 100,00 %
20.01.2019 08:48 -4,2 C 3,9 C -3,3 C 91 % 1015,8 hPa 0,0 l/m 5,7 km/h (1 Bft) S-SO 148 0 min 0,000 mm 0,0 UV-I 27 W/m -5,4 C -4,2 C 8,0 km/h (2 Bft) 100,00 %
20.01.2019 08:50 -4,2 C 3,9 C -3,3 C 91 % 1015,8 hPa 0,0 l/m 5,8 km/h (2 Bft) S-SO 168 0 min 0,000 mm 0,0 UV-I 26 W/m -5,4 C -4,2 C 8,0 km/h (2 Bft) 100,00 %
20.01.2019 08:52 -4,2 C 3,9 C -3,3 C 91 % 1015,8 hPa 0,0 l/m 3,2 km/h (1 Bft) S-SO 165 0 min 0,000 mm 0,0 UV-I 26 W/m -5,4 C -4,2 C 8,0 km/h (2 Bft) 100,00 %
20.01.2019 08:54 -4,2 C 3,9 C -3,3 C 91 % 1015,8 hPa 0,0 l/m 5,5 km/h (1 Bft) S-SO 148 0 min 0,000 mm 0,0 UV-I 29 W/m -5,4 C -4,2 C 8,0 km/h (2 Bft) 97,87 %
20.01.2019 08:56 -4,1 C 3,9 C -3,3 C 91 % 1015,8 hPa 0,0 l/m 5,9 km/h (2 Bft) O-SO 107 0 min 0,000 mm 0,0 UV-I 32 W/m -5,3 C -4,1 C 11,3 km/h (2 Bft) 97,87 %
20.01.2019 08:58 -4,1 C 3,9 C -3,3 C 91 % 1015,8 hPa 0,0 l/m 5,7 km/h (1 Bft) O-SO 121 0 min 0,000 mm 0,0 UV-I 32 W/m -5,3 C -4,1 C 8,0 km/h (2 Bft) 98,00 %
20.01.2019 09:00 -4,1 C 3,9 C -3,3 C 91 % 1015,8 hPa 0,0 l/m 5,6 km/h (1 Bft) SO 128 0 min 0,000 mm 0,0 UV-I 33 W/m -5,3 C -4,1 C 11,3 km/h (2 Bft) 95,74 %
20.01.2019 09:02 -4,1 C 3,9 C -3,3 C 91 % 1015,8 hPa 0,0 l/m 4,0 km/h (1 Bft) O 80 0 min 0,000 mm 0,0 UV-I 34 W/m -5,3 C -4,1 C 8,0 km/h (2 Bft) 95,74 %
20.01.2019 09:04 -4,2 C 3,9 C -3,3 C 91 % 1015,8 hPa 0,0 l/m 3,4 km/h (1 Bft) O-SO 105 0 min 0,000 mm 0,0 UV-I 35 W/m -5,4 C -4,2 C 4,8 km/h (1 Bft) 93,62 %
20.01.2019 09:06 -4,2 C 3,9 C -3,3 C 91 % 1015,9 hPa 0,0 l/m 4,0 km/h (1 Bft) O-SO 112 0 min 0,000 mm 0,0 UV-I 35 W/m -5,4 C -4,2 C 6,4 km/h (2 Bft) 91,49 %
20.01.2019 09:08 -4,1 C 3,9 C -3,3 C 91 % 1015,9 hPa 0,0 l/m 2,1 km/h (1 Bft) SO 139 0 min 0,000 mm 0,0 UV-I 39 W/m -5,3 C -4,1 C 4,8 km/h (1 Bft) 93,62 %
20.01.2019 09:10 -4,1 C 3,9 C -2,8 C 91 % 1015,9 hPa 0,0 l/m 2,9 km/h (1 Bft) O-SO 109 0 min 0,000 mm 0,0 UV-I 40 W/m -5,3 C -4,1 C 6,4 km/h (2 Bft) 93,75 %
20.01.2019 09:12 -4,0 C 3,9 C -2,8 C 91 % 1015,9 hPa 0,0 l/m 5,1 km/h (1 Bft) O 86 0 min 0,000 mm 0,0 UV-I 40 W/m -5,2 C -4,0 C 8,0 km/h (2 Bft) 94,00 %
20.01.2019 09:14 -4,1 C 3,9 C -3,3 C 91 % 1015,9 hPa 0,0 l/m 5,3 km/h (1 Bft) O-SO 119 0 min 0,000 mm 0,0 UV-I 38 W/m -5,3 C -4,1 C 9,7 km/h (2 Bft) 94,29 %
20.01.2019 09:16 -4,1 C 3,9 C -2,8 C 91 % 1016,0 hPa 0,0 l/m 6,4 km/h (2 Bft) O-NO 64 0 min 0,000 mm 0,0 UV-I 33 W/m -5,3 C -4,0 C 9,7 km/h (2 Bft) 95,74 %
20.01.2019 09:18 -4,1 C 3,9 C -3,3 C 91 % 1016,0 hPa 0,0 l/m 5,7 km/h (1 Bft) O 86 0 min 0,000 mm 0,0 UV-I 30 W/m -5,3 C -4,1 C 11,3 km/h (2 Bft) 93,62 %
20.01.2019 09:20 -4,2 C 3,9 C -3,3 C 91 % 1016,0 hPa 0,0 l/m 2,6 km/h (1 Bft) O 86 0 min 0,000 mm 0,0 UV-I 30 W/m -5,4 C -4,2 C 4,8 km/h (1 Bft) 97,87 %
20.01.2019 09:22 -4,2 C 3,9 C -3,3 C 91 % 1016,1 hPa 0,0 l/m 4,8 km/h (1 Bft) O-NO 57 0 min 0,000 mm 0,0 UV-I 31 W/m -5,4 C -4,2 C 9,7 km/h (2 Bft) 95,74 %
20.01.2019 09:24 -4,2 C 3,9 C -3,3 C 91 % 1016,1 hPa 0,0 l/m 7,7 km/h (2 Bft) NO 55 0 min 0,000 mm 0,0 UV-I 34 W/m -5,4 C -5,7 C 11,3 km/h (2 Bft) 95,74 %
20.01.2019 09:26 -4,2 C 3,9 C -3,3 C 91 % 1016,1 hPa 0,0 l/m 6,0 km/h (2 Bft) O-NO 76 0 min 0,000 mm 0,0 UV-I 41 W/m -5,4 C -4,2 C 8,0 km/h (2 Bft) 97,87 %
20.01.2019 09:28 -4,2 C 3,9 C -3,3 C 91 % 1016,2 hPa 0,0 l/m 5,0 km/h (1 Bft) O 95 0 min 0,000 mm 0,0 UV-I 44 W/m -5,4 C -4,2 C 6,4 km/h (2 Bft) 93,62 %
20.01.2019 09:30 -4,3 C 3,9 C -3,3 C 91 % 1016,2 hPa 0,0 l/m 6,0 km/h (2 Bft) O 98 0 min 0,000 mm 0,0 UV-I 47 W/m -5,5 C -4,3 C 12,9 km/h (3 Bft) 93,62 %
20.01.2019 09:32 -4,3 C 3,9 C -3,3 C 91 % 1016,2 hPa 0,0 l/m 3,5 km/h (1 Bft) O-NO 65 0 min 0,000 mm 0,0 UV-I 47 W/m -5,5 C -4,3 C 6,4 km/h (2 Bft) 95,74 %
20.01.2019 09:34 -4,3 C 3,9 C -2,8 C 91 % 1016,2 hPa 0,0 l/m 4,6 km/h (1 Bft) O 97 0 min 0,000 mm 0,0 UV-I 48 W/m -5,5 C -4,3 C 6,4 km/h (2 Bft) 95,74 %
20.01.2019 09:36 -4,2 C 3,9 C -2,8 C 91 % 1016,3 hPa 0,0 l/m 5,8 km/h (2 Bft) O-NO 77 0 min 0,000 mm 0,0 UV-I 47 W/m -5,4 C -4,2 C 11,3 km/h (2 Bft) 97,87 %
20.01.2019 09:38 -4,2 C 3,9 C -3,3 C 91 % 1016,3 hPa 0,0 l/m 6,2 km/h (2 Bft) O-NO 57 0 min 0,000 mm 0,0 UV-I 38 W/m -5,4 C -4,2 C 9,7 km/h (2 Bft) 100,00 %
20.01.2019 09:40 -4,2 C 3,9 C -2,8 C 91 % 1016,3 hPa 0,0 l/m 1,8 km/h (1 Bft) O-NO 57 0 min 0,000 mm 0,0 UV-I 43 W/m -5,4 C -4,2 C 3,2 km/h (1 Bft) 100,00 %
20.01.2019 09:42 -4,2 C 3,9 C -2,8 C 91 % 1016,3 hPa 0,0 l/m 2,5 km/h (1 Bft) O 93 0 min 0,000 mm 0,0 UV-I 46 W/m -5,4 C -4,2 C 6,4 km/h (2 Bft) 100,00 %
20.01.2019 09:44 -4,1 C 3,9 C -2,8 C 91 % 1016,4 hPa 0,0 l/m 5,8 km/h (2 Bft) O-SO 106 0 min 0,000 mm 0,0 UV-I 49 W/m -5,3 C -4,1 C 9,7 km/h (2 Bft) 97,87 %
20.01.2019 09:46 -4,1 C 3,9 C -2,8 C 91 % 1016,4 hPa 0,0 l/m 5,1 km/h (1 Bft) O 84 0 min 0,000 mm 0,0 UV-I 53 W/m -5,3 C -4,1 C 8,0 km/h (2 Bft) 95,74 %
20.01.2019 09:48 -4,1 C 3,9 C -2,8 C 91 % 1016,4 hPa 0,0 l/m 5,8 km/h (2 Bft) O 92 0 min 0,000 mm 0,0 UV-I 57 W/m -5,3 C -4,1 C 11,3 km/h (2 Bft) 97,92 %
20.01.2019 09:50 -4,2 C 3,9 C -2,8 C 90 % 1016,4 hPa 0,0 l/m 5,1 km/h (1 Bft) O-SO 117 0 min 0,000 mm 0,0 UV-I 63 W/m -5,6 C -4,2 C 11,3 km/h (2 Bft) 97,87 %
20.01.2019 09:52 -4,1 C 3,9 C -2,8 C 91 % 1016,4 hPa 0,0 l/m 5,8 km/h (2 Bft) O 94 0 min 0,000 mm 0,0 UV-I 62 W/m -5,3 C -4,1 C 6,4 km/h (2 Bft) 100,00 %
20.01.2019 09:54 -4,1 C 3,9 C -2,8 C 91 % 1016,4 hPa 0,0 l/m 4,2 km/h (1 Bft) O-NO 60 0 min 0,000 mm 0,0 UV-I 62 W/m -5,3 C -4,1 C 6,4 km/h (2 Bft) 100,00 %
20.01.2019 09:56 -4,1 C 3,9 C -2,8 C 90 % 1016,4 hPa 0,0 l/m 3,0 km/h (1 Bft) O-NO 69 0 min 0,000 mm 0,0 UV-I 58 W/m -5,5 C -4,1 C 6,4 km/h (2 Bft) 100,00 %
20.01.2019 09:58 -4,1 C 3,9 C -2,8 C 90 % 1016,4 hPa 0,0 l/m 3,0 km/h (1 Bft) O-NO 70 0 min 0,000 mm 0,0 UV-I 57 W/m -5,5 C -4,1 C 4,8 km/h (1 Bft) 100,00 %
20.01.2019 10:00 -4,1 C 3,9 C -2,8 C 90 % 1016,4 hPa 0,0 l/m 3,8 km/h (1 Bft) O 100 0 min 0,025 mm 0,0 UV-I 59 W/m -5,5 C -4,1 C 9,7 km/h (2 Bft) 97,87 %
20.01.2019 10:02 -4,1 C 3,9 C -2,8 C 90 % 1016,5 hPa 0,0 l/m 4,9 km/h (1 Bft) O 94 0 min 0,000 mm 0,0 UV-I 63 W/m -5,5 C -4,1 C 9,7 km/h (2 Bft) 96,00 %
20.01.2019 10:04 -4,1 C 3,9 C -2,8 C 90 % 1016,5 hPa 0,0 l/m 3,0 km/h (1 Bft) O 98 0 min 0,000 mm 0,0 UV-I 63 W/m -5,5 C -4,1 C 4,8 km/h (1 Bft) 100,00 %
20.01.2019 10:06 -4,1 C 3,9 C -2,8 C 90 % 1016,5 hPa 0,0 l/m 2,4 km/h (1 Bft) O 97 0 min 0,000 mm 0,0 UV-I 59 W/m -5,5 C -4,1 C 6,4 km/h (2 Bft) 100,00 %
20.01.2019 10:08 -4,1 C 3,9 C -2,8 C 91 % 1016,5 hPa 0,0 l/m 6,1 km/h (2 Bft) O-NO 60 0 min 0,000 mm 0,0 UV-I 61 W/m -5,3 C -4,1 C 11,3 km/h (2 Bft) 97,56 %
20.01.2019 10:10 -4,0 C 3,9 C -2,8 C 91 % 1016,6 hPa 0,0 l/m 5,6 km/h (1 Bft) O 94 0 min 0,000 mm 0,0 UV-I 63 W/m -5,2 C -4,0 C 8,0 km/h (2 Bft) 95,74 %
20.01.2019 10:12 -4,0 C 3,9 C -2,8 C 90 % 1016,5 hPa 0,0 l/m 4,6 km/h (1 Bft) O-NO 78 0 min 0,000 mm 0,0 UV-I 62 W/m -5,4 C -4,0 C 6,4 km/h (2 Bft) 98,00 %
20.01.2019 10:14 -4,1 C 3,9 C -2,8 C 90 % 1016,6 hPa 0,0 l/m 2,9 km/h (1 Bft) O-SO 121 0 min 0,000 mm 0,0 UV-I 64 W/m -5,5 C -4,1 C 4,8 km/h (1 Bft) 97,87 %
20.01.2019 10:16 -4,0 C 3,9 C -2,2 C 90 % 1016,6 hPa 0,0 l/m 6,2 km/h (2 Bft) O-SO 117 0 min 0,000 mm 0,0 UV-I 66 W/m -5,4 C -4,0 C 8,0 km/h (2 Bft) 97,87 %
20.01.2019 10:18 -4,1 C 3,9 C -2,2 C 90 % 1016,6 hPa 0,0 l/m 2,0 km/h (1 Bft) O-SO 118 0 min 0,000 mm 0,0 UV-I 69 W/m -5,5 C -4,1 C 6,4 km/h (2 Bft) 97,87 %
20.01.2019 10:20 -4,0 C 3,9 C -2,2 C 90 % 1016,7 hPa 0,0 l/m 2,3 km/h (1 Bft) O-SO 118 0 min 0,000 mm 0,0 UV-I 69 W/m -5,4 C -4,0 C 4,8 km/h (1 Bft) 96,00 %
20.01.2019 10:22 -4,0 C 3,9 C -2,2 C 90 % 1016,7 hPa 0,0 l/m 4,8 km/h (1 Bft) O 96 0 min 0,000 mm 0,0 UV-I 69 W/m -5,4 C -4,0 C 9,7 km/h (2 Bft) 97,87 %
20.01.2019 10:24 -3,9 C 3,9 C -2,2 C 90 % 1016,6 hPa 0,0 l/m 4,8 km/h (1 Bft) O 100 0 min 0,000 mm 0,0 UV-I 72 W/m -5,3 C -3,9 C 9,7 km/h (2 Bft) 97,87 %
20.01.2019 10:26 -3,9 C 3,9 C -2,2 C 90 % 1016,7 hPa 0,0 l/m 4,5 km/h (1 Bft) O-SO 103 0 min 0,000 mm 0,0 UV-I 75 W/m -5,3 C -3,9 C 6,4 km/h (2 Bft) 97,87 %
20.01.2019 10:28 -3,9 C 3,9 C -2,2 C 90 % 1016,7 hPa 0,0 l/m 3,8 km/h (1 Bft) O-SO 123 0 min 0,000 mm 0,0 UV-I 73 W/m -5,3 C -3,9 C 6,4 km/h (2 Bft) 97,87 %
20.01.2019 10:30 -3,8 C 3,9 C -2,2 C 90 % 1016,7 hPa 0,0 l/m 3,4 km/h (1 Bft) NO 53 0 min 0,000 mm 0,0 UV-I 70 W/m -5,2 C -3,8 C 6,4 km/h (2 Bft) 97,87 %
20.01.2019 10:32 -3,8 C 3,9 C -2,2 C 90 % 1016,8 hPa 0,0 l/m 4,4 km/h (1 Bft) O 82 0 min 0,000 mm 0,0 UV-I 69 W/m -5,2 C -3,8 C 6,4 km/h (2 Bft) 97,22 %
20.01.2019 10:34 -3,8 C 3,9 C -2,2 C 90 % 1016,8 hPa 0,0 l/m 5,2 km/h (1 Bft) O 98 0 min 0,000 mm 0,0 UV-I 69 W/m -5,2 C -3,8 C 6,4 km/h (2 Bft) 100,00 %
20.01.2019 10:36 -3,8 C 3,9 C -2,2 C 90 % 1016,8 hPa 0,0 l/m 5,0 km/h (1 Bft) NO 52 0 min 0,000 mm 0,0 UV-I 70 W/m -5,2 C -3,8 C 8,0 km/h (2 Bft) 100,00 %
20.01.2019 10:38 -3,8 C 3,9 C -2,2 C 90 % 1016,8 hPa 0,0 l/m 4,6 km/h (1 Bft) O 84 0 min 0,000 mm 0,0 UV-I 70 W/m -5,2 C -3,8 C 6,4 km/h (2 Bft) 95,74 %
20.01.2019 10:40 -3,9 C 3,9 C -2,2 C 89 % 1016,8 hPa 0,0 l/m 6,0 km/h (2 Bft) O-SO 103 0 min 0,000 mm 0,0 UV-I 72 W/m -5,4 C -3,9 C 11,3 km/h (2 Bft) 97,87 %
20.01.2019 10:42 -3,9 C 3,9 C -2,2 C 89 % 1016,9 hPa 0,0 l/m 7,6 km/h (2 Bft) O-SO 103 0 min 0,000 mm 0,0 UV-I 77 W/m -5,4 C -5,3 C 12,9 km/h (3 Bft) 100,00 %
20.01.2019 10:44 -3,9 C 3,9 C -2,2 C 89 % 1016,8 hPa 0,0 l/m 5,8 km/h (2 Bft) O-SO 107 0 min 0,000 mm 0,0 UV-I 77 W/m -5,4 C -3,9 C 11,3 km/h (2 Bft) 98,00 %
20.01.2019 10:46 -3,9 C 3,9 C -2,2 C 90 % 1016,8 hPa 0,0 l/m 6,5 km/h (2 Bft) O 90 0 min 0,000 mm 0,0 UV-I 77 W/m -5,3 C -4,0 C 11,3 km/h (2 Bft) 97,87 %
20.01.2019 10:48 -3,8 C 3,9 C -2,2 C 90 % 1016,8 hPa 0,0 l/m 5,9 km/h (2 Bft) O-SO 105 0 min 0,000 mm 0,0 UV-I 77 W/m -5,2 C -3,8 C 8,0 km/h (2 Bft) 97,14 %
20.01.2019 10:50 -3,8 C 3,9 C -2,2 C 90 % 1016,8 hPa 0,0 l/m 6,2 km/h (2 Bft) O-SO 107 0 min 0,000 mm 0,0 UV-I 80 W/m -5,2 C -3,8 C 8,0 km/h (2 Bft) 100,00 %
20.01.2019 10:52 -3,8 C 3,9 C -2,2 C 89 % 1016,9 hPa 0,0 l/m 6,9 km/h (2 Bft) O-NO 78 0 min 0,000 mm 0,0 UV-I 82 W/m -5,3 C -4,4 C 11,3 km/h (2 Bft) 100,00 %
20.01.2019 10:54 -3,8 C 3,9 C -2,2 C 90 % 1016,8 hPa 0,0 l/m 4,1 km/h (1 Bft) O-NO 60 0 min 0,000 mm 0,0 UV-I 83 W/m -5,2 C -3,8 C 8,0 km/h (2 Bft) 100,00 %
20.01.2019 10:56 -3,7 C 3,9 C -2,2 C 90 % 1016,8 hPa 0,0 l/m 6,0 km/h (2 Bft) O-NO 59 0 min 0,000 mm 0,0 UV-I 84 W/m -5,1 C -3,7 C 8,0 km/h (2 Bft) 100,00 %
20.01.2019 10:58 -3,7 C 3,9 C -1,7 C 90 % 1016,8 hPa 0,0 l/m 5,9 km/h (2 Bft) O-NO 77 0 min 0,000 mm 0,0 UV-I 90 W/m -5,1 C -3,7 C 8,0 km/h (2 Bft) 100,00 %
20.01.2019 11:00 -3,7 C 3,9 C -1,7 C 89 % 1016,8 hPa 0,0 l/m 7,5 km/h (2 Bft) O-SO 102 0 min 0,000 mm 0,0 UV-I 94 W/m -5,2 C -5,0 C 11,3 km/h (2 Bft) 97,87 %
20.01.2019 11:02 -3,7 C 3,9 C -1,7 C 89 % 1016,8 hPa 0,0 l/m 2,8 km/h (1 Bft) O-SO 121 0 min 0,026 mm 0,0 UV-I 96 W/m -5,2 C -3,7 C 8,0 km/h (2 Bft) 94,87 %
20.01.2019 11:04 -3,7 C 3,9 C -1,7 C 89 % 1016,8 hPa 0,0 l/m 5,9 km/h (2 Bft) SO 131 0 min 0,000 mm 0,0 UV-I 94 W/m -5,2 C -3,7 C 9,7 km/h (2 Bft) 95,74 %
20.01.2019 11:06 -3,8 C 3,9 C -1,7 C 89 % 1016,8 hPa 0,0 l/m 4,2 km/h (1 Bft) SO 130 0 min 0,000 mm 0,0 UV-I 96 W/m -5,3 C -3,8 C 6,4 km/h (2 Bft) 96,00 %
20.01.2019 11:08 -3,7 C 3,9 C -1,7 C 89 % 1016,8 hPa 0,0 l/m 7,1 km/h (2 Bft) O-SO 120 0 min 0,000 mm 0,0 UV-I 99 W/m -5,2 C -4,5 C 11,3 km/h (2 Bft) 93,62 %
20.01.2019 11:10 -3,7 C 3,9 C -1,7 C 89 % 1016,8 hPa 0,0 l/m 4,5 km/h (1 Bft) O-SO 103 0 min 0,000 mm 0,0 UV-I 102 W/m -5,2 C -3,7 C 8,0 km/h (2 Bft) 95,74 %
20.01.2019 11:12 -3,7 C 3,9 C -1,7 C 89 % 1016,8 hPa 0,0 l/m 8,0 km/h (2 Bft) SO 136 0 min 0,000 mm 0,0 UV-I 109 W/m -5,2 C -5,5 C 12,9 km/h (3 Bft) 90,00 %
20.01.2019 11:14 -3,7 C 3,9 C -1,7 C 88 % 1016,8 hPa 0,0 l/m 8,9 km/h (2 Bft) SO 135 0 min 0,000 mm 0,0 UV-I 112 W/m -5,4 C -6,5 C 12,9 km/h (3 Bft) 95,74 %
20.01.2019 11:16 -3,8 C 3,9 C -1,7 C 88 % 1016,8 hPa 0,0 l/m 7,4 km/h (2 Bft) SO 130 0 min 0,000 mm 0,0 UV-I 113 W/m -5,5 C -5,0 C 12,9 km/h (3 Bft) 93,62 %
20.01.2019 11:18 -3,8 C 3,9 C -1,7 C 88 % 1016,8 hPa 0,0 l/m 7,1 km/h (2 Bft) SO 136 0 min 0,000 mm 0,0 UV-I 111 W/m -5,5 C -4,6 C 12,9 km/h (3 Bft) 96,00 %
20.01.2019 11:20 -3,8 C 3,9 C -1,7 C 89 % 1016,8 hPa 0,0 l/m 6,2 km/h (2 Bft) S-SO 157 0 min 0,000 mm 0,0 UV-I 109 W/m -5,3 C -3,8 C 12,9 km/h (3 Bft) 93,62 %
20.01.2019 11:22 -3,8 C 3,9 C -1,7 C 89 % 1016,8 hPa 0,0 l/m 6,0 km/h (2 Bft) S 169 0 min 0,000 mm 0,0 UV-I 110 W/m -5,3 C -3,8 C 9,7 km/h (2 Bft) 94,74 %
20.01.2019 11:24 -3,8 C 3,9 C -1,7 C 88 % 1016,8 hPa 0,0 l/m 8,1 km/h (2 Bft) S-SO 161 0 min 0,000 mm 0,0 UV-I 111 W/m -5,5 C -5,7 C 11,3 km/h (2 Bft) 93,62 %
20.01.2019 11:26 -3,8 C 3,9 C -1,7 C 88 % 1016,8 hPa 0,0 l/m 7,6 km/h (2 Bft) S-SO 167 0 min 0,000 mm 0,0 UV-I 113 W/m -5,5 C -5,2 C 12,9 km/h (3 Bft) 93,62 %
20.01.2019 11:28 -3,8 C 3,9 C -1,7 C 88 % 1016,8 hPa 0,0 l/m 4,2 km/h (1 Bft) S-SO 165 0 min 0,000 mm 0,0 UV-I 115 W/m -5,5 C -3,8 C 8,0 km/h (2 Bft) 90,00 %
20.01.2019 11:30 -3,7 C 3,9 C -1,1 C 88 % 1016,8 hPa 0,0 l/m 3,4 km/h (1 Bft) S-SO 164 0 min 0,000 mm 0,0 UV-I 112 W/m -5,4 C -3,7 C 8,0 km/h (2 Bft) 91,49 %
20.01.2019 11:32 -3,7 C 3,9 C -1,1 C 88 % 1016,8 hPa 0,0 l/m 2,4 km/h (1 Bft) S-SO 164 0 min 0,000 mm 0,0 UV-I 112 W/m -5,4 C -3,7 C 3,2 km/h (1 Bft) 93,62 %
20.01.2019 11:34 -3,7 C 3,9 C -1,1 C 88 % 1016,8 hPa 0,0 l/m 2,0 km/h (1 Bft) S-SO 164 0 min 0,000 mm 0,0 UV-I 112 W/m -5,4 C -3,7 C 6,4 km/h (2 Bft) 91,49 %
20.01.2019 11:36 -3,7 C 3,9 C -1,1 C 88 % 1016,8 hPa 0,0 l/m 3,5 km/h (1 Bft) O 88 0 min 0,000 mm 0,0 UV-I 111 W/m -5,4 C -3,7 C 4,8 km/h (1 Bft) 93,62 %
20.01.2019 11:38 -3,7 C 3,9 C -1,1 C 88 % 1016,9 hPa 0,0 l/m 2,8 km/h (1 Bft) O-SO 111 0 min 0,000 mm 0,0 UV-I 109 W/m -5,4 C -3,7 C 8,0 km/h (2 Bft) 95,12 %
20.01.2019 11:40 -3,6 C 3,9 C -1,1 C 88 % 1016,9 hPa 0,0 l/m 4,9 km/h (1 Bft) O 80 0 min 0,000 mm 0,0 UV-I 107 W/m -5,3 C -3,6 C 9,7 km/h (2 Bft) 92,00 %
20.01.2019 11:42 -3,6 C 3,9 C -1,1 C 88 % 1016,9 hPa 0,0 l/m 4,6 km/h (1 Bft) O 93 0 min 0,000 mm 0,0 UV-I 107 W/m -5,3 C -3,6 C 6,4 km/h (2 Bft) 93,62 %
20.01.2019 11:44 -3,6 C 3,9 C -1,1 C 88 % 1016,8 hPa 0,0 l/m 5,9 km/h (2 Bft) O-NO 78 0 min 0,000 mm 0,0 UV-I 109 W/m -5,3 C -3,6 C 12,9 km/h (3 Bft) 97,92 %
20.01.2019 11:46 -3,6 C 3,9 C -1,1 C 88 % 1016,8 hPa 0,0 l/m 5,9 km/h (2 Bft) O-SO 117 0 min 0,000 mm 0,0 UV-I 113 W/m -5,3 C -3,6 C 9,7 km/h (2 Bft) 96,00 %
20.01.2019 11:48 -3,6 C 3,9 C -1,1 C 88 % 1016,8 hPa 0,0 l/m 6,4 km/h (2 Bft) O 84 0 min 0,000 mm 0,0 UV-I 117 W/m -5,3 C -3,5 C 9,7 km/h (2 Bft) 97,87 %
20.01.2019 11:50 -3,6 C 3,9 C -1,1 C 88 % 1016,8 hPa 0,0 l/m 8,8 km/h (2 Bft) O 94 0 min 0,000 mm 0,0 UV-I 117 W/m -5,3 C -6,3 C 11,3 km/h (2 Bft) 97,87 %
20.01.2019 11:52 -3,7 C 3,9 C -1,1 C 88 % 1016,8 hPa 0,0 l/m 7,2 km/h (2 Bft) O-NO 71 0 min 0,000 mm 0,0 UV-I 121 W/m -5,4 C -4,6 C 11,3 km/h (2 Bft) 97,87 %
20.01.2019 11:54 -3,7 C 3,9 C -1,1 C 88 % 1016,9 hPa 0,0 l/m 6,1 km/h (2 Bft) O-NO 66 0 min 0,000 mm 0,0 UV-I 127 W/m -5,4 C -3,7 C 8,0 km/h (2 Bft) 97,87 %
20.01.2019 11:56 -3,7 C 3,9 C -1,1 C 87 % 1016,9 hPa 0,0 l/m 5,2 km/h (1 Bft) O-SO 111 0 min 0,000 mm 0,0 UV-I 129 W/m -5,5 C -3,7 C 6,4 km/h (2 Bft) 92,68 %
20.01.2019 11:58 -3,8 C 3,9 C -1,1 C 87 % 1016,9 hPa 0,0 l/m 3,8 km/h (1 Bft) O-SO 111 0 min 0,000 mm 0,0 UV-I 101 W/m -5,6 C -3,8 C 6,4 km/h (2 Bft) 95,74 %
20.01.2019 12:00 -3,8 C 3,9 C -1,1 C 87 % 1016,8 hPa 0,0 l/m 1,4 km/h (1 Bft) O-SO 111 0 min 0,025 mm 0,0 UV-I 78 W/m -5,6 C -3,8 C 3,2 km/h (1 Bft) 97,87 %
20.01.2019 12:02 -3,8 C 3,9 C -1,7 C 87 % 1016,9 hPa 0,0 l/m 0,4 km/h (0 Bft) O-SO 111 0 min 0,000 mm 0,0 UV-I 82 W/m -5,6 C -3,8 C 3,2 km/h (1 Bft) 95,74 %
20.01.2019 12:04 -3,9 C 3,9 C -1,7 C 88 % 1016,9 hPa 0,0 l/m 0,8 km/h (0 Bft) O-SO 111 0 min 0,000 mm 0,0 UV-I 109 W/m -5,6 C -3,9 C 3,2 km/h (1 Bft) 97,87 %
20.01.2019 12:06 -3,8 C 3,9 C -1,1 C 88 % 1016,9 hPa 0,0 l/m 1,5 km/h (1 Bft) O-SO 111 0 min 0,000 mm 0,0 UV-I 130 W/m -5,5 C -3,8 C 1,6 km/h (1 Bft) 100,00 %
20.01.2019 12:08 -3,6 C 3,9 C -1,1 C 88 % 1016,9 hPa 0,0 l/m 2,1 km/h (1 Bft) O-SO 110 0 min 0,000 mm 0,0 UV-I 127 W/m -5,3 C -3,6 C 3,2 km/h (1 Bft) 97,87 %
20.01.2019 12:10 -3,7 C 3,9 C -1,1 C 87 % 1016,9 hPa 0,0 l/m 0,7 km/h (0 Bft) O-SO 111 0 min 0,000 mm 0,0 UV-I 122 W/m -5,5 C -3,7 C 1,6 km/h (1 Bft) 100,00 %
20.01.2019 12:12 -3,7 C 3,9 C -1,1 C 87 % 1016,9 hPa 0,0 l/m 2,1 km/h (1 Bft) O-SO 110 0 min 0,000 mm 0,0 UV-I 100 W/m -5,5 C -3,7 C 3,2 km/h (1 Bft) 100,00 %
20.01.2019 12:14 -3,7 C 3,9 C -1,1 C 88 % 1016,9 hPa 0,0 l/m 1,6 km/h (1 Bft) O-SO 109 0 min 0,000 mm 0,0 UV-I 98 W/m -5,4 C -3,7 C 3,2 km/h (1 Bft) 97,56 %
20.01.2019 12:16 -3,6 C 3,9 C -1,1 C 88 % 1017,0 hPa 0,0 l/m 1,0 km/h (0 Bft) O-SO 109 0 min 0,000 mm 0,0 UV-I 102 W/m -5,3 C -3,6 C 1,6 km/h (1 Bft) 97,87 %
20.01.2019 12:18 -3,6 C 3,9 C -1,1 C 88 % 1017,0 hPa 0,0 l/m 4,1 km/h (1 Bft) O-NO 78 0 min 0,000 mm 0,0 UV-I 93 W/m -5,3 C -3,6 C 6,4 km/h (2 Bft) 97,87 %
20.01.2019 12:20 -3,6 C 3,9 C -1,1 C 88 % 1016,9 hPa 0,0 l/m 2,1 km/h (1 Bft) O-NO 78 0 min 0,000 mm 0,0 UV-I 94 W/m -5,3 C -3,6 C 3,2 km/h (1 Bft) 100,00 %
20.01.2019 12:22 -3,6 C 3,9 C -1,1 C 87 % 1016,9 hPa 0,0 l/m 1,0 km/h (0 Bft) O-NO 78 0 min 0,000 mm 0,0 UV-I 101 W/m -5,4 C -3,6 C 1,6 km/h (1 Bft) 98,00 %
20.01.2019 12:24 -3,5 C 3,9 C -1,1 C 88 % 1016,8 hPa 0,0 l/m 1,8 km/h (1 Bft) O-NO 78 0 min 0,000 mm 0,0 UV-I 110 W/m -5,2 C -3,5 C 3,2 km/h (1 Bft) 100,00 %
20.01.2019 12:26 -3,5 C 3,9 C -1,1 C 88 % 1016,8 hPa 0,0 l/m 1,4 km/h (1 Bft) O-NO 77 0 min 0,000 mm 0,0 UV-I 112 W/m -5,2 C -3,5 C 3,2 km/h (1 Bft) 100,00 %
20.01.2019 12:28 -3,4 C 3,9 C -1,1 C 88 % 1016,9 hPa 0,0 l/m 2,1 km/h (1 Bft) O-NO 77 0 min 0,000 mm 0,0 UV-I 112 W/m -5,1 C -3,4 C 3,2 km/h (1 Bft) 100,00 %
20.01.2019 12:30 -3,3 C 3,9 C -1,1 C 88 % 1016,8 hPa 0,0 l/m 3,6 km/h (1 Bft) O 79 0 min 0,000 mm 0,0 UV-I 109 W/m -5,0 C -3,3 C 6,4 km/h (2 Bft) 100,00 %
20.01.2019 12:32 -3,3 C 3,9 C -1,1 C 87 % 1016,9 hPa 0,0 l/m 3,6 km/h (1 Bft) O-NO 76 0 min 0,000 mm 0,0 UV-I 105 W/m -5,1 C -3,3 C 6,4 km/h (2 Bft) 100,00 %
20.01.2019 12:34 -3,3 C 3,9 C -1,1 C 88 % 1016,9 hPa 0,0 l/m 4,9 km/h (1 Bft) O 81 0 min 0,000 mm 0,0 UV-I 100 W/m -5,0 C -3,3 C 6,4 km/h (2 Bft) 97,87 %
20.01.2019 12:36 -3,3 C 3,9 C -1,1 C 87 % 1016,9 hPa 0,0 l/m 3,7 km/h (1 Bft) O-NO 65 0 min 0,000 mm 0,0 UV-I 105 W/m -5,1 C -3,3 C 6,4 km/h (2 Bft) 100,00 %
20.01.2019 12:38 -3,3 C 3,9 C -1,1 C 87 % 1016,8 hPa 0,0 l/m 4,8 km/h (1 Bft) O-NO 60 0 min 0,000 mm 0,0 UV-I 110 W/m -5,1 C -3,3 C 6,4 km/h (2 Bft) 97,87 %
20.01.2019 12:40 -3,3 C 3,9 C -1,1 C 88 % 1016,8 hPa 0,0 l/m 4,6 km/h (1 Bft) O-NO 65 0 min 0,000 mm 0,0 UV-I 108 W/m -5,0 C -3,3 C 6,4 km/h (2 Bft) 97,14 %
20.01.2019 12:42 -3,3 C 3,9 C -1,1 C 87 % 1016,8 hPa 0,0 l/m 2,2 km/h (1 Bft) O-NO 65 0 min 0,000 mm 0,0 UV-I 106 W/m -5,1 C -3,3 C 4,8 km/h (1 Bft) 98,04 %
20.01.2019 12:44 -3,3 C 3,9 C -1,1 C 88 % 1016,8 hPa 0,0 l/m 5,2 km/h (1 Bft) O-NO 67 0 min 0,000 mm 0,0 UV-I 111 W/m -5,0 C -3,3 C 8,0 km/h (2 Bft) 98,00 %
20.01.2019 12:46 -3,4 C 3,9 C -1,1 C 87 % 1016,7 hPa 0,0 l/m 4,0 km/h (1 Bft) O-NO 73 0 min 0,000 mm 0,0 UV-I 114 W/m -5,2 C -3,4 C 8,0 km/h (2 Bft) 97,87 %
20.01.2019 12:48 -3,4 C 3,9 C -1,1 C 87 % 1016,7 hPa 0,0 l/m 1,9 km/h (1 Bft) O-NO 75 0 min 0,000 mm 0,0 UV-I 115 W/m -5,2 C -3,4 C 3,2 km/h (1 Bft) 95,74 %
20.01.2019 12:50 -3,4 C 3,9 C -1,1 C 88 % 1016,7 hPa 0,0 l/m 4,2 km/h (1 Bft) O 81 0 min 0,000 mm 0,0 UV-I 116 W/m -5,1 C -3,4 C 6,4 km/h (2 Bft) 94,00 %
20.01.2019 12:52 -3,4 C 3,9 C -0,6 C 87 % 1016,7 hPa 0,0 l/m 3,2 km/h (1 Bft) O 99 0 min 0,000 mm 0,0 UV-I 118 W/m -5,2 C -3,4 C 6,4 km/h (2 Bft) 97,87 %
20.01.2019 12:54 -3,3 C 3,9 C -0,6 C 88 % 1016,7 hPa 0,0 l/m 6,6 km/h (2 Bft) NO 36 0 min 0,000 mm 0,0 UV-I 118 W/m -5,0 C -3,5 C 12,9 km/h (3 Bft) 97,87 %
20.01.2019 12:56 -3,2 C 3,9 C -0,6 C 88 % 1016,7 hPa 0,0 l/m 5,7 km/h (1 Bft) O-NO 69 0 min 0,000 mm 0,0 UV-I 115 W/m -4,9 C -3,2 C 8,0 km/h (2 Bft) 97,87 %
20.01.2019 12:58 -3,2 C 3,9 C -0,6 C 88 % 1016,6 hPa 0,0 l/m 3,8 km/h (1 Bft) O-NO 57 0 min 0,000 mm 0,0 UV-I 117 W/m -4,9 C -3,2 C 6,4 km/h (2 Bft) 100,00 %
20.01.2019 13:00 -3,2 C 3,9 C -0,6 C 88 % 1016,6 hPa 0,0 l/m 5,0 km/h (1 Bft) O 99 0 min 0,026 mm 0,0 UV-I 121 W/m -4,9 C -3,2 C 6,4 km/h (2 Bft) 97,87 %
20.01.2019 13:02 -3,3 C 3,9 C -0,6 C 87 % 1016,7 hPa 0,0 l/m 4,4 km/h (1 Bft) O 86 0 min 0,000 mm 0,0 UV-I 127 W/m -5,1 C -3,3 C 6,4 km/h (2 Bft) 95,74 %
20.01.2019 13:04 -3,3 C 3,9 C -0,6 C 87 % 1016,6 hPa 0,0 l/m 3,0 km/h (1 Bft) NO 46 0 min 0,000 mm 0,0 UV-I 128 W/m -5,1 C -3,3 C 4,8 km/h (1 Bft) 95,74 %
20.01.2019 13:06 -3,2 C 3,9 C -0,6 C 88 % 1016,6 hPa 0,0 l/m 5,4 km/h (1 Bft) NO 40 0 min 0,000 mm 0,0 UV-I 128 W/m -4,9 C -3,2 C 9,7 km/h (2 Bft) 94,44 %
20.01.2019 13:08 -3,1 C 3,9 C -0,6 C 88 % 1016,6 hPa 0,0 l/m 5,3 km/h (1 Bft) NO 43 0 min 0,000 mm 0,0 UV-I 122 W/m -4,8 C -3,1 C 8,0 km/h (2 Bft) 95,74 %
20.01.2019 13:10 -2,9 C 3,9 C -0,6 C 88 % 1016,6 hPa 0,0 l/m 5,7 km/h (1 Bft) NO 34 0 min 0,000 mm 0,0 UV-I 118 W/m -4,6 C -2,9 C 8,0 km/h (2 Bft) 97,87 %
20.01.2019 13:12 -2,9 C 3,9 C -0,6 C 88 % 1016,6 hPa 0,0 l/m 5,8 km/h (2 Bft) O 80 0 min 0,000 mm 0,0 UV-I 114 W/m -4,6 C -2,9 C 8,0 km/h (2 Bft) 95,74 %
20.01.2019 13:14 -3,1 C 3,9 C -0,6 C 87 % 1016,6 hPa 0,0 l/m 3,4 km/h (1 Bft) O 84 0 min 0,000 mm 0,0 UV-I 113 W/m -4,9 C -3,1 C 6,4 km/h (2 Bft) 95,74 %
20.01.2019 13:16 -3,1 C 3,9 C -0,6 C 87 % 1016,6 hPa 0,0 l/m 4,2 km/h (1 Bft) NO 38 0 min 0,000 mm 0,0 UV-I 113 W/m -4,9 C -3,1 C 6,4 km/h (2 Bft) 97,87 %
20.01.2019 13:18 -3,1 C 3,9 C -1,1 C 87 % 1016,7 hPa 0,0 l/m 5,0 km/h (1 Bft) O-NO 61 0 min 0,000 mm 0,0 UV-I 118 W/m -4,9 C -3,1 C 8,0 km/h (2 Bft) 97,87 %
20.01.2019 13:20 -3,1 C 3,9 C -1,1 C 88 % 1016,6 hPa 0,0 l/m 7,3 km/h (2 Bft) O-SO 113 0 min 0,000 mm 0,0 UV-I 124 W/m -4,8 C -4,1 C 11,3 km/h (2 Bft) 95,74 %
20.01.2019 13:22 -3,2 C 3,9 C -0,6 C 87 % 1016,6 hPa 0,0 l/m 4,9 km/h (1 Bft) O-SO 120 0 min 0,000 mm 0,0 UV-I 129 W/m -5,0 C -3,2 C 8,0 km/h (2 Bft) 96,23 %
20.01.2019 13:24 -3,3 C 3,9 C -0,6 C 86 % 1016,6 hPa 0,0 l/m 3,1 km/h (1 Bft) O-SO 121 0 min 0,000 mm 0,0 UV-I 138 W/m -5,3 C -3,3 C 4,8 km/h (1 Bft) 98,00 %
20.01.2019 13:26 -3,3 C 3,9 C -0,6 C 87 % 1016,6 hPa 0,0 l/m 4,2 km/h (1 Bft) S-SO 149 0 min 0,000 mm 0,0 UV-I 145 W/m -5,1 C -3,3 C 6,4 km/h (2 Bft) 97,87 %
20.01.2019 13:28 -3,3 C 3,9 C 0,0 C 87 % 1016,6 hPa 0,0 l/m 3,7 km/h (1 Bft) S-SO 163 0 min 0,000 mm 0,0 UV-I 148 W/m -5,1 C -3,3 C 6,4 km/h (2 Bft) 97,37 %
20.01.2019 13:30 -3,3 C 3,9 C 0,0 C 87 % 1016,6 hPa 0,0 l/m 3,3 km/h (1 Bft) S-SO 163 0 min 0,000 mm 0,0 UV-I 150 W/m -5,1 C -3,3 C 6,4 km/h (2 Bft) 95,74 %
20.01.2019 13:32 -3,2 C 3,9 C 0,0 C 87 % 1016,6 hPa 0,0 l/m 3,8 km/h (1 Bft) S-SO 167 0 min 0,000 mm 0,0 UV-I 146 W/m -5,0 C -3,2 C 8,0 km/h (2 Bft) 95,74 %
20.01.2019 13:34 -3,2 C 3,9 C 0,0 C 87 % 1016,6 hPa 0,0 l/m 2,7 km/h (1 Bft) S-SO 167 0 min 0,000 mm 0,0 UV-I 152 W/m -5,0 C -3,2 C 4,8 km/h (1 Bft) 100,00 %
20.01.2019 13:36 -3,2 C 3,9 C 0,0 C 87 % 1016,6 hPa 0,0 l/m 3,0 km/h (1 Bft) S-SO 166 0 min 0,000 mm 0,0 UV-I 160 W/m -5,0 C -3,2 C 6,4 km/h (2 Bft) 97,87 %
20.01.2019 13:38 -3,2 C 3,9 C 0,0 C 87 % 1016,6 hPa 0,0 l/m 3,0 km/h (1 Bft) N-NO 15 0 min 0,000 mm 0,0 UV-I 159 W/m -5,0 C -3,2 C 8,0 km/h (2 Bft) 100,00 %
20.01.2019 13:40 -3,1 C 3,9 C 0,0 C 87 % 1016,5 hPa 0,0 l/m 1,9 km/h (1 Bft) N-NO 15 0 min 0,000 mm 0,0 UV-I 152 W/m -4,9 C -3,1 C 4,8 km/h (1 Bft) 98,00 %
20.01.2019 13:42 -3,1 C 3,9 C 0,0 C 87 % 1016,5 hPa 0,0 l/m 1,2 km/h (1 Bft) N-NO 17 0 min 0,000 mm 0,0 UV-I 145 W/m -4,9 C -3,1 C 3,2 km/h (1 Bft) 100,00 %
20.01.2019 13:44 -3,1 C 3,9 C 0,0 C 87 % 1016,6 hPa 0,0 l/m 2,1 km/h (1 Bft) N-NO 17 0 min 0,000 mm 0,0 UV-I 147 W/m -4,9 C -3,1 C 3,2 km/h (1 Bft) 100,00 %
20.01.2019 13:46 -3,1 C 3,9 C 0,0 C 87 % 1016,6 hPa 0,0 l/m 1,9 km/h (1 Bft) NO 54 0 min 0,000 mm 0,0 UV-I 142 W/m -4,9 C -3,1 C 4,8 km/h (1 Bft) 97,37 %
20.01.2019 13:48 -3,0 C 3,9 C 0,0 C 86 % 1016,6 hPa 0,0 l/m 5,1 km/h (1 Bft) N 9 0 min 0,000 mm 0,0 UV-I 132 W/m -5,0 C -3,0 C 8,0 km/h (2 Bft) 98,00 %
20.01.2019 13:50 -3,0 C 3,9 C 0,0 C 86 % 1016,6 hPa 0,0 l/m 4,1 km/h (1 Bft) NO 34 0 min 0,000 mm 0,0 UV-I 124 W/m -5,0 C -3,0 C 8,0 km/h (2 Bft) 97,87 %
20.01.2019 13:52 -2,9 C 3,9 C 0,0 C 87 % 1016,6 hPa 0,0 l/m 7,0 km/h (2 Bft) N-NO 28 0 min 0,000 mm 0,0 UV-I 119 W/m -4,8 C -3,6 C 9,7 km/h (2 Bft) 98,11 %
20.01.2019 13:54 -2,9 C 3,9 C -0,6 C 86 % 1016,6 hPa 0,0 l/m 4,1 km/h (1 Bft) N-NO 17 0 min 0,000 mm 0,0 UV-I 113 W/m -4,9 C -2,9 C 6,4 km/h (2 Bft) 97,14 %
20.01.2019 13:56 -2,9 C 3,9 C -0,6 C 87 % 1016,6 hPa 0,0 l/m 5,6 km/h (1 Bft) N 9 0 min 0,000 mm 0,0 UV-I 105 W/m -4,8 C -2,9 C 8,0 km/h (2 Bft) 98,11 %
20.01.2019 13:58 -2,9 C 3,9 C -0,6 C 87 % 1016,6 hPa 0,0 l/m 4,5 km/h (1 Bft) N 11 0 min 0,000 mm 0,0 UV-I 105 W/m -4,8 C -2,9 C 6,4 km/h (2 Bft) 98,00 %
20.01.2019 14:00 -2,9 C 3,9 C -0,6 C 87 % 1016,6 hPa 0,0 l/m 3,4 km/h (1 Bft) N-NO 13 0 min 0,050 mm 0,0 UV-I 110 W/m -4,8 C -2,9 C 6,4 km/h (2 Bft) 97,87 %
20.01.2019 14:02 -3,0 C 3,9 C -1,1 C 86 % 1016,6 hPa 0,0 l/m 4,7 km/h (1 Bft) NO 34 0 min 0,000 mm 0,0 UV-I 110 W/m -5,0 C -3,0 C 8,0 km/h (2 Bft) 97,87 %
20.01.2019 14:04 -3,1 C 3,9 C -1,1 C 86 % 1016,6 hPa 0,0 l/m 3,6 km/h (1 Bft) NO 35 0 min 0,000 mm 0,0 UV-I 107 W/m -5,1 C -3,1 C 6,4 km/h (2 Bft) 95,74 %
20.01.2019 14:06 -3,1 C 3,9 C -1,1 C 87 % 1016,5 hPa 0,0 l/m 2,8 km/h (1 Bft) NO 35 0 min 0,000 mm 0,0 UV-I 108 W/m -4,9 C -3,1 C 4,8 km/h (1 Bft) 97,87 %
20.01.2019 14:08 -2,9 C 3,9 C -1,1 C 87 % 1016,6 hPa 0,0 l/m 4,2 km/h (1 Bft) N 360 0 min 0,000 mm 0,0 UV-I 104 W/m -4,8 C -2,9 C 6,4 km/h (2 Bft) 95,74 %
20.01.2019 14:10 -3,0 C 3,9 C -1,1 C 87 % 1016,5 hPa 0,0 l/m 4,2 km/h (1 Bft) N-NW 329 0 min 0,000 mm 0,0 UV-I 108 W/m -4,9 C -3,0 C 8,0 km/h (2 Bft) 93,62 %
20.01.2019 14:12 -3,0 C 3,9 C -1,1 C 87 % 1016,5 hPa 0,0 l/m 3,3 km/h (1 Bft) N-NW 330 0 min 0,000 mm 0,0 UV-I 109 W/m -4,9 C -3,0 C 4,8 km/h (1 Bft) 97,87 %
20.01.2019 14:14 -3,0 C 3,9 C -1,1 C 87 % 1016,5 hPa 0,0 l/m 2,5 km/h (1 Bft) N-NW 330 0 min 0,000 mm 0,0 UV-I 107 W/m -4,9 C -3,0 C 4,8 km/h (1 Bft) 100,00 %
20.01.2019 14:16 -3,0 C 3,9 C -1,1 C 87 % 1016,5 hPa 0,0 l/m 2,9 km/h (1 Bft) N-NO 22 0 min 0,000 mm 0,0 UV-I 105 W/m -4,9 C -3,0 C 6,4 km/h (2 Bft) 97,87 %
20.01.2019 14:18 -2,9 C 3,9 C -1,1 C 87 % 1016,5 hPa 0,0 l/m 4,1 km/h (1 Bft) N-NO 32 0 min 0,000 mm 0,0 UV-I 101 W/m -4,8 C -2,9 C 6,4 km/h (2 Bft) 100,00 %
20.01.2019 14:20 -2,9 C 3,9 C -1,1 C 87 % 1016,5 hPa 0,0 l/m 4,6 km/h (1 Bft) N-NO 26 0 min 0,000 mm 0,0 UV-I 100 W/m -4,8 C -2,9 C 6,4 km/h (2 Bft) 100,00 %
20.01.2019 14:22 -2,9 C 3,9 C -0,6 C 86 % 1016,5 hPa 0,0 l/m 4,3 km/h (1 Bft) NO 43 0 min 0,000 mm 0,0 UV-I 101 W/m -4,9 C -2,9 C 6,4 km/h (2 Bft) 100,00 %
20.01.2019 14:24 -2,9 C 3,9 C -1,1 C 87 % 1016,5 hPa 0,0 l/m 4,1 km/h (1 Bft) O-NO 57 0 min 0,000 mm 0,0 UV-I 100 W/m -4,8 C -2,9 C 6,4 km/h (2 Bft) 98,00 %
20.01.2019 14:26 -3,1 C 3,9 C -1,1 C 87 % 1016,5 hPa 0,0 l/m 1,2 km/h (1 Bft) O-NO 57 0 min 0,000 mm 0,0 UV-I 100 W/m -4,9 C -3,1 C 3,2 km/h (1 Bft) 100,00 %
20.01.2019 14:28 -3,1 C 3,9 C -1,1 C 87 % 1016,6 hPa 0,0 l/m 2,1 km/h (1 Bft) O-NO 57 0 min 0,000 mm 0,0 UV-I 103 W/m -4,9 C -3,1 C 4,8 km/h (1 Bft) 100,00 %
20.01.2019 14:30 -3,1 C 3,9 C -1,1 C 87 % 1016,6 hPa 0,0 l/m 1,2 km/h (1 Bft) O-NO 57 0 min 0,000 mm 0,0 UV-I 101 W/m -4,9 C -3,1 C 3,2 km/h (1 Bft) 98,00 %
20.01.2019 14:32 -3,2 C 3,9 C -1,1 C 86 % 1016,6 hPa 0,0 l/m 1,6 km/h (1 Bft) O-NO 58 0 min 0,000 mm 0,0 UV-I 93 W/m -5,2 C -3,2 C 4,8 km/h (1 Bft) 97,87 %
20.01.2019 14:34 -3,1 C 3,9 C -1,1 C 87 % 1016,6 hPa 0,0 l/m 2,3 km/h (1 Bft) O-NO 58 0 min 0,000 mm 0,0 UV-I 91 W/m -4,9 C -3,1 C 4,8 km/h (1 Bft) 97,87 %
20.01.2019 14:36 -3,1 C 3,9 C -1,1 C 87 % 1016,5 hPa 0,0 l/m 0,2 km/h (0 Bft) O-NO 58 0 min 0,000 mm 0,0 UV-I 93 W/m -4,9 C -3,1 C 1,6 km/h (1 Bft) 100,00 %
20.01.2019 14:38 -3,1 C 3,9 C -1,1 C 87 % 1016,6 hPa 0,0 l/m 1,1 km/h (1 Bft) O-NO 58 0 min 0,000 mm 0,0 UV-I 94 W/m -4,9 C -3,1 C 3,2 km/h (1 Bft) 100,00 %
20.01.2019 14:40 -2,9 C 3,9 C -1,1 C 87 % 1016,6 hPa 0,0 l/m 4,0 km/h (1 Bft) O-NO 57 0 min 0,000 mm 0,0 UV-I 96 W/m -4,8 C -2,9 C 6,4 km/h (2 Bft) 100,00 %
20.01.2019 14:42 -2,9 C 3,9 C -1,1 C 87 % 1016,6 hPa 0,0 l/m 4,1 km/h (1 Bft) NO 43 0 min 0,000 mm 0,0 UV-I 96 W/m -4,8 C -2,9 C 6,4 km/h (2 Bft) 100,00 %
20.01.2019 14:44 -2,9 C 3,9 C -1,1 C 87 % 1016,6 hPa 0,0 l/m 3,8 km/h (1 Bft) NO 53 0 min 0,000 mm 0,0 UV-I 95 W/m -4,8 C -2,9 C 4,8 km/h (1 Bft) 100,00 %
20.01.2019 14:46 -2,9 C 3,9 C -1,1 C 87 % 1016,6 hPa 0,0 l/m 3,7 km/h (1 Bft) O-NO 59 0 min 0,000 mm 0,0 UV-I 96 W/m -4,8 C -2,9 C 6,4 km/h (2 Bft) 100,00 %
20.01.2019 14:48 -3,0 C 3,9 C -1,1 C 87 % 1016,6 hPa 0,0 l/m 4,7 km/h (1 Bft) O 94 0 min 0,000 mm 0,0 UV-I 88 W/m -4,9 C -3,0 C 6,4 km/h (2 Bft) 100,00 %
20.01.2019 14:50 -3,0 C 3,9 C -1,1 C 86 % 1016,6 hPa 0,0 l/m 5,8 km/h (2 Bft) O-NO 74 0 min 0,000 mm 0,0 UV-I 78 W/m -5,0 C -3,0 C 8,0 km/h (2 Bft) 98,00 %
20.01.2019 14:52 -3,0 C 3,9 C -1,1 C 87 % 1016,6 hPa 0,0 l/m 5,5 km/h (1 Bft) O-NO 66 0 min 0,000 mm 0,0 UV-I 70 W/m -4,9 C -3,0 C 8,0 km/h (2 Bft) 100,00 %
20.01.2019 14:54 -3,0 C 3,9 C -1,7 C 87 % 1016,6 hPa 0,0 l/m 5,7 km/h (1 Bft) NO 36 0 min 0,000 mm 0,0 UV-I 67 W/m -4,9 C -3,0 C 8,0 km/h (2 Bft) 97,87 %
20.01.2019 14:56 -3,1 C 3,9 C -1,7 C 87 % 1016,6 hPa 0,0 l/m 5,6 km/h (1 Bft) O-NO 70 0 min 0,000 mm 0,0 UV-I 70 W/m -4,9 C -3,1 C 9,7 km/h (2 Bft) 95,74 %
20.01.2019 14:58 -3,1 C 3,9 C -1,7 C 86 % 1016,6 hPa 0,0 l/m 4,9 km/h (1 Bft) O-SO 115 0 min 0,000 mm 0,0 UV-I 76 W/m -5,1 C -3,1 C 6,4 km/h (2 Bft) 95,74 %
20.01.2019 15:00 -3,2 C 3,9 C -1,7 C 86 % 1016,6 hPa 0,0 l/m 2,9 km/h (1 Bft) O-SO 115 0 min 0,026 mm 0,0 UV-I 77 W/m -5,2 C -3,2 C 4,8 km/h (1 Bft) 95,74 %
20.01.2019 15:02 -3,2 C 3,9 C -1,7 C 86 % 1016,6 hPa 0,0 l/m 3,4 km/h (1 Bft) O 90 0 min 0,000 mm 0,0 UV-I 77 W/m -5,2 C -3,2 C 4,8 km/h (1 Bft) 97,92 %
20.01.2019 15:04 -3,2 C 3,9 C -1,7 C 86 % 1016,6 hPa 0,0 l/m 3,0 km/h (1 Bft) O 93 0 min 0,000 mm 0,0 UV-I 72 W/m -5,2 C -3,2 C 4,8 km/h (1 Bft) 93,62 %
20.01.2019 15:06 -3,2 C 3,9 C -1,7 C 86 % 1016,7 hPa 0,0 l/m 2,3 km/h (1 Bft) O 93 0 min 0,000 mm 0,0 UV-I 71 W/m -5,2 C -3,2 C 3,2 km/h (1 Bft) 93,62 %
20.01.2019 15:08 -3,2 C 3,9 C -1,7 C 87 % 1016,7 hPa 0,0 l/m 2,8 km/h (1 Bft) O 93 0 min 0,000 mm 0,0 UV-I 71 W/m -5,0 C -3,2 C 4,8 km/h (1 Bft) 93,62 %
20.01.2019 15:10 -3,2 C 3,9 C -1,7 C 86 % 1016,7 hPa 0,0 l/m 2,4 km/h (1 Bft) O 92 0 min 0,000 mm 0,0 UV-I 70 W/m -5,2 C -3,2 C 4,8 km/h (1 Bft) 91,49 %
20.01.2019 15:12 -3,2 C 3,9 C -1,7 C 87 % 1016,7 hPa 0,0 l/m 2,9 km/h (1 Bft) O 94 0 min 0,000 mm 0,0 UV-I 69 W/m -5,0 C -3,2 C 4,8 km/h (1 Bft) 89,36 %
20.01.2019 15:14 -3,2 C 3,9 C -1,7 C 86 % 1016,7 hPa 0,0 l/m 1,8 km/h (1 Bft) O 93 0 min 0,000 mm 0,0 UV-I 69 W/m -5,2 C -3,2 C 3,2 km/h (1 Bft) 94,74 %
20.01.2019 15:16 -3,2 C 3,9 C -1,7 C 86 % 1016,7 hPa 0,0 l/m 2,7 km/h (1 Bft) O 93 0 min 0,000 mm 0,0 UV-I 71 W/m -5,2 C -3,2 C 4,8 km/h (1 Bft) 89,36 %
20.01.2019 15:18 -3,2 C 3,9 C -1,7 C 87 % 1016,7 hPa 0,0 l/m 2,6 km/h (1 Bft) O 92 0 min 0,000 mm 0,0 UV-I 76 W/m -5,0 C -3,2 C 4,8 km/h (1 Bft) 91,49 %
20.01.2019 15:20 -3,2 C 3,9 C -1,7 C 86 % 1016,7 hPa 0,0 l/m 1,2 km/h (1 Bft) O 92 0 min 0,000 mm 0,0 UV-I 78 W/m -5,2 C -3,2 C 3,2 km/h (1 Bft) 95,74 %
20.01.2019 15:22 -3,2 C 3,9 C -1,7 C 86 % 1016,7 hPa 0,0 l/m 0,7 km/h (0 Bft) O 92 0 min 0,000 mm 0,0 UV-I 79 W/m -5,2 C -3,2 C 3,2 km/h (1 Bft) 93,62 %
20.01.2019 15:24 -3,2 C 3,9 C -1,7 C 86 % 1016,7 hPa 0,0 l/m 3,6 km/h (1 Bft) O 92 0 min 0,000 mm 0,0 UV-I 77 W/m -5,2 C -3,2 C 4,8 km/h (1 Bft) 95,74 %
20.01.2019 15:26 -3,1 C 3,9 C -1,7 C 87 % 1016,8 hPa 0,0 l/m 3,6 km/h (1 Bft) O 80 0 min 0,000 mm 0,0 UV-I 78 W/m -4,9 C -3,1 C 6,4 km/h (2 Bft) 91,49 %
20.01.2019 15:28 -3,1 C 3,9 C -1,7 C 87 % 1016,7 hPa 0,0 l/m 4,2 km/h (1 Bft) O-NO 78 0 min 0,000 mm 0,0 UV-I 81 W/m -4,9 C -3,1 C 6,4 km/h (2 Bft) 95,74 %
20.01.2019 15:30 -3,1 C 3,9 C -1,7 C 87 % 1016,8 hPa 0,0 l/m 1,8 km/h (1 Bft) O 79 0 min 0,000 mm 0,0 UV-I 85 W/m -4,9 C -3,1 C 3,2 km/h (1 Bft) 93,62 %
20.01.2019 15:32 -3,1 C 3,9 C -1,7 C 86 % 1016,8 hPa 0,0 l/m 2,4 km/h (1 Bft) O-NO 78 0 min 0,000 mm 0,0 UV-I 83 W/m -5,1 C -3,1 C 3,2 km/h (1 Bft) 95,74 %
20.01.2019 15:34 -3,1 C 3,9 C -1,7 C 86 % 1016,8 hPa 0,0 l/m 1,4 km/h (1 Bft) O 80 0 min 0,000 mm 0,0 UV-I 76 W/m -5,1 C -3,1 C 3,2 km/h (1 Bft) 95,74 %
20.01.2019 15:36 -3,2 C 3,9 C -1,7 C 86 % 1016,9 hPa 0,0 l/m 6,0 km/h (2 Bft) O 97 0 min 0,000 mm 0,0 UV-I 76 W/m -5,2 C -3,2 C 9,7 km/h (2 Bft) 93,62 %
20.01.2019 15:38 -3,2 C 3,9 C -1,7 C 86 % 1016,9 hPa 0,0 l/m 4,4 km/h (1 Bft) O 95 0 min 0,000 mm 0,0 UV-I 68 W/m -5,2 C -3,2 C 6,4 km/h (2 Bft) 100,00 %
20.01.2019 15:40 -3,2 C 3,9 C -1,7 C 86 % 1016,9 hPa 0,0 l/m 2,1 km/h (1 Bft) O-SO 108 0 min 0,000 mm 0,0 UV-I 68 W/m -5,2 C -3,2 C 4,8 km/h (1 Bft) 92,19 %
20.01.2019 15:42 -3,2 C 3,9 C -1,7 C 86 % 1016,8 hPa 0,0 l/m 3,1 km/h (1 Bft) O-SO 119 0 min 0,000 mm 0,0 UV-I 68 W/m -5,2 C -3,2 C 4,8 km/h (1 Bft) 97,87 %
20.01.2019 15:44 -3,2 C 3,9 C -1,7 C 87 % 1016,9 hPa 0,0 l/m 3,1 km/h (1 Bft) O-SO 121 2 min 0,000 mm 0,0 UV-I 72 W/m -5,0 C -3,2 C 6,4 km/h (2 Bft) 97,44 %
20.01.2019 15:46 -3,2 C 3,9 C -1,7 C 87 % 1016,9 hPa 0,0 l/m 3,7 km/h (1 Bft) O-SO 123 2 min 0,000 mm 0,0 UV-I 71 W/m -5,0 C -3,2 C 6,4 km/h (2 Bft) 97,87 %
20.01.2019 15:48 -3,3 C 3,9 C -1,7 C 86 % 1017,0 hPa 0,0 l/m 2,1 km/h (1 Bft) O-SO 122 2 min 0,000 mm 0,0 UV-I 67 W/m -5,3 C -3,3 C 4,8 km/h (1 Bft) 97,87 %
20.01.2019 15:50 -3,2 C 3,9 C -1,7 C 87 % 1016,9 hPa 0,0 l/m 3,5 km/h (1 Bft) O-SO 121 0 min 0,000 mm 0,0 UV-I 61 W/m -5,0 C -3,2 C 4,8 km/h (1 Bft) 95,74 %
20.01.2019 15:52 -3,2 C 3,9 C -1,7 C 87 % 1017,0 hPa 0,0 l/m 5,0 km/h (1 Bft) O-SO 104 0 min 0,000 mm 0,0 UV-I 53 W/m -5,0 C -3,2 C 9,7 km/h (2 Bft) 97,87 %
20.01.2019 15:54 -3,2 C 3,9 C -2,2 C 87 % 1017,0 hPa 0,0 l/m 5,2 km/h (1 Bft) O 80 0 min 0,000 mm 0,0 UV-I 45 W/m -5,0 C -3,2 C 6,4 km/h (2 Bft) 97,87 %
20.01.2019 15:56 -3,2 C 3,9 C -2,2 C 87 % 1017,1 hPa 0,0 l/m 3,3 km/h (1 Bft) O 79 0 min 0,000 mm 0,0 UV-I 41 W/m -5,0 C -3,2 C 6,4 km/h (2 Bft) 95,74 %
20.01.2019 15:58 -3,2 C 3,9 C -2,2 C 87 % 1017,0 hPa 0,0 l/m 2,8 km/h (1 Bft) O 80 0 min 0,000 mm 0,0 UV-I 40 W/m -5,0 C -3,2 C 4,8 km/h (1 Bft) 95,74 %
20.01.2019 16:00 -3,2 C 3,9 C -2,2 C 87 % 1017,1 hPa 0,0 l/m 2,8 km/h (1 Bft) O 84 0 min 0,025 mm 0,0 UV-I 43 W/m -5,0 C -3,2 C 4,8 km/h (1 Bft) 95,74 %
20.01.2019 16:02 -3,3 C 3,9 C -2,2 C 86 % 1017,1 hPa 0,0 l/m 2,7 km/h (1 Bft) O 98 0 min 0,000 mm 0,0 UV-I 42 W/m -5,3 C -3,3 C 4,8 km/h (1 Bft) 95,74 %
20.01.2019 16:04 -3,2 C 3,9 C -2,2 C 87 % 1017,0 hPa 0,0 l/m 4,1 km/h (1 Bft) O 98 0 min 0,000 mm 0,0 UV-I 39 W/m -5,0 C -3,2 C 6,4 km/h (2 Bft) 93,62 %
20.01.2019 16:06 -3,2 C 3,9 C -2,8 C 87 % 1017,1 hPa 0,0 l/m 5,8 km/h (2 Bft) O 92 0 min 0,000 mm 0,0 UV-I 34 W/m -5,0 C -3,2 C 11,3 km/h (2 Bft) 95,74 %
20.01.2019 16:08 -3,2 C 3,9 C -2,8 C 87 % 1017,1 hPa 0,0 l/m 3,9 km/h (1 Bft) O-NO 57 0 min 0,000 mm 0,0 UV-I 29 W/m -5,0 C -3,2 C 6,4 km/h (2 Bft) 97,87 %
20.01.2019 16:10 -3,2 C 3,9 C -2,8 C 87 % 1017,1 hPa 0,0 l/m 4,3 km/h (1 Bft) O-NO 59 0 min 0,000 mm 0,0 UV-I 24 W/m -5,0 C -3,2 C 8,0 km/h (2 Bft) 98,00 %
20.01.2019 16:12 -3,2 C 3,9 C -2,8 C 87 % 1017,1 hPa 0,0 l/m 4,5 km/h (1 Bft) O-NO 69 0 min 0,000 mm 0,0 UV-I 22 W/m -5,0 C -3,2 C 6,4 km/h (2 Bft) 98,00 %
20.01.2019 16:14 -3,3 C 3,9 C -3,3 C 87 % 1017,2 hPa 0,0 l/m 4,3 km/h (1 Bft) O-NO 71 0 min 0,000 mm 0,0 UV-I 21 W/m -5,1 C -3,3 C 6,4 km/h (2 Bft) 100,00 %
20.01.2019 16:16 -3,3 C 3,9 C -3,3 C 87 % 1017,2 hPa 0,0 l/m 3,7 km/h (1 Bft) O 86 0 min 0,000 mm 0,0 UV-I 21 W/m -5,1 C -3,3 C 6,4 km/h (2 Bft) 97,87 %
20.01.2019 16:18 -3,3 C 3,9 C -3,3 C 87 % 1017,2 hPa 0,0 l/m 5,1 km/h (1 Bft) O-NO 69 0 min 0,000 mm 0,0 UV-I 21 W/m -5,1 C -3,3 C 6,4 km/h (2 Bft) 95,74 %
20.01.2019 16:20 -3,4 C 3,9 C -3,9 C 87 % 1017,2 hPa 0,0 l/m 3,3 km/h (1 Bft) O 88 0 min 0,000 mm 0,0 UV-I 20 W/m -5,2 C -3,4 C 4,8 km/h (1 Bft) 95,74 %
20.01.2019 16:22 -3,4 C 3,9 C -3,9 C 87 % 1017,2 hPa 0,0 l/m 3,1 km/h (1 Bft) O 90 0 min 0,000 mm 0,0 UV-I 19 W/m -5,2 C -3,4 C 4,8 km/h (1 Bft) 97,87 %
20.01.2019 16:24 -3,5 C 3,9 C -3,9 C 87 % 1017,3 hPa 0,0 l/m 2,9 km/h (1 Bft) O 90 0 min 0,000 mm 0,0 UV-I 19 W/m -5,3 C -3,5 C 4,8 km/h (1 Bft) 97,87 %
20.01.2019 16:26 -3,5 C 3,9 C -3,9 C 87 % 1017,3 hPa 0,0 l/m 4,7 km/h (1 Bft) O-SO 105 2 min 0,000 mm 0,0 UV-I 18 W/m -5,3 C -3,5 C 6,4 km/h (2 Bft) 95,74 %
20.01.2019 16:28 -3,6 C 3,9 C -4,4 C 87 % 1017,3 hPa 0,0 l/m 3,3 km/h (1 Bft) O-SO 105 2 min 0,000 mm 0,0 UV-I 18 W/m -5,4 C -3,6 C 4,8 km/h (1 Bft) 97,87 %
20.01.2019 16:30 -3,6 C 3,9 C -4,4 C 88 % 1017,3 hPa 0,0 l/m 2,8 km/h (1 Bft) O-SO 105 2 min 0,000 mm 0,0 UV-I 17 W/m -5,3 C -3,6 C 4,8 km/h (1 Bft) 95,74 %
20.01.2019 16:32 -3,6 C 3,9 C -4,4 C 87 % 1017,3 hPa 0,0 l/m 3,3 km/h (1 Bft) O-SO 105 2 min 0,000 mm 0,0 UV-I 16 W/m -5,4 C -3,6 C 4,8 km/h (1 Bft) 95,74 %
20.01.2019 16:34 -3,6 C 3,9 C -4,4 C 88 % 1017,3 hPa 0,0 l/m 3,2 km/h (1 Bft) O-NO 76 0 min 0,000 mm 0,0 UV-I 15 W/m -5,3 C -3,6 C 6,4 km/h (2 Bft) 96,00 %
20.01.2019 16:36 -3,6 C 3,9 C -4,4 C 88 % 1017,3 hPa 0,0 l/m 4,5 km/h (1 Bft) O 79 0 min 0,000 mm 0,0 UV-I 14 W/m -5,3 C -3,6 C 6,4 km/h (2 Bft) 97,87 %
20.01.2019 16:38 -3,6 C 3,9 C -4,4 C 88 % 1017,4 hPa 0,0 l/m 3,0 km/h (1 Bft) O 100 0 min 0,000 mm 0,0 UV-I 12 W/m -5,3 C -3,6 C 4,8 km/h (1 Bft) 97,87 %
20.01.2019 16:40 -3,7 C 3,9 C -5,0 C 88 % 1017,3 hPa 0,0 l/m 3,4 km/h (1 Bft) O 100 0 min 0,000 mm 0,0 UV-I 12 W/m -5,4 C -3,7 C 4,8 km/h (1 Bft) 97,87 %
20.01.2019 16:42 -3,7 C 3,9 C -5,0 C 88 % 1017,4 hPa 0,0 l/m 3,4 km/h (1 Bft) O-SO 108 0 min 0,000 mm 0,0 UV-I 11 W/m -5,4 C -3,7 C 4,8 km/h (1 Bft) 93,62 %
20.01.2019 16:44 -3,7 C 3,9 C -5,0 C 88 % 1017,3 hPa 0,0 l/m 4,7 km/h (1 Bft) O-SO 108 0 min 0,000 mm 0,0 UV-I 11 W/m -5,4 C -3,7 C 6,4 km/h (2 Bft) 100,00 %
20.01.2019 16:46 -3,7 C 3,9 C -5,6 C 88 % 1017,4 hPa 0,0 l/m 3,6 km/h (1 Bft) O-SO 109 0 min 0,000 mm 0,0 UV-I 9 W/m -5,4 C -3,7 C 4,8 km/h (1 Bft) 100,00 %
20.01.2019 16:48 -3,7 C 3,9 C -5,6 C 88 % 1017,4 hPa 0,0 l/m 2,7 km/h (1 Bft) O-SO 110 0 min 0,000 mm 0,0 UV-I 8 W/m -5,4 C -3,7 C 4,8 km/h (1 Bft) 97,87 %
20.01.2019 16:50 -3,8 C 3,9 C -5,6 C 88 % 1017,4 hPa 0,0 l/m 2,7 km/h (1 Bft) O-SO 110 0 min 0,000 mm 0,0 UV-I 7 W/m -5,5 C -3,8 C 4,8 km/h (1 Bft) 100,00 %
20.01.2019 16:52 -3,8 C 3,9 C -5,6 C 88 % 1017,4 hPa 0,0 l/m 2,1 km/h (1 Bft) O-SO 110 0 min 0,000 mm 0,0 UV-I 6 W/m -5,5 C -3,8 C 3,2 km/h (1 Bft) 97,87 %
20.01.2019 16:54 -3,8 C 3,9 C -6,1 C 88 % 1017,5 hPa 0,0 l/m 1,4 km/h (1 Bft) O-SO 110 0 min 0,000 mm 0,0 UV-I 5 W/m -5,5 C -3,8 C 3,2 km/h (1 Bft) 100,00 %
20.01.2019 16:56 -3,8 C 3,9 C -6,1 C 88 % 1017,5 hPa 0,0 l/m 1,5 km/h (1 Bft) O-SO 110 0 min 0,000 mm 0,0 UV-I 5 W/m -5,5 C -3,8 C 3,2 km/h (1 Bft) 100,00 %
20.01.2019 16:59 -3,8 C 3,9 C -6,1 C 89 % 1017,5 hPa 0,0 l/m 0,9 km/h (0 Bft) O-SO 110 0 min 0,000 mm 0,0 UV-I 4 W/m -5,3 C -3,8 C 1,6 km/h (1 Bft) 97,14 %
20.01.2019 17:00 -3,8 C 3,9 C -6,7 C 89 % 1017,5 hPa 0,0 l/m 0,7 km/h (0 Bft) O-SO 110 0 min 0,000 mm 0,0 UV-I 0 W/m -5,3 C -3,8 C 1,6 km/h (1 Bft) 95,83 %
20.01.2019 17:02 -3,8 C 3,9 C -6,1 C 88 % 1017,6 hPa 0,0 l/m 1,4 km/h (1 Bft) O-SO 110 0 min 0,000 mm 0,0 UV-I 0 W/m -5,5 C -3,8 C 3,2 km/h (1 Bft) 95,74 %
20.01.2019 17:04 -3,8 C 3,9 C -6,7 C 89 % 1017,5 hPa 0,0 l/m 0,9 km/h (0 Bft) O-SO 110 0 min 0,000 mm 0,0 UV-I 0 W/m -5,3 C -3,8 C 1,6 km/h (1 Bft) 97,87 %
20.01.2019 17:06 -3,9 C 3,9 C -6,7 C 88 % 1017,6 hPa 0,0 l/m 0,7 km/h (0 Bft) O-SO 110 0 min 0,000 mm 0,0 UV-I 0 W/m -5,6 C -3,9 C 1,6 km/h (1 Bft) 98,00 %
20.01.2019 17:08 -4,0 C 3,9 C -6,7 C 88 % 1017,6 hPa 0,0 l/m 0,9 km/h (0 Bft) O-SO 110 0 min 0,000 mm 0,0 UV-I 0 W/m -5,7 C -4,0 C 1,6 km/h (1 Bft) 97,14 %
20.01.2019 17:10 -4,1 C 3,9 C -6,7 C 89 % 1017,6 hPa 0,0 l/m 1,5 km/h (1 Bft) O-SO 110 0 min 0,000 mm 0,0 UV-I 0 W/m -5,6 C -4,1 C 3,2 km/h (1 Bft) 97,87 %
20.01.2019 17:12 -4,1 C 3,9 C -6,7 C 89 % 1017,6 hPa 0,0 l/m 1,6 km/h (1 Bft) O-SO 110 0 min 0,000 mm 0,0 UV-I 0 W/m -5,6 C -4,1 C 3,2 km/h (1 Bft) 97,87 %
20.01.2019 17:14 -4,1 C 3,9 C -7,2 C 90 % 1017,7 hPa 0,0 l/m 1,7 km/h (1 Bft) O-SO 110 0 min 0,000 mm 0,0 UV-I 0 W/m -5,5 C -4,1 C 3,2 km/h (1 Bft) 95,74 %
20.01.2019 17:16 -4,1 C 3,9 C -7,2 C 90 % 1017,7 hPa 0,0 l/m 1,5 km/h (1 Bft) O-SO 110 0 min 0,000 mm 0,0 UV-I 0 W/m -5,5 C -4,1 C 3,2 km/h (1 Bft) 95,74 %
20.01.2019 17:18 -4,1 C 3,9 C -7,2 C 90 % 1017,7 hPa 0,0 l/m 0,8 km/h (0 Bft) O-SO 110 0 min 0,000 mm 0,0 UV-I 0 W/m -5,5 C -4,1 C 1,6 km/h (1 Bft) 93,62 %
20.01.2019 17:20 -4,1 C 3,9 C -7,2 C 90 % 1017,7 hPa 0,0 l/m 0,2 km/h (0 Bft) O-SO 110 0 min 0,000 mm 0,0 UV-I 0 W/m -5,5 C -4,1 C 1,6 km/h (1 Bft) 98,00 %
20.01.2019 17:22 -4,1 C 3,9 C -7,2 C 90 % 1017,7 hPa 0,0 l/m 1,9 km/h (1 Bft) O-SO 110 0 min 0,000 mm 0,0 UV-I 0 W/m -5,5 C -4,1 C 3,2 km/h (1 Bft) 97,87 %
20.01.2019 17:24 -4,1 C 3,9 C -7,2 C 90 % 1017,8 hPa 0,0 l/m 1,2 km/h (1 Bft) O-SO 110 0 min 0,000 mm 0,0 UV-I 0 W/m -5,5 C -4,1 C 3,2 km/h (1 Bft) 96,00 %
20.01.2019 17:26 -4,1 C 3,9 C -7,8 C 90 % 1017,8 hPa 0,0 l/m 1,0 km/h (0 Bft) O-SO 110 0 min 0,000 mm 0,0 UV-I 0 W/m -5,5 C -4,1 C 1,6 km/h (1 Bft) 95,74 %
20.01.2019 17:28 -4,1 C 3,9 C -7,8 C 90 % 1017,8 hPa 0,0 l/m 0,5 km/h (0 Bft) O-SO 110 0 min 0,000 mm 0,0 UV-I 0 W/m -5,5 C -4,1 C 1,6 km/h (1 Bft) 94,87 %
20.01.2019 17:30 -4,1 C 3,9 C -7,8 C 90 % 1017,8 hPa 0,0 l/m 1,4 km/h (1 Bft) O-SO 110 0 min 0,000 mm 0,0 UV-I 0 W/m -5,5 C -4,1 C 3,2 km/h (1 Bft) 96,00 %
20.01.2019 17:32 -4,2 C 3,9 C -8,3 C 90 % 1017,8 hPa 0,0 l/m 2,1 km/h (1 Bft) O-SO 110 0 min 0,000 mm 0,0 UV-I 0 W/m -5,6 C -4,2 C 3,2 km/h (1 Bft) 95,74 %
20.01.2019 17:34 -4,2 C 3,9 C -7,8 C 90 % 1017,8 hPa 0,0 l/m 2,9 km/h (1 Bft) O-SO 110 0 min 0,000 mm 0,0 UV-I 0 W/m -5,6 C -4,2 C 3,2 km/h (1 Bft) 97,87 %
20.01.2019 17:36 -4,3 C 3,9 C -7,8 C 90 % 1017,8 hPa 0,0 l/m 2,5 km/h (1 Bft) O-SO 110 0 min 0,000 mm 0,0 UV-I 0 W/m -5,7 C -4,3 C 3,2 km/h (1 Bft) 98,11 %
20.01.2019 17:38 -4,4 C 3,9 C -7,8 C 91 % 1017,8 hPa 0,0 l/m 2,7 km/h (1 Bft) O-SO 110 0 min 0,000 mm 0,0 UV-I 0 W/m -5,6 C -4,4 C 4,8 km/h (1 Bft) 95,74 %
20.01.2019 17:40 -4,4 C 3,9 C -7,8 C 91 % 1017,8 hPa 0,0 l/m 3,5 km/h (1 Bft) O-SO 109 0 min 0,000 mm 0,0 UV-I 0 W/m -5,6 C -4,4 C 4,8 km/h (1 Bft) 93,62 %
20.01.2019 17:42 -4,4 C 3,9 C -7,2 C 91 % 1017,9 hPa 0,0 l/m 2,5 km/h (1 Bft) O-SO 109 0 min 0,000 mm 0,0 UV-I 0 W/m -5,6 C -4,4 C 3,2 km/h (1 Bft) 94,74 %
20.01.2019 17:44 -4,4 C 3,9 C -7,2 C 91 % 1017,9 hPa 0,0 l/m 0,7 km/h (0 Bft) O-SO 109 0 min 0,000 mm 0,0 UV-I 0 W/m -5,6 C -4,4 C 1,6 km/h (1 Bft) 97,87 %
20.01.2019 17:46 -4,4 C 3,9 C -7,2 C 91 % 1018,0 hPa 0,0 l/m 0,6 km/h (0 Bft) O-SO 111 0 min 0,000 mm 0,0 UV-I 0 W/m -5,6 C -4,4 C 1,6 km/h (1 Bft) 97,87 %
20.01.2019 17:48 -4,4 C 3,9 C -6,7 C 91 % 1018,0 hPa 0,0 l/m 2,9 km/h (1 Bft) SW 217 0 min 0,000 mm 0,0 UV-I 0 W/m -5,6 C -4,4 C 4,8 km/h (1 Bft) 100,00 %
20.01.2019 17:50 -4,4 C 3,9 C -6,1 C 91 % 1018,1 hPa 0,0 l/m 3,4 km/h (1 Bft) SW 219 0 min 0,000 mm 0,0 UV-I 0 W/m -5,6 C -4,4 C 4,8 km/h (1 Bft) 97,87 %
20.01.2019 17:52 -4,5 C 3,9 C -5,6 C 91 % 1018,1 hPa 0,0 l/m 1,8 km/h (1 Bft) SW 219 0 min 0,000 mm 0,0 UV-I 0 W/m -5,7 C -4,5 C 3,2 km/h (1 Bft) 100,00 %
20.01.2019 17:54 -4,5 C 3,9 C -5,6 C 91 % 1018,2 hPa 0,0 l/m 0,9 km/h (0 Bft) SW 219 0 min 0,000 mm 0,0 UV-I 0 W/m -5,7 C -4,5 C 1,6 km/h (1 Bft) 100,00 %
20.01.2019 17:56 -4,5 C 3,9 C -5,6 C 91 % 1018,2 hPa 0,0 l/m 0,6 km/h (0 Bft) SW 219 0 min 0,000 mm 0,0 UV-I 0 W/m -5,7 C -4,5 C 1,6 km/h (1 Bft) 100,00 %
20.01.2019 17:58 -4,5 C 3,9 C -5,6 C 91 % 1018,2 hPa 0,0 l/m 0,2 km/h (0 Bft) SW 219 0 min 0,000 mm 0,0 UV-I 0 W/m -5,7 C -4,5 C 1,6 km/h (1 Bft) 100,00 %
20.01.2019 18:00 -4,5 C 3,9 C -5,6 C 91 % 1018,1 hPa 0,0 l/m 0,0 km/h (0 Bft) SW 219 0 min 0,000 mm 0,0 UV-I 0 W/m -5,7 C -4,5 C 0,0 km/h (0 Bft) 98,00 %
20.01.2019 18:02 -4,4 C 3,9 C -5,6 C 91 % 1018,2 hPa 0,0 l/m 0,0 km/h (0 Bft) SW 219 0 min 0,000 mm 0,0 UV-I 0 W/m -5,6 C -4,4 C 0,0 km/h (0 Bft) 100,00 %
20.01.2019 18:04 -4,4 C 3,9 C -5,6 C 91 % 1018,2 hPa 0,0 l/m 0,5 km/h (0 Bft) SW 219 0 min 0,000 mm 0,0 UV-I 0 W/m -5,6 C -4,4 C 1,6 km/h (1 Bft) 100,00 %
20.01.2019 18:06 -4,5 C 3,9 C -5,6 C 91 % 1018,2 hPa 0,0 l/m 1,2 km/h (1 Bft) SW 219 0 min 0,000 mm 0,0 UV-I 0 W/m -5,7 C -4,5 C 1,6 km/h (1 Bft) 96,00 %
20.01.2019 18:08 -4,6 C 3,9 C -6,1 C 91 % 1018,2 hPa 0,0 l/m 2,3 km/h (1 Bft) SW 219 0 min 0,000 mm 0,0 UV-I 0 W/m -5,8 C -4,6 C 3,2 km/h (1 Bft) 100,00 %
20.01.2019 18:10 -4,6 C 3,9 C -6,1 C 91 % 1018,2 hPa 0,0 l/m 2,4 km/h (1 Bft) SW 219 0 min 0,000 mm 0,0 UV-I 0 W/m -5,8 C -4,6 C 3,2 km/h (1 Bft) 98,00 %
20.01.2019 18:12 -4,6 C 3,9 C -6,1 C 91 % 1018,2 hPa 0,0 l/m 2,3 km/h (1 Bft) SW 219 0 min 0,000 mm 0,0 UV-I 0 W/m -5,8 C -4,6 C 3,2 km/h (1 Bft) 100,00 %
20.01.2019 18:14 -4,6 C 3,9 C -6,7 C 91 % 1018,2 hPa 0,0 l/m 1,6 km/h (1 Bft) SW 219 0 min 0,000 mm 0,0 UV-I 0 W/m -5,8 C -4,6 C 3,2 km/h (1 Bft) 97,87 %
20.01.2019 18:16 -4,6 C 3,9 C -6,7 C 92 % 1018,2 hPa 0,0 l/m 1,8 km/h (1 Bft) SW 219 0 min 0,000 mm 0,0 UV-I 0 W/m -5,7 C -4,6 C 3,2 km/h (1 Bft) 97,87 %
20.01.2019 18:18 -4,6 C 3,9 C -6,7 C 92 % 1018,3 hPa 0,0 l/m 2,3 km/h (1 Bft) SW 219 0 min 0,000 mm 0,0 UV-I 0 W/m -5,7 C -4,6 C 3,2 km/h (1 Bft) 100,00 %
20.01.2019 18:20 -4,6 C 3,9 C -6,7 C 91 % 1018,3 hPa 0,0 l/m 2,4 km/h (1 Bft) SW 219 0 min 0,000 mm 0,0 UV-I 0 W/m -5,8 C -4,6 C 3,2 km/h (1 Bft) 100,00 %
20.01.2019 18:22 -4,7 C 3,9 C -6,7 C 91 % 1018,3 hPa 0,0 l/m 2,2 km/h (1 Bft) SW 219 0 min 0,000 mm 0,0 UV-I 0 W/m -5,9 C -4,7 C 3,2 km/h (1 Bft) 98,00 %
20.01.2019 18:24 -4,8 C 3,9 C -7,2 C 91 % 1018,3 hPa 0,0 l/m 1,5 km/h (1 Bft) SW 219 0 min 0,000 mm 0,0 UV-I 0 W/m -6,0 C -4,8 C 3,2 km/h (1 Bft) 95,74 %
20.01.2019 18:26 -4,8 C 3,9 C -7,8 C 92 % 1018,3 hPa 0,0 l/m 1,2 km/h (1 Bft) SW 219 0 min 0,000 mm 0,0 UV-I 0 W/m -5,9 C -4,8 C 1,6 km/h (1 Bft) 97,14 %
20.01.2019 18:28 -4,8 C 3,9 C -7,2 C 92 % 1018,3 hPa 0,0 l/m 1,9 km/h (1 Bft) SW 219 0 min 0,000 mm 0,0 UV-I 0 W/m -5,9 C -4,8 C 3,2 km/h (1 Bft) 100,00 %
20.01.2019 18:30 -4,9 C 3,9 C -6,7 C 91 % 1018,3 hPa 0,0 l/m 2,0 km/h (1 Bft) SW 219 0 min 0,000 mm 0,0 UV-I 0 W/m -6,1 C -4,9 C 3,2 km/h (1 Bft) 98,00 %
20.01.2019 18:32 -5,0 C 3,9 C -6,7 C 91 % 1018,4 hPa 0,0 l/m 2,5 km/h (1 Bft) SW 219 0 min 0,000 mm 0,0 UV-I 0 W/m -6,2 C -5,0 C 3,2 km/h (1 Bft) 100,00 %
20.01.2019 18:34 -5,1 C 3,9 C -6,7 C 91 % 1018,4 hPa 0,0 l/m 3,1 km/h (1 Bft) SW 219 0 min 0,000 mm 0,0 UV-I 0 W/m -6,3 C -5,1 C 3,2 km/h (1 Bft) 97,87 %
20.01.2019 18:36 -5,1 C 3,9 C -6,7 C 92 % 1018,4 hPa 0,0 l/m 3,2 km/h (1 Bft) SW 219 0 min 0,000 mm 0,0 UV-I 0 W/m -6,2 C -5,1 C 4,8 km/h (1 Bft) 91,49 %
20.01.2019 18:38 -5,1 C 3,9 C -7,2 C 92 % 1018,4 hPa 0,0 l/m 2,1 km/h (1 Bft) SW 219 0 min 0,000 mm 0,0 UV-I 0 W/m -6,2 C -5,1 C 3,2 km/h (1 Bft) 92,11 %
20.01.2019 18:40 -5,2 C 3,9 C -7,2 C 92 % 1018,5 hPa 0,0 l/m 1,5 km/h (1 Bft) SW 219 0 min 0,000 mm 0,0 UV-I 0 W/m -6,3 C -5,2 C 1,6 km/h (1 Bft) 95,74 %
20.01.2019 18:42 -5,2 C 3,9 C -7,8 C 92 % 1018,5 hPa 0,0 l/m 1,6 km/h (1 Bft) SW 219 0 min 0,000 mm 0,0 UV-I 0 W/m -6,3 C -5,2 C 3,2 km/h (1 Bft) 91,49 %
20.01.2019 18:44 -5,2 C 3,9 C -7,8 C 92 % 1018,5 hPa 0,0 l/m 1,6 km/h (1 Bft) SW 219 0 min 0,000 mm 0,0 UV-I 0 W/m -6,3 C -5,2 C 1,6 km/h (1 Bft) 95,83 %
20.01.2019 18:46 -5,2 C 3,9 C -7,8 C 92 % 1018,5 hPa 0,0 l/m 1,5 km/h (1 Bft) SW 219 0 min 0,000 mm 0,0 UV-I 0 W/m -6,3 C -5,2 C 1,6 km/h (1 Bft) 93,62 %
20.01.2019 18:48 -5,2 C 3,9 C -7,8 C 92 % 1018,6 hPa 0,0 l/m 1,4 km/h (1 Bft) SW 219 0 min 0,000 mm 0,0 UV-I 0 W/m -6,3 C -5,2 C 1,6 km/h (1 Bft) 94,00 %
20.01.2019 18:50 -5,3 C 3,9 C -7,8 C 92 % 1018,5 hPa 0,0 l/m 1,1 km/h (1 Bft) SW 219 0 min 0,000 mm 0,0 UV-I 0 W/m -6,4 C -5,3 C 1,6 km/h (1 Bft) 96,00 %
20.01.2019 18:52 -5,3 C 3,9 C -8,3 C 92 % 1018,6 hPa 0,0 l/m 0,7 km/h (0 Bft) SW 219 0 min 0,000 mm 0,0 UV-I 0 W/m -6,4 C -5,3 C 1,6 km/h (1 Bft) 97,87 %
20.01.2019 18:54 -5,3 C 3,9 C -8,3 C 92 % 1018,6 hPa 0,0 l/m 0,5 km/h (0 Bft) SW 219 0 min 0,000 mm 0,0 UV-I 0 W/m -6,4 C -5,3 C 1,6 km/h (1 Bft) 93,62 %
20.01.2019 18:56 -5,3 C 3,9 C -8,3 C 92 % 1018,6 hPa 0,0 l/m 0,1 km/h (0 Bft) SW 219 0 min 0,000 mm 0,0 UV-I 0 W/m -6,4 C -5,3 C 1,6 km/h (1 Bft) 97,56 %
20.01.2019 18:58 -5,3 C 3,9 C -8,3 C 92 % 1018,7 hPa 0,0 l/m 0,7 km/h (0 Bft) SW 219 0 min 0,000 mm 0,0 UV-I 0 W/m -6,4 C -5,3 C 1,6 km/h (1 Bft) 96,00 %
20.01.2019 19:00 -5,2 C 3,9 C -7,8 C 92 % 1018,7 hPa 0,0 l/m 2,0 km/h (1 Bft) SW 219 0 min 0,000 mm 0,0 UV-I 0 W/m -6,3 C -5,2 C 3,2 km/h (1 Bft) 93,62 %
20.01.2019 19:02 -5,2 C 3,9 C -7,8 C 92 % 1018,8 hPa 0,0 l/m 2,8 km/h (1 Bft) SW 219 0 min 0,000 mm 0,0 UV-I 0 W/m -6,3 C -5,2 C 3,2 km/h (1 Bft) 97,87 %
20.01.2019 19:04 -5,2 C 3,9 C -7,2 C 92 % 1018,8 hPa 0,0 l/m 2,0 km/h (1 Bft) SW 219 0 min 0,000 mm 0,0 UV-I 0 W/m -6,3 C -5,2 C 3,2 km/h (1 Bft) 97,87 %
20.01.2019 19:06 -5,2 C 3,9 C -7,2 C 92 % 1018,8 hPa 0,0 l/m 2,1 km/h (1 Bft) SW 219 0 min 0,000 mm 0,0 UV-I 0 W/m -6,3 C -5,2 C 3,2 km/h (1 Bft) 96,00 %
20.01.2019 19:08 -5,1 C 3,9 C -6,7 C 92 % 1018,8 hPa 0,0 l/m 1,8 km/h (1 Bft) SW 219 0 min 0,000 mm 0,0 UV-I 0 W/m -6,2 C -5,1 C 3,2 km/h (1 Bft) 97,87 %
20.01.2019 19:10 -5,1 C 3,9 C -6,7 C 92 % 1018,9 hPa 0,0 l/m 1,2 km/h (1 Bft) SW 219 0 min 0,000 mm 0,0 UV-I 0 W/m -6,2 C -5,1 C 1,6 km/h (1 Bft) 95,74 %
20.01.2019 19:12 -5,1 C 3,9 C -7,2 C 92 % 1018,8 hPa 0,0 l/m 0,6 km/h (0 Bft) SW 219 0 min 0,000 mm 0,0 UV-I 0 W/m -6,2 C -5,1 C 1,6 km/h (1 Bft) 95,74 %
20.01.2019 19:14 -5,1 C 3,9 C -7,2 C 92 % 1018,9 hPa 0,0 l/m 0,7 km/h (0 Bft) SW 219 0 min 0,000 mm 0,0 UV-I 0 W/m -6,2 C -5,1 C 1,6 km/h (1 Bft) 89,36 %
20.01.2019 19:16 -5,1 C 3,9 C -6,7 C 92 % 1018,9 hPa 0,0 l/m 0,6 km/h (0 Bft) SW 219 0 min 0,000 mm 0,0 UV-I 0 W/m -6,2 C -5,1 C 1,6 km/h (1 Bft) 95,12 %
20.01.2019 19:18 -5,1 C 3,9 C -6,7 C 92 % 1018,9 hPa 0,0 l/m 0,6 km/h (0 Bft) SW 219 0 min 0,000 mm 0,0 UV-I 0 W/m -6,2 C -5,1 C 1,6 km/h (1 Bft) 93,62 %
20.01.2019 19:20 -5,1 C 3,9 C -6,7 C 92 % 1018,9 hPa 0,0 l/m 0,9 km/h (0 Bft) SW 219 0 min 0,000 mm 0,0 UV-I 0 W/m -6,2 C -5,1 C 1,6 km/h (1 Bft) 96,00 %
20.01.2019 19:22 -5,1 C 3,9 C -6,1 C 92 % 1018,9 hPa 0,0 l/m 0,9 km/h (0 Bft) SW 219 0 min 0,000 mm 0,0 UV-I 0 W/m -6,2 C -5,1 C 1,6 km/h (1 Bft) 92,00 %
20.01.2019 19:24 -5,1 C 3,9 C -6,1 C 92 % 1018,9 hPa 0,0 l/m 0,8 km/h (0 Bft) SW 219 0 min 0,000 mm 0,0 UV-I 0 W/m -6,2 C -5,1 C 1,6 km/h (1 Bft) 95,74 %
20.01.2019 19:26 -5,1 C 3,9 C -6,1 C 92 % 1018,9 hPa 0,0 l/m 0,2 km/h (0 Bft) SW 219 0 min 0,000 mm 0,0 UV-I 0 W/m -6,2 C -5,1 C 1,6 km/h (1 Bft) 95,74 %
20.01.2019 19:28 -5,1 C 3,9 C -6,1 C 92 % 1018,9 hPa 0,0 l/m 0,7 km/h (0 Bft) SW 219 0 min 0,000 mm 0,0 UV-I 0 W/m -6,2 C -5,1 C 1,6 km/h (1 Bft) 94,44 %
20.01.2019 19:30 -5,0 C 3,9 C -5,6 C 92 % 1018,8 hPa 0,0 l/m 2,0 km/h (1 Bft) SW 219 0 min 0,000 mm 0,0 UV-I 0 W/m -6,1 C -5,0 C 3,2 km/h (1 Bft) 95,74 %
20.01.2019 19:32 -4,8 C 3,9 C -5,6 C 92 % 1018,8 hPa 0,0 l/m 2,1 km/h (1 Bft) SW 219 0 min 0,000 mm 0,0 UV-I 0 W/m -5,9 C -4,8 C 3,2 km/h (1 Bft) 93,62 %
20.01.2019 19:34 -4,8 C 3,9 C -5,6 C 92 % 1018,9 hPa 0,0 l/m 2,0 km/h (1 Bft) SW 219 0 min 0,000 mm 0,0 UV-I 0 W/m -5,9 C -4,8 C 3,2 km/h (1 Bft) 98,00 %
20.01.2019 19:36 -4,7 C 3,9 C -5,0 C 92 % 1018,9 hPa 0,0 l/m 0,8 km/h (0 Bft) SW 219 0 min 0,000 mm 0,0 UV-I 0 W/m -5,8 C -4,7 C 1,6 km/h (1 Bft) 94,00 %
20.01.2019 19:38 -4,6 C 3,9 C -5,0 C 93 % 1019,0 hPa 0,0 l/m 0,0 km/h (0 Bft) SW 219 0 min 0,000 mm 0,0 UV-I 0 W/m -5,6 C -4,6 C 0,0 km/h (0 Bft) 98,00 %
20.01.2019 19:40 -4,6 C 3,9 C -5,0 C 92 % 1018,9 hPa 0,0 l/m 1,1 km/h (1 Bft) SW 219 0 min 0,000 mm 0,0 UV-I 0 W/m -5,7 C -4,6 C 1,6 km/h (1 Bft) 93,62 %
20.01.2019 19:42 -4,7 C 3,9 C -5,0 C 92 % 1019,0 hPa 0,0 l/m 1,2 km/h (1 Bft) SW 219 0 min 0,000 mm 0,0 UV-I 0 W/m -5,8 C -4,7 C 1,6 km/h (1 Bft) 95,74 %
20.01.2019 19:44 -4,7 C 3,9 C -5,0 C 92 % 1019,1 hPa 0,0 l/m 1,2 km/h (1 Bft) SW 219 0 min 0,000 mm 0,0 UV-I 0 W/m -5,8 C -4,7 C 1,6 km/h (1 Bft) 93,62 %
20.01.2019 19:46 -4,7 C 3,9 C -5,0 C 92 % 1019,0 hPa 0,0 l/m 0,3 km/h (0 Bft) SW 219 0 min 0,000 mm 0,0 UV-I 0 W/m -5,8 C -4,7 C 1,6 km/h (1 Bft) 95,74 %
20.01.2019 19:48 -4,8 C 3,9 C -5,0 C 92 % 1019,0 hPa 0,0 l/m 0,0 km/h (0 Bft) SW 219 0 min 0,000 mm 0,0 UV-I 0 W/m -5,9 C -4,8 C 0,0 km/h (0 Bft) 97,87 %
20.01.2019 19:50 -4,8 C 3,9 C -5,0 C 92 % 1019,0 hPa 0,0 l/m 0,0 km/h (0 Bft) SW 219 0 min 0,000 mm 0,0 UV-I 0 W/m -5,9 C -4,8 C 0,0 km/h (0 Bft) 95,74 %
20.01.2019 19:52 -4,7 C 3,9 C -5,0 C 92 % 1019,1 hPa 0,0 l/m 0,3 km/h (0 Bft) SW 219 0 min 0,000 mm 0,0 UV-I 0 W/m -5,8 C -4,7 C 1,6 km/h (1 Bft) 97,87 %
20.01.2019 19:54 -4,7 C 3,9 C -5,0 C 92 % 1019,0 hPa 0,0 l/m 0,2 km/h (0 Bft) SW 219 0 min 0,000 mm 0,0 UV-I 0 W/m -5,8 C -4,7 C 1,6 km/h (1 Bft) 97,37 %
20.01.2019 19:56 -4,6 C 3,9 C -4,4 C 92 % 1019,1 hPa 0,0 l/m 0,5 km/h (0 Bft) SW 219 0 min 0,000 mm 0,0 UV-I 0 W/m -5,7 C -4,6 C 1,6 km/h (1 Bft) 97,87 %
20.01.2019 19:58 -4,5 C 3,9 C -4,4 C 92 % 1019,1 hPa 0,0 l/m 1,4 km/h (1 Bft) SW 219 0 min 0,000 mm 0,0 UV-I 0 W/m -5,6 C -4,5 C 1,6 km/h (1 Bft) 87,23 %
20.01.2019 20:00 -4,5 C 3,9 C -4,4 C 92 % 1019,1 hPa 0,0 l/m 0,8 km/h (0 Bft) SW 219 0 min 0,000 mm 0,0 UV-I 0 W/m -5,6 C -4,5 C 1,6 km/h (1 Bft) 98,00 %
20.01.2019 20:02 -4,5 C 3,9 C -4,4 C 92 % 1019,1 hPa 0,0 l/m 0,1 km/h (0 Bft) SW 219 0 min 0,000 mm 0,0 UV-I 0 W/m -5,6 C -4,5 C 1,6 km/h (1 Bft) 100,00 %
20.01.2019 20:04 -4,4 C 3,9 C -4,4 C 92 % 1019,0 hPa 0,0 l/m 1,9 km/h (1 Bft) SW 219 0 min 0,000 mm 0,0 UV-I 0 W/m -5,5 C -4,4 C 3,2 km/h (1 Bft) 100,00 %
20.01.2019 20:06 -4,4 C 3,9 C -4,4 C 92 % 1019,1 hPa 0,0 l/m 3,1 km/h (1 Bft) O 89 0 min 0,000 mm 0,0 UV-I 0 W/m -5,5 C -4,4 C 4,8 km/h (1 Bft) 93,75 %
20.01.2019 20:08 -4,3 C 3,9 C -4,4 C 93 % 1019,1 hPa 0,0 l/m 1,5 km/h (1 Bft) O 89 0 min 0,000 mm 0,0 UV-I 0 W/m -5,3 C -4,3 C 3,2 km/h (1 Bft) 100,00 %
20.01.2019 20:10 -4,3 C 3,9 C -4,4 C 92 % 1019,1 hPa 0,0 l/m 0,0 km/h (0 Bft) O 89 0 min 0,000 mm 0,0 UV-I 0 W/m -5,4 C -4,3 C 1,6 km/h (1 Bft) 100,00 %
20.01.2019 20:12 -4,3 C 3,9 C -4,4 C 92 % 1019,1 hPa 0,0 l/m 0,1 km/h (0 Bft) O 89 0 min 0,000 mm 0,0 UV-I 0 W/m -5,4 C -4,3 C 1,6 km/h (1 Bft) 97,87 %
20.01.2019 20:14 -4,2 C 3,9 C -4,4 C 92 % 1019,1 hPa 0,0 l/m 0,6 km/h (0 Bft) O 89 0 min 0,000 mm 0,0 UV-I 0 W/m -5,3 C -4,2 C 1,6 km/h (1 Bft) 100,00 %
20.01.2019 20:16 -4,2 C 3,9 C -5,0 C 92 % 1019,1 hPa 0,0 l/m 1,0 km/h (0 Bft) O 89 0 min 0,000 mm 0,0 UV-I 0 W/m -5,3 C -4,2 C 1,6 km/h (1 Bft) 100,00 %
20.01.2019 20:18 -4,2 C 3,9 C -5,0 C 92 % 1019,2 hPa 0,0 l/m 0,1 km/h (0 Bft) O 89 0 min 0,000 mm 0,0 UV-I 0 W/m -5,3 C -4,2 C 1,6 km/h (1 Bft) 100,00 %
20.01.2019 20:20 -4,2 C 3,9 C -5,0 C 92 % 1019,2 hPa 0,0 l/m 0,0 km/h (0 Bft) O 89 0 min 0,000 mm 0,0 UV-I 0 W/m -5,3 C -4,2 C 0,0 km/h (0 Bft) 100,00 %
20.01.2019 20:22 -4,2 C 3,9 C -5,0 C 92 % 1019,2 hPa 0,0 l/m 1,2 km/h (1 Bft) O 89 0 min 0,000 mm 0,0 UV-I 0 W/m -5,3 C -4,2 C 3,2 km/h (1 Bft) 97,37 %
20.01.2019 20:24 -4,3 C 3,9 C -5,0 C 92 % 1019,2 hPa 0,0 l/m 1,2 km/h (1 Bft) O 89 0 min 0,000 mm 0,0 UV-I 0 W/m -5,4 C -4,3 C 1,6 km/h (1 Bft) 100,00 %
20.01.2019 20:26 -4,4 C 3,9 C -5,0 C 92 % 1019,3 hPa 0,0 l/m 1,9 km/h (1 Bft) O 89 0 min 0,000 mm 0,0 UV-I 0 W/m -5,5 C -4,4 C 3,2 km/h (1 Bft) 100,00 %
20.01.2019 20:28 -4,4 C 3,9 C -5,0 C 92 % 1019,3 hPa 0,0 l/m 3,2 km/h (1 Bft) S-SW 202 0 min 0,000 mm 0,0 UV-I 0 W/m -5,5 C -4,4 C 4,8 km/h (1 Bft) 100,00 %
20.01.2019 20:30 -4,5 C 3,9 C -5,0 C 92 % 1019,3 hPa 0,0 l/m 2,4 km/h (1 Bft) S-SW 202 0 min 0,000 mm 0,0 UV-I 0 W/m -5,6 C -4,5 C 4,8 km/h (1 Bft) 100,00 %
20.01.2019 20:32 -4,4 C 3,9 C -4,4 C 92 % 1019,3 hPa 0,0 l/m 0,7 km/h (0 Bft) S-SW 202 0 min 0,000 mm 0,0 UV-I 0 W/m -5,5 C -4,4 C 1,6 km/h (1 Bft) 97,87 %
20.01.2019 20:34 -4,4 C 3,9 C -4,4 C 92 % 1019,3 hPa 0,0 l/m 0,0 km/h (0 Bft) S-SW 202 0 min 0,000 mm 0,0 UV-I 0 W/m -5,5 C -4,4 C 0,0 km/h (0 Bft) 100,00 %
20.01.2019 20:36 -4,4 C 3,9 C -4,4 C 92 % 1019,3 hPa 0,0 l/m 0,3 km/h (0 Bft) S-SW 202 0 min 0,000 mm 0,0 UV-I 0 W/m -5,5 C -4,4 C 1,6 km/h (1 Bft) 98,00 %
20.01.2019 20:38 -4,3 C 3,9 C -4,4 C 92 % 1019,4 hPa 0,0 l/m 0,1 km/h (0 Bft) S-SW 202 0 min 0,000 mm 0,0 UV-I 0 W/m -5,4 C -4,3 C 1,6 km/h (1 Bft) 97,87 %
20.01.2019 20:40 -4,3 C 3,9 C -4,4 C 92 % 1019,3 hPa 0,0 l/m 0,0 km/h (0 Bft) S-SW 202 0 min 0,000 mm 0,0 UV-I 0 W/m -5,4 C -4,3 C 0,0 km/h (0 Bft) 100,00 %
20.01.2019 20:42 -4,3 C 3,9 C -4,4 C 92 % 1019,4 hPa 0,0 l/m 0,0 km/h (0 Bft) S-SW 202 0 min 0,000 mm 0,0 UV-I 0 W/m -5,4 C -4,3 C 0,0 km/h (0 Bft) 95,74 %
20.01.2019 20:44 -4,3 C 3,9 C -4,4 C 92 % 1019,4 hPa 0,0 l/m 0,1 km/h (0 Bft) S-SW 202 0 min 0,000 mm 0,0 UV-I 0 W/m -5,4 C -4,3 C 1,6 km/h (1 Bft) 100,00 %
20.01.2019 20:46 -4,3 C 3,9 C -4,4 C 92 % 1019,5 hPa 0,0 l/m 0,5 km/h (0 Bft) S-SW 202 0 min 0,000 mm 0,0 UV-I 0 W/m -5,4 C -4,3 C 1,6 km/h (1 Bft) 98,00 %
20.01.2019 20:48 -4,2 C 3,9 C -4,4 C 92 % 1019,5 hPa 0,0 l/m 0,0 km/h (0 Bft) S-SW 202 0 min 0,000 mm 0,0 UV-I 0 W/m -5,3 C -4,2 C 0,0 km/h (0 Bft) 97,87 %
20.01.2019 20:50 -4,2 C 3,9 C -4,4 C 92 % 1019,4 hPa 0,0 l/m 0,7 km/h (0 Bft) S-SW 202 0 min 0,000 mm 0,0 UV-I 0 W/m -5,3 C -4,2 C 1,6 km/h (1 Bft) 100,00 %
20.01.2019 20:52 -4,2 C 3,9 C -4,4 C 92 % 1019,5 hPa 0,0 l/m 1,2 km/h (1 Bft) S-SW 202 0 min 0,000 mm 0,0 UV-I 0 W/m -5,3 C -4,2 C 3,2 km/h (1 Bft) 98,00 %
20.01.2019 20:54 -4,1 C 3,9 C -4,4 C 92 % 1019,5 hPa 0,0 l/m 1,0 km/h (0 Bft) S-SW 202 0 min 0,000 mm 0,0 UV-I 0 W/m -5,2 C -4,1 C 1,6 km/h (1 Bft) 95,74 %
20.01.2019 20:56 -4,1 C 3,9 C -3,9 C 92 % 1019,5 hPa 0,0 l/m 1,0 km/h (0 Bft) S-SW 202 0 min 0,000 mm 0,0 UV-I 0 W/m -5,2 C -4,1 C 1,6 km/h (1 Bft) 97,87 %
20.01.2019 20:58 -4,0 C 3,9 C -3,9 C 93 % 1019,5 hPa 0,0 l/m 1,4 km/h (1 Bft) S-SW 202 0 min 0,000 mm 0,0 UV-I 0 W/m -5,0 C -4,0 C 3,2 km/h (1 Bft) 95,74 %
20.01.2019 21:00 -4,0 C 3,9 C -3,9 C 93 % 1019,5 hPa 0,0 l/m 2,0 km/h (1 Bft) S-SW 202 0 min 0,000 mm 0,0 UV-I 0 W/m -5,0 C -4,0 C 3,2 km/h (1 Bft) 95,74 %
20.01.2019 21:02 -4,0 C 3,9 C -3,9 C 92 % 1019,5 hPa 0,0 l/m 1,0 km/h (0 Bft) S-SW 202 0 min 0,000 mm 0,0 UV-I 0 W/m -5,1 C -4,0 C 3,2 km/h (1 Bft) 95,74 %
20.01.2019 21:04 -4,0 C 3,9 C -3,9 C 92 % 1019,5 hPa 0,0 l/m 2,1 km/h (1 Bft) S-SW 202 0 min 0,000 mm 0,0 UV-I 0 W/m -5,1 C -4,0 C 3,2 km/h (1 Bft) 97,87 %
20.01.2019 21:06 -4,0 C 3,9 C -3,9 C 92 % 1019,5 hPa 0,0 l/m 1,8 km/h (1 Bft) S-SW 202 0 min 0,000 mm 0,0 UV-I 0 W/m -5,1 C -4,0 C 3,2 km/h (1 Bft) 97,87 %
20.01.2019 21:08 -4,0 C 3,9 C -3,9 C 92 % 1019,5 hPa 0,0 l/m 1,1 km/h (1 Bft) S-SW 202 0 min 0,000 mm 0,0 UV-I 0 W/m -5,1 C -4,0 C 3,2 km/h (1 Bft) 95,74 %
20.01.2019 21:10 -4,0 C 3,9 C -3,9 C 92 % 1019,5 hPa 0,0 l/m 0,5 km/h (0 Bft) S-SW 202 0 min 0,000 mm 0,0 UV-I 0 W/m -5,1 C -4,0 C 1,6 km/h (1 Bft) 97,87 %
20.01.2019 21:12 -4,0 C 3,9 C -3,9 C 92 % 1019,5 hPa 0,0 l/m 0,0 km/h (0 Bft) S-SW 202 0 min 0,000 mm 0,0 UV-I 0 W/m -5,1 C -4,0 C 0,0 km/h (0 Bft) 100,00 %
20.01.2019 21:14 -3,9 C 3,9 C -3,9 C 92 % 1019,6 hPa 0,0 l/m 0,5 km/h (0 Bft) S-SW 202 0 min 0,000 mm 0,0 UV-I 0 W/m -5,0 C -3,9 C 1,6 km/h (1 Bft) 100,00 %
20.01.2019 21:16 -3,9 C 3,9 C -3,9 C 92 % 1019,6 hPa 0,0 l/m 1,3 km/h (1 Bft) S-SW 202 0 min 0,000 mm 0,0 UV-I 0 W/m -5,0 C -3,9 C 1,6 km/h (1 Bft) 95,74 %
20.01.2019 21:18 -3,9 C 3,9 C -3,9 C 92 % 1019,6 hPa 0,0 l/m 1,1 km/h (1 Bft) S-SW 202 0 min 0,000 mm 0,0 UV-I 0 W/m -5,0 C -3,9 C 1,6 km/h (1 Bft) 100,00 %
20.01.2019 21:20 -3,8 C 3,9 C -3,9 C 92 % 1019,7 hPa 0,0 l/m 0,7 km/h (0 Bft) S-SW 202 0 min 0,000 mm 0,0 UV-I 0 W/m -4,9 C -3,8 C 1,6 km/h (1 Bft) 100,00 %
20.01.2019 21:22 -3,9 C 3,9 C -3,9 C 92 % 1019,7 hPa 0,0 l/m 1,0 km/h (0 Bft) S-SW 202 0 min 0,000 mm 0,0 UV-I 0 W/m -5,0 C -3,9 C 1,6 km/h (1 Bft) 93,62 %
20.01.2019 21:24 -3,9 C 3,9 C -3,9 C 92 % 1019,7 hPa 0,0 l/m 1,3 km/h (1 Bft) S-SW 202 0 min 0,000 mm 0,0 UV-I 0 W/m -5,0 C -3,9 C 3,2 km/h (1 Bft) 97,37 %
20.01.2019 21:26 -3,9 C 3,9 C -3,9 C 92 % 1019,7 hPa 0,0 l/m 0,2 km/h (0 Bft) S-SW 202 0 min 0,000 mm 0,0 UV-I 0 W/m -5,0 C -3,9 C 1,6 km/h (1 Bft) 97,87 %
20.01.2019 21:28 -3,9 C 3,9 C -3,9 C 92 % 1019,8 hPa 0,0 l/m 0,7 km/h (0 Bft) S-SW 202 0 min 0,000 mm 0,0 UV-I 0 W/m -5,0 C -3,9 C 3,2 km/h (1 Bft) 93,75 %
20.01.2019 21:30 -3,9 C 3,9 C -3,9 C 92 % 1019,8 hPa 0,0 l/m 1,6 km/h (1 Bft) S-SW 202 0 min 0,000 mm 0,0 UV-I 0 W/m -5,0 C -3,9 C 3,2 km/h (1 Bft) 97,87 %
20.01.2019 21:32 -3,9 C 3,9 C -3,9 C 92 % 1019,8 hPa 0,0 l/m 1,2 km/h (1 Bft) S-SW 202 0 min 0,000 mm 0,0 UV-I 0 W/m -5,0 C -3,9 C 1,6 km/h (1 Bft) 97,87 %
20.01.2019 21:34 -3,9 C 3,9 C -3,9 C 92 % 1019,9 hPa 0,0 l/m 1,0 km/h (0 Bft) S-SW 202 0 min 0,000 mm 0,0 UV-I 0 W/m -5,0 C -3,9 C 1,6 km/h (1 Bft) 95,74 %
20.01.2019 21:36 -3,9 C 3,9 C -3,9 C 92 % 1019,9 hPa 0,0 l/m 1,2 km/h (1 Bft) S-SW 202 0 min 0,000 mm 0,0 UV-I 0 W/m -5,0 C -3,9 C 1,6 km/h (1 Bft) 93,62 %
20.01.2019 21:38 -4,0 C 3,9 C -3,9 C 92 % 1019,9 hPa 0,0 l/m 0,2 km/h (0 Bft) S-SW 202 0 min 0,000 mm 0,0 UV-I 0 W/m -5,1 C -4,0 C 1,6 km/h (1 Bft) 97,87 %
20.01.2019 21:40 -3,9 C 3,9 C -3,9 C 92 % 1019,9 hPa 0,0 l/m 0,9 km/h (0 Bft) S-SW 202 0 min 0,000 mm 0,0 UV-I 0 W/m -5,0 C -3,9 C 1,6 km/h (1 Bft) 96,00 %
20.01.2019 21:42 -3,9 C 3,9 C -3,9 C 92 % 1019,9 hPa 0,0 l/m 0,8 km/h (0 Bft) S-SW 202 0 min 0,000 mm 0,0 UV-I 0 W/m -5,0 C -3,9 C 1,6 km/h (1 Bft) 97,87 %
20.01.2019 21:44 -3,9 C 3,9 C -3,9 C 92 % 1019,9 hPa 0,0 l/m 1,2 km/h (1 Bft) S-SW 202 0 min 0,000 mm 0,0 UV-I 0 W/m -5,0 C -3,9 C 3,2 km/h (1 Bft) 98,00 %
20.01.2019 21:46 -3,9 C 3,9 C -3,9 C 92 % 1019,9 hPa 0,0 l/m 1,9 km/h (1 Bft) S-SW 202 0 min 0,000 mm 0,0 UV-I 0 W/m -5,0 C -3,9 C 3,2 km/h (1 Bft) 95,74 %
20.01.2019 21:48 -3,9 C 3,9 C -3,9 C 92 % 1019,9 hPa 0,0 l/m 2,6 km/h (1 Bft) S-SW 202 0 min 0,000 mm 0,0 UV-I 0 W/m -5,0 C -3,9 C 3,2 km/h (1 Bft) 93,62 %
20.01.2019 21:50 -3,9 C 3,9 C -4,4 C 92 % 1019,8 hPa 0,0 l/m 2,2 km/h (1 Bft) S-SW 202 0 min 0,000 mm 0,0 UV-I 0 W/m -5,0 C -3,9 C 3,2 km/h (1 Bft) 97,87 %
20.01.2019 21:52 -3,9 C 3,9 C -4,4 C 92 % 1019,8 hPa 0,0 l/m 3,0 km/h (1 Bft) O 93 0 min 0,000 mm 0,0 UV-I 0 W/m -5,0 C -3,9 C 4,8 km/h (1 Bft) 93,62 %
20.01.2019 21:54 -3,9 C 3,9 C -4,4 C 92 % 1019,8 hPa 0,0 l/m 3,7 km/h (1 Bft) O 93 0 min 0,000 mm 0,0 UV-I 0 W/m -5,0 C -3,9 C 4,8 km/h (1 Bft) 97,87 %
20.01.2019 21:56 -3,9 C 3,9 C -4,4 C 92 % 1019,9 hPa 0,0 l/m 3,0 km/h (1 Bft) O 93 0 min 0,000 mm 0,0 UV-I 0 W/m -5,0 C -3,9 C 3,2 km/h (1 Bft) 97,37 %
20.01.2019 21:58 -3,9 C 3,9 C -4,4 C 92 % 1019,9 hPa 0,0 l/m 2,4 km/h (1 Bft) O 93 0 min 0,000 mm 0,0 UV-I 0 W/m -5,0 C -3,9 C 3,2 km/h (1 Bft) 97,87 %
20.01.2019 22:00 -3,9 C 3,9 C -4,4 C 92 % 1019,9 hPa 0,0 l/m 1,9 km/h (1 Bft) O 93 0 min 0,000 mm 0,0 UV-I 0 W/m -5,0 C -3,9 C 3,2 km/h (1 Bft) 95,74 %
20.01.2019 22:02 -3,9 C 3,9 C -4,4 C 92 % 1019,9 hPa 0,0 l/m 2,5 km/h (1 Bft) O 93 0 min 0,000 mm 0,0 UV-I 0 W/m -5,0 C -3,9 C 3,2 km/h (1 Bft) 97,87 %
20.01.2019 22:04 -4,0 C 3,9 C -4,4 C 92 % 1019,9 hPa 0,0 l/m 3,2 km/h (1 Bft) O 93 0 min 0,000 mm 0,0 UV-I 0 W/m -5,1 C -4,0 C 4,8 km/h (1 Bft) 97,87 %
20.01.2019 22:06 -4,1 C 3,9 C -4,4 C 92 % 1019,9 hPa 0,0 l/m 3,6 km/h (1 Bft) O 93 0 min 0,000 mm 0,0 UV-I 0 W/m -5,2 C -4,1 C 4,8 km/h (1 Bft) 96,00 %
20.01.2019 22:08 -4,1 C 3,9 C -4,4 C 92 % 1019,9 hPa 0,0 l/m 3,5 km/h (1 Bft) O 93 0 min 0,000 mm 0,0 UV-I 0 W/m -5,2 C -4,1 C 4,8 km/h (1 Bft) 93,62 %
20.01.2019 22:10 -4,1 C 3,9 C -4,4 C 92 % 1019,9 hPa 0,0 l/m 2,9 km/h (1 Bft) O 93 0 min 0,000 mm 0,0 UV-I 0 W/m -5,2 C -4,1 C 4,8 km/h (1 Bft) 96,00 %
20.01.2019 22:12 -4,1 C 3,9 C -4,4 C 92 % 1020,0 hPa 0,0 l/m 2,6 km/h (1 Bft) O 93 0 min 0,000 mm 0,0 UV-I 0 W/m -5,2 C -4,1 C 3,2 km/h (1 Bft) 95,74 %
20.01.2019 22:14 -4,1 C 3,9 C -4,4 C 92 % 1020,0 hPa 0,0 l/m 1,8 km/h (1 Bft) O 93 0 min 0,000 mm 0,0 UV-I 0 W/m -5,2 C -4,1 C 3,2 km/h (1 Bft) 91,67 %
20.01.2019 22:16 -4,1 C 3,9 C -4,4 C 92 % 1020,0 hPa 0,0 l/m 2,2 km/h (1 Bft) O 93 0 min 0,000 mm 0,0 UV-I 0 W/m -5,2 C -4,1 C 3,2 km/h (1 Bft) 95,74 %
20.01.2019 22:19 -4,1 C 3,9 C -4,4 C 92 % 1020,1 hPa 0,0 l/m 2,6 km/h (1 Bft) O 93 0 min 0,000 mm 0,0 UV-I 0 W/m -5,2 C -4,1 C 4,8 km/h (1 Bft) 95,89 %
20.01.2019 22:20 -4,1 C 3,9 C -4,4 C 92 % 1020,1 hPa 0,0 l/m 2,5 km/h (1 Bft) O 93 0 min 0,000 mm 0,0 UV-I 0 W/m -5,2 C -4,1 C 3,2 km/h (1 Bft) 100,00 %
20.01.2019 22:22 -4,1 C 3,9 C -4,4 C 93 % 1020,1 hPa 0,0 l/m 2,5 km/h (1 Bft) O 93 0 min 0,000 mm 0,0 UV-I 0 W/m -5,1 C -4,1 C 3,2 km/h (1 Bft) 91,49 %
20.01.2019 22:24 -4,1 C 3,9 C -4,4 C 92 % 1020,1 hPa 0,0 l/m 2,5 km/h (1 Bft) O 93 0 min 0,000 mm 0,0 UV-I 0 W/m -5,2 C -4,1 C 3,2 km/h (1 Bft) 95,74 %
20.01.2019 22:26 -4,1 C 3,9 C -4,4 C 92 % 1020,1 hPa 0,0 l/m 2,8 km/h (1 Bft) O 93 0 min 0,000 mm 0,0 UV-I 0 W/m -5,2 C -4,1 C 3,2 km/h (1 Bft) 97,87 %
20.01.2019 22:29 -4,1 C 3,9 C -4,4 C 92 % 1020,2 hPa 0,0 l/m 2,6 km/h (1 Bft) O 93 0 min 0,000 mm 0,0 UV-I 0 W/m -5,2 C -4,1 C 4,8 km/h (1 Bft) 98,59 %
20.01.2019 22:30 -4,1 C 3,9 C -4,4 C 92 % 1020,2 hPa 0,0 l/m 2,0 km/h (1 Bft) O 93 0 min 0,000 mm 0,0 UV-I 0 W/m -5,2 C -4,1 C 3,2 km/h (1 Bft) 95,65 %
20.01.2019 22:32 -4,2 C 3,9 C -4,4 C 92 % 1020,3 hPa 0,0 l/m 1,8 km/h (1 Bft) O 93 0 min 0,000 mm 0,0 UV-I 0 W/m -5,3 C -4,2 C 3,2 km/h (1 Bft) 95,74 %
20.01.2019 22:34 -4,2 C 3,9 C -4,4 C 93 % 1020,3 hPa 0,0 l/m 2,9 km/h (1 Bft) O 93 0 min 0,000 mm 0,0 UV-I 0 W/m -5,2 C -4,2 C 3,2 km/h (1 Bft) 98,00 %
20.01.2019 22:36 -4,2 C 3,9 C -4,4 C 93 % 1020,3 hPa 0,0 l/m 3,4 km/h (1 Bft) O 93 0 min 0,000 mm 0,0 UV-I 0 W/m -5,2 C -4,2 C 4,8 km/h (1 Bft) 97,87 %
20.01.2019 22:39 -4,2 C 3,9 C -4,4 C 93 % 1020,3 hPa 0,0 l/m 3,3 km/h (1 Bft) O 93 0 min 0,000 mm 0,0 UV-I 0 W/m -5,2 C -4,2 C 4,8 km/h (1 Bft) 94,59 %
20.01.2019 22:40 -4,2 C 3,9 C -4,4 C 93 % 1020,3 hPa 0,0 l/m 2,8 km/h (1 Bft) O 93 0 min 0,000 mm 0,0 UV-I 0 W/m -5,2 C -4,2 C 3,2 km/h (1 Bft) 100,00 %
20.01.2019 22:42 -4,2 C 3,9 C -4,4 C 93 % 1020,3 hPa 0,0 l/m 1,9 km/h (1 Bft) O 93 0 min 0,000 mm 0,0 UV-I 0 W/m -5,2 C -4,2 C 3,2 km/h (1 Bft) 98,00 %
20.01.2019 22:44 -4,2 C 3,9 C -4,4 C 93 % 1020,4 hPa 0,0 l/m 3,5 km/h (1 Bft) O-NO 76 0 min 0,000 mm 0,0 UV-I 0 W/m -5,2 C -4,2 C 4,8 km/h (1 Bft) 93,62 %
20.01.2019 22:46 -4,2 C 3,9 C -4,4 C 93 % 1020,4 hPa 0,0 l/m 2,1 km/h (1 Bft) O-NO 76 0 min 0,000 mm 0,0 UV-I 0 W/m -5,2 C -4,2 C 3,2 km/h (1 Bft) 97,87 %
20.01.2019 22:49 -4,2 C 3,9 C -4,4 C 93 % 1020,4 hPa 0,0 l/m 3,4 km/h (1 Bft) NO 53 0 min 0,000 mm 0,0 UV-I 0 W/m -5,2 C -4,2 C 4,8 km/h (1 Bft) 95,77 %
20.01.2019 22:50 -4,2 C 3,9 C -4,4 C 93 % 1020,4 hPa 0,0 l/m 3,3 km/h (1 Bft) NO 53 0 min 0,000 mm 0,0 UV-I 0 W/m -5,2 C -4,2 C 4,8 km/h (1 Bft) 95,65 %
20.01.2019 22:52 -4,2 C 3,9 C -4,4 C 93 % 1020,4 hPa 0,0 l/m 3,3 km/h (1 Bft) NO 53 0 min 0,000 mm 0,0 UV-I 0 W/m -5,2 C -4,2 C 6,4 km/h (2 Bft) 95,83 %
20.01.2019 22:54 -4,2 C 3,9 C -4,4 C 93 % 1020,4 hPa 0,0 l/m 2,9 km/h (1 Bft) NO 53 0 min 0,000 mm 0,0 UV-I 0 W/m -5,2 C -4,2 C 4,8 km/h (1 Bft) 95,74 %
20.01.2019 22:56 -4,2 C 3,9 C -4,4 C 93 % 1020,4 hPa 0,0 l/m 2,6 km/h (1 Bft) NO 53 0 min 0,000 mm 0,0 UV-I 0 W/m -5,2 C -4,2 C 3,2 km/h (1 Bft) 97,87 %
20.01.2019 22:59 -4,2 C 3,9 C -4,4 C 93 % 1020,4 hPa 0,0 l/m 1,9 km/h (1 Bft) NO 53 0 min 0,000 mm 0,0 UV-I 0 W/m -5,2 C -4,2 C 3,2 km/h (1 Bft) 97,14 %
20.01.2019 23:00 -4,2 C 3,9 C -4,4 C 93 % 1020,4 hPa 0,0 l/m 1,8 km/h (1 Bft) NO 53 0 min 0,000 mm 0,0 UV-I 0 W/m -5,2 C -4,2 C 3,2 km/h (1 Bft) 100,00 %
20.01.2019 23:02 -4,2 C 3,9 C -4,4 C 93 % 1020,5 hPa 0,0 l/m 2,7 km/h (1 Bft) NO 53 0 min 0,000 mm 0,0 UV-I 0 W/m -5,2 C -4,2 C 4,8 km/h (1 Bft) 98,00 %
20.01.2019 23:04 -4,2 C 3,9 C -4,4 C 93 % 1020,5 hPa 0,0 l/m 1,4 km/h (1 Bft) NO 53 0 min 0,000 mm 0,0 UV-I 0 W/m -5,2 C -4,2 C 1,6 km/h (1 Bft) 97,87 %
20.01.2019 23:06 -4,2 C 3,9 C -4,4 C 93 % 1020,5 hPa 0,0 l/m 1,3 km/h (1 Bft) NO 53 0 min 0,000 mm 0,0 UV-I 0 W/m -5,2 C -4,2 C 1,6 km/h (1 Bft) 100,00 %
20.01.2019 23:09 -4,2 C 3,9 C -4,4 C 93 % 1020,6 hPa 0,0 l/m 0,6 km/h (0 Bft) NO 53 0 min 0,000 mm 0,0 UV-I 0 W/m -5,2 C -4,2 C 1,6 km/h (1 Bft) 100,00 %
20.01.2019 23:10 -4,2 C 3,9 C -4,4 C 93 % 1020,6 hPa 0,0 l/m 1,5 km/h (1 Bft) NO 53 0 min 0,000 mm 0,0 UV-I 0 W/m -5,2 C -4,2 C 3,2 km/h (1 Bft) 100,00 %
20.01.2019 23:12 -4,2 C 3,9 C -4,4 C 93 % 1020,5 hPa 0,0 l/m 2,0 km/h (1 Bft) NO 53 0 min 0,000 mm 0,0 UV-I 0 W/m -5,2 C -4,2 C 3,2 km/h (1 Bft) 100,00 %
20.01.2019 23:14 -4,2 C 3,9 C -4,4 C 93 % 1020,6 hPa 0,0 l/m 1,6 km/h (1 Bft) NO 53 0 min 0,000 mm 0,0 UV-I 0 W/m -5,2 C -4,2 C 3,2 km/h (1 Bft) 95,74 %
20.01.2019 23:16 -4,2 C 3,9 C -3,9 C 93 % 1020,6 hPa 0,0 l/m 0,4 km/h (0 Bft) NO 53 0 min 0,000 mm 0,0 UV-I 0 W/m -5,2 C -4,2 C 1,6 km/h (1 Bft) 97,14 %
20.01.2019 23:19 -4,1 C 3,9 C -3,9 C 93 % 1020,6 hPa 0,0 l/m 1,1 km/h (1 Bft) NO 53 0 min 0,000 mm 0,0 UV-I 0 W/m -5,1 C -4,1 C 1,6 km/h (1 Bft) 97,30 %
20.01.2019 23:20 -4,1 C 3,9 C -3,9 C 93 % 1020,6 hPa 0,0 l/m 1,7 km/h (1 Bft) NO 53 0 min 0,000 mm 0,0 UV-I 0 W/m -5,1 C -4,1 C 3,2 km/h (1 Bft) 95,65 %
20.01.2019 23:22 -4,1 C 3,9 C -3,9 C 93 % 1020,6 hPa 0,0 l/m 0,5 km/h (0 Bft) NO 53 0 min 0,000 mm 0,0 UV-I 0 W/m -5,1 C -4,1 C 1,6 km/h (1 Bft) 97,87 %
20.01.2019 23:24 -4,1 C 3,9 C -3,9 C 93 % 1020,6 hPa 0,0 l/m 1,2 km/h (1 Bft) NO 53 0 min 0,000 mm 0,0 UV-I 0 W/m -5,1 C -4,1 C 3,2 km/h (1 Bft) 97,87 %
20.01.2019 23:26 -4,0 C 3,9 C -3,9 C 93 % 1020,6 hPa 0,0 l/m 1,8 km/h (1 Bft) NO 53 0 min 0,000 mm 0,0 UV-I 0 W/m -5,0 C -4,0 C 3,2 km/h (1 Bft) 93,75 %
20.01.2019 23:29 -3,9 C 3,9 C -3,9 C 93 % 1020,6 hPa 0,0 l/m 4,0 km/h (1 Bft) NO 48 0 min 0,000 mm 0,0 UV-I 0 W/m -4,9 C -3,9 C 4,8 km/h (1 Bft) 95,71 %
20.01.2019 23:30 -3,9 C 3,9 C -3,9 C 93 % 1020,6 hPa 0,0 l/m 4,8 km/h (1 Bft) NO 48 0 min 0,000 mm 0,0 UV-I 0 W/m -4,9 C -3,9 C 6,4 km/h (2 Bft) 95,83 %
20.01.2019 23:32 -3,9 C 3,9 C -3,9 C 93 % 1020,6 hPa 0,0 l/m 4,0 km/h (1 Bft) N-NO 28 0 min 0,000 mm 0,0 UV-I 0 W/m -4,9 C -3,9 C 6,4 km/h (2 Bft) 98,00 %
20.01.2019 23:34 -3,9 C 3,9 C -3,9 C 93 % 1020,6 hPa 0,0 l/m 2,2 km/h (1 Bft) N-NO 28 0 min 0,000 mm 0,0 UV-I 0 W/m -4,9 C -3,9 C 4,8 km/h (1 Bft) 95,74 %
20.01.2019 23:36 -3,9 C 3,9 C -3,9 C 93 % 1020,6 hPa 0,0 l/m 2,8 km/h (1 Bft) N-NO 28 0 min 0,000 mm 0,0 UV-I 0 W/m -4,9 C -3,9 C 4,8 km/h (1 Bft) 95,74 %
20.01.2019 23:38 -3,9 C 3,9 C -3,9 C 93 % 1020,6 hPa 0,0 l/m 4,7 km/h (1 Bft) N-NO 31 0 min 0,000 mm 0,0 UV-I 0 W/m -4,9 C -3,9 C 6,4 km/h (2 Bft) 97,87 %
20.01.2019 23:40 -3,9 C 3,9 C -3,9 C 93 % 1020,6 hPa 0,0 l/m 5,4 km/h (1 Bft) NO 36 0 min 0,000 mm 0,0 UV-I 0 W/m -4,9 C -3,9 C 6,4 km/h (2 Bft) 97,87 %
20.01.2019 23:42 -3,9 C 3,9 C -3,9 C 93 % 1020,6 hPa 0,0 l/m 5,9 km/h (2 Bft) NO 41 0 min 0,000 mm 0,0 UV-I 0 W/m -4,9 C -3,9 C 8,0 km/h (2 Bft) 95,74 %
20.01.2019 23:44 -4,0 C 3,9 C -4,4 C 93 % 1020,6 hPa 0,0 l/m 5,1 km/h (1 Bft) NO 40 0 min 0,000 mm 0,0 UV-I 0 W/m -5,0 C -4,0 C 6,4 km/h (2 Bft) 97,87 %
20.01.2019 23:46 -4,0 C 3,9 C -4,4 C 93 % 1020,6 hPa 0,0 l/m 4,4 km/h (1 Bft) NO 40 0 min 0,000 mm 0,0 UV-I 0 W/m -5,0 C -4,0 C 4,8 km/h (1 Bft) 96,00 %
20.01.2019 23:48 -4,0 C 3,9 C -4,4 C 93 % 1020,6 hPa 0,0 l/m 4,4 km/h (1 Bft) NO 40 0 min 0,000 mm 0,0 UV-I 0 W/m -5,0 C -4,0 C 6,4 km/h (2 Bft) 97,87 %
20.01.2019 23:50 -4,1 C 3,9 C -4,4 C 93 % 1020,6 hPa 0,0 l/m 4,2 km/h (1 Bft) NO 40 0 min 0,000 mm 0,0 UV-I 0 W/m -5,1 C -4,1 C 6,4 km/h (2 Bft) 97,87 %
20.01.2019 23:52 -4,1 C 3,9 C -5,0 C 93 % 1020,7 hPa 0,0 l/m 3,8 km/h (1 Bft) NO 40 0 min 0,000 mm 0,0 UV-I 0 W/m -5,1 C -4,1 C 4,8 km/h (1 Bft) 94,74 %
20.01.2019 23:54 -4,1 C 3,9 C -5,0 C 93 % 1020,6 hPa 0,0 l/m 2,7 km/h (1 Bft) NO 40 0 min 0,000 mm 0,0 UV-I 0 W/m -5,1 C -4,1 C 3,2 km/h (1 Bft) 93,62 %
20.01.2019 23:56 -4,2 C 3,9 C -5,0 C 93 % 1020,6 hPa 0,0 l/m 3,5 km/h (1 Bft) NO 40 0 min 0,000 mm 0,0 UV-I 0 W/m -5,2 C -4,2 C 4,8 km/h (1 Bft) 95,74 %
20.01.2019 23:59 -4,2 C 3,9 C -5,0 C 93 % 1020,7 hPa 0,0 l/m 2,7 km/h (1 Bft) NO 40 0 min 0,000 mm 0,0 UV-I 0 W/m -5,2 C -4,2 C 4,8 km/h (1 Bft) 98,59 %
_ Min-Zeit 18:50 00:00 17:32 13:24 02:48 - 18:00 - - - - - - 01:06 03:22 18:00 00:02
Minimum _ -5,3 C 3,9 C -8,3 C 86 % 1014,8 hPa - 0,0 km/h (0 Bft) - - - - - - -6,4 C -12,9 C 0,0 km/h (0 Bft) 11,11 %
_ Max-Zeit 13:10 00:00 13:28 19:38 23:52 00:00 03:22 - - 15:44 14:00 00:00 13:36 13:10 13:10 03:20 00:00
Maximum _ -2,9 C 3,9 C 0,0 C 93 % 1020,7 hPa 0,0 l/m 16,2 km/h
O (3 Bft)
- - 2 min 0,050 mm 0,0 UV-I 160 W/m -4,6 C -2,9 C 20,9 km/h
O (4 Bft)
100,00 %
Durchschnitt _ -4,1 C 3,9 C -3,9 C 90 % 1016,8 hPa #0,0 l/m 4,4 km/h (1 Bft) O - #14 min. #0,203 mm 0,0 UV-I 72 W/m -5,4 C -4,7 C 7,0 km/h (2 Bft) 96,87 %